Wetterdaten: Dienstag, 23.05.2017
Datum Zeit Temp. A. Pool Temp. Feuchte A. Luftdruck Regen Wind Richtung Richtung Sonnenschein ET UV Solar Taupunkt Windchill Windben Empfang
23.05.2017 00:00 13,2 C 21,1 C 84 % 1015,4 hPa 0,0 l/m 1,3 km/h (1 Bft) O-SO 122 0 min 0,000 mm 0,0 UV-I 0 W/m 10,6 C 13,2 C 3,2 km/h (1 Bft) 98,15 %
23.05.2017 00:02 13,2 C 21,1 C 84 % 1015,4 hPa 0,0 l/m 0,4 km/h (0 Bft) O-SO 122 0 min 0,000 mm 0,0 UV-I 0 W/m 10,6 C 13,2 C 1,6 km/h (1 Bft) 93,33 %
23.05.2017 00:04 13,1 C 20,6 C 84 % 1015,4 hPa 0,0 l/m 0,0 km/h (0 Bft) O-SO 122 0 min 0,000 mm 0,0 UV-I 0 W/m 10,5 C 13,1 C 0,0 km/h (0 Bft) 95,12 %
23.05.2017 00:06 13,2 C 20,6 C 84 % 1015,4 hPa 0,0 l/m 0,0 km/h (0 Bft) O-SO 122 0 min 0,000 mm 0,0 UV-I 0 W/m 10,6 C 13,2 C 1,6 km/h (1 Bft) 97,87 %
23.05.2017 00:08 13,1 C 20,6 C 83 % 1015,4 hPa 0,0 l/m 3,0 km/h (1 Bft) O-SO 122 0 min 0,000 mm 0,0 UV-I 0 W/m 10,3 C 13,1 C 3,2 km/h (1 Bft) 98,00 %
23.05.2017 00:10 13,0 C 20,6 C 84 % 1015,4 hPa 0,0 l/m 3,3 km/h (1 Bft) O-SO 122 0 min 0,000 mm 0,0 UV-I 0 W/m 10,4 C 13,0 C 4,8 km/h (1 Bft) 95,74 %
23.05.2017 00:12 13,1 C 20,6 C 84 % 1015,4 hPa 0,0 l/m 2,1 km/h (1 Bft) O-SO 122 0 min 0,000 mm 0,0 UV-I 0 W/m 10,5 C 13,1 C 3,2 km/h (1 Bft) 95,24 %
23.05.2017 00:14 12,9 C 20,6 C 83 % 1015,5 hPa 0,0 l/m 1,6 km/h (1 Bft) O-SO 122 0 min 0,000 mm 0,0 UV-I 0 W/m 10,1 C 12,9 C 3,2 km/h (1 Bft) 98,00 %
23.05.2017 00:16 12,8 C 21,1 C 84 % 1015,5 hPa 0,0 l/m 1,0 km/h (0 Bft) O-SO 122 0 min 0,000 mm 0,0 UV-I 0 W/m 10,2 C 12,8 C 3,2 km/h (1 Bft) 96,00 %
23.05.2017 00:18 12,9 C 20,6 C 84 % 1015,5 hPa 0,0 l/m 0,0 km/h (0 Bft) O-SO 122 0 min 0,000 mm 0,0 UV-I 0 W/m 10,3 C 12,9 C 0,0 km/h (0 Bft) 97,37 %
23.05.2017 00:20 12,9 C 20,6 C 84 % 1015,5 hPa 0,0 l/m 0,5 km/h (0 Bft) O-SO 122 0 min 0,000 mm 0,0 UV-I 0 W/m 10,3 C 12,9 C 3,2 km/h (1 Bft) 95,74 %
23.05.2017 00:22 12,9 C 20,6 C 83 % 1015,5 hPa 0,0 l/m 3,4 km/h (1 Bft) O-SO 122 0 min 0,000 mm 0,0 UV-I 0 W/m 10,1 C 12,9 C 4,8 km/h (1 Bft) 98,11 %
23.05.2017 00:24 12,9 C 20,6 C 83 % 1015,5 hPa 0,0 l/m 3,5 km/h (1 Bft) O-SO 121 0 min 0,000 mm 0,0 UV-I 0 W/m 10,1 C 12,9 C 4,8 km/h (1 Bft) 98,00 %
23.05.2017 00:26 13,1 C 20,6 C 82 % 1015,5 hPa 0,0 l/m 2,3 km/h (1 Bft) O-SO 121 0 min 0,000 mm 0,0 UV-I 0 W/m 10,1 C 13,1 C 3,2 km/h (1 Bft) 95,12 %
23.05.2017 00:28 13,1 C 20,6 C 81 % 1015,5 hPa 0,0 l/m 1,3 km/h (1 Bft) O-SO 121 0 min 0,000 mm 0,0 UV-I 0 W/m 9,9 C 13,1 C 3,2 km/h (1 Bft) 94,00 %
23.05.2017 00:30 12,9 C 20,6 C 82 % 1015,4 hPa 0,0 l/m 0,9 km/h (0 Bft) O-SO 121 0 min 0,000 mm 0,0 UV-I 0 W/m 9,9 C 12,9 C 1,6 km/h (1 Bft) 92,68 %
23.05.2017 00:32 12,8 C 20,6 C 83 % 1015,4 hPa 0,0 l/m 1,7 km/h (1 Bft) O-SO 121 0 min 0,000 mm 0,0 UV-I 0 W/m 10,0 C 12,8 C 3,2 km/h (1 Bft) 100,00 %
23.05.2017 00:34 12,8 C 20,6 C 82 % 1015,4 hPa 0,0 l/m 1,1 km/h (1 Bft) O-SO 121 0 min 0,000 mm 0,0 UV-I 0 W/m 9,8 C 12,8 C 3,2 km/h (1 Bft) 98,00 %
23.05.2017 00:36 12,7 C 20,6 C 83 % 1015,4 hPa 0,0 l/m 0,3 km/h (0 Bft) O-SO 121 0 min 0,000 mm 0,0 UV-I 0 W/m 9,9 C 12,7 C 1,6 km/h (1 Bft) 100,00 %
23.05.2017 00:38 12,7 C 20,6 C 84 % 1015,4 hPa 0,0 l/m 0,0 km/h (0 Bft) O-SO 121 0 min 0,000 mm 0,0 UV-I 0 W/m 10,1 C 12,7 C 0,0 km/h (0 Bft) 95,74 %
23.05.2017 00:40 12,6 C 20,6 C 84 % 1015,5 hPa 0,0 l/m 0,0 km/h (0 Bft) O-SO 121 0 min 0,000 mm 0,0 UV-I 0 W/m 10,0 C 12,6 C 0,0 km/h (0 Bft) 98,00 %
23.05.2017 00:42 12,5 C 20,6 C 84 % 1015,4 hPa 0,0 l/m 1,4 km/h (1 Bft) O-SO 121 0 min 0,000 mm 0,0 UV-I 0 W/m 9,9 C 12,5 C 3,2 km/h (1 Bft) 100,00 %
23.05.2017 00:44 12,4 C 20,6 C 84 % 1015,5 hPa 0,0 l/m 2,8 km/h (1 Bft) O 96 0 min 0,000 mm 0,0 UV-I 0 W/m 9,8 C 12,4 C 4,8 km/h (1 Bft) 98,00 %
23.05.2017 00:46 12,4 C 20,6 C 84 % 1015,5 hPa 0,0 l/m 1,0 km/h (0 Bft) O 96 0 min 0,000 mm 0,0 UV-I 0 W/m 9,8 C 12,4 C 3,2 km/h (1 Bft) 100,00 %
23.05.2017 00:48 12,4 C 20,6 C 84 % 1015,5 hPa 0,0 l/m 1,8 km/h (1 Bft) O 96 0 min 0,000 mm 0,0 UV-I 0 W/m 9,8 C 12,4 C 3,2 km/h (1 Bft) 98,00 %
23.05.2017 00:50 12,3 C 20,6 C 85 % 1015,4 hPa 0,0 l/m 1,7 km/h (1 Bft) O 96 0 min 0,000 mm 0,0 UV-I 0 W/m 9,9 C 12,3 C 3,2 km/h (1 Bft) 100,00 %
23.05.2017 00:52 12,2 C 20,6 C 85 % 1015,4 hPa 0,0 l/m 1,5 km/h (1 Bft) O 96 0 min 0,000 mm 0,0 UV-I 0 W/m 9,8 C 12,2 C 3,2 km/h (1 Bft) 97,22 %
23.05.2017 00:54 12,1 C 20,6 C 86 % 1015,4 hPa 0,0 l/m 0,2 km/h (0 Bft) O 96 0 min 0,000 mm 0,0 UV-I 0 W/m 9,8 C 12,1 C 1,6 km/h (1 Bft) 98,00 %
23.05.2017 00:56 12,1 C 20,6 C 86 % 1015,4 hPa 0,0 l/m 0,4 km/h (0 Bft) O 96 0 min 0,000 mm 0,0 UV-I 0 W/m 9,8 C 12,1 C 1,6 km/h (1 Bft) 97,87 %
23.05.2017 00:58 11,9 C 20,6 C 86 % 1015,4 hPa 0,0 l/m 0,0 km/h (0 Bft) O 96 0 min 0,000 mm 0,0 UV-I 0 W/m 9,6 C 11,9 C 0,0 km/h (0 Bft) 98,11 %
23.05.2017 01:00 11,8 C 20,6 C 86 % 1015,4 hPa 0,0 l/m 0,1 km/h (0 Bft) O 96 0 min 0,000 mm 0,0 UV-I 0 W/m 9,5 C 11,8 C 1,6 km/h (1 Bft) 98,00 %
23.05.2017 01:02 11,8 C 20,6 C 87 % 1015,4 hPa 0,0 l/m 2,6 km/h (1 Bft) O 96 0 min 0,000 mm 0,0 UV-I 0 W/m 9,7 C 11,8 C 4,8 km/h (1 Bft) 97,56 %
23.05.2017 01:04 11,8 C 20,6 C 87 % 1015,4 hPa 0,0 l/m 3,2 km/h (1 Bft) O 96 0 min 0,000 mm 0,0 UV-I 0 W/m 9,7 C 11,8 C 4,8 km/h (1 Bft) 96,00 %
23.05.2017 01:06 11,9 C 20,6 C 87 % 1015,4 hPa 0,0 l/m 2,9 km/h (1 Bft) O 96 0 min 0,000 mm 0,0 UV-I 0 W/m 9,8 C 11,9 C 4,8 km/h (1 Bft) 95,74 %
23.05.2017 01:08 11,9 C 20,6 C 87 % 1015,3 hPa 0,0 l/m 1,2 km/h (1 Bft) O 96 0 min 0,000 mm 0,0 UV-I 0 W/m 9,8 C 11,9 C 3,2 km/h (1 Bft) 98,00 %
23.05.2017 01:10 11,8 C 20,6 C 86 % 1015,3 hPa 0,0 l/m 1,3 km/h (1 Bft) O 96 0 min 0,000 mm 0,0 UV-I 0 W/m 9,5 C 11,8 C 3,2 km/h (1 Bft) 95,12 %
23.05.2017 01:12 11,7 C 20,6 C 86 % 1015,4 hPa 0,0 l/m 2,5 km/h (1 Bft) O 96 0 min 0,000 mm 0,0 UV-I 0 W/m 9,4 C 11,7 C 4,8 km/h (1 Bft) 96,00 %
23.05.2017 01:14 11,6 C 20,6 C 87 % 1015,4 hPa 0,0 l/m 0,4 km/h (0 Bft) O 96 0 min 0,000 mm 0,0 UV-I 0 W/m 9,5 C 11,6 C 1,6 km/h (1 Bft) 100,00 %
23.05.2017 01:16 11,7 C 20,6 C 88 % 1015,5 hPa 0,0 l/m 0,6 km/h (0 Bft) O 96 0 min 0,000 mm 0,0 UV-I 0 W/m 9,8 C 11,7 C 1,6 km/h (1 Bft) 95,59 %
23.05.2017 01:18 11,8 C 20,6 C 87 % 1015,4 hPa 0,0 l/m 0,2 km/h (0 Bft) O 96 0 min 0,000 mm 0,0 UV-I 0 W/m 9,7 C 11,8 C 1,6 km/h (1 Bft) 97,56 %
23.05.2017 01:20 11,9 C 20,6 C 87 % 1015,4 hPa 0,0 l/m 0,6 km/h (0 Bft) O 96 0 min 0,000 mm 0,0 UV-I 0 W/m 9,8 C 11,9 C 1,6 km/h (1 Bft) 96,23 %
23.05.2017 01:22 11,9 C 20,6 C 87 % 1015,4 hPa 0,0 l/m 2,3 km/h (1 Bft) O 96 0 min 0,000 mm 0,0 UV-I 0 W/m 9,8 C 11,9 C 4,8 km/h (1 Bft) 94,74 %
23.05.2017 01:24 11,9 C 20,6 C 86 % 1015,4 hPa 0,0 l/m 1,0 km/h (0 Bft) O 96 0 min 0,000 mm 0,0 UV-I 0 W/m 9,6 C 11,9 C 3,2 km/h (1 Bft) 98,11 %
23.05.2017 01:26 11,8 C 20,6 C 87 % 1015,4 hPa 0,0 l/m 0,0 km/h (0 Bft) O 96 0 min 0,000 mm 0,0 UV-I 0 W/m 9,7 C 11,8 C 0,0 km/h (0 Bft) 95,24 %
23.05.2017 01:28 11,8 C 20,6 C 87 % 1015,3 hPa 0,0 l/m 1,5 km/h (1 Bft) O 96 0 min 0,000 mm 0,0 UV-I 0 W/m 9,7 C 11,8 C 3,2 km/h (1 Bft) 98,08 %
23.05.2017 01:30 11,8 C 20,6 C 87 % 1015,3 hPa 0,0 l/m 4,5 km/h (1 Bft) O 93 0 min 0,000 mm 0,0 UV-I 0 W/m 9,7 C 11,8 C 6,4 km/h (2 Bft) 96,00 %
23.05.2017 01:32 11,8 C 20,6 C 87 % 1015,2 hPa 0,0 l/m 3,7 km/h (1 Bft) O 93 0 min 0,000 mm 0,0 UV-I 0 W/m 9,7 C 11,8 C 4,8 km/h (1 Bft) 94,44 %
23.05.2017 01:34 12,0 C 20,6 C 86 % 1015,2 hPa 0,0 l/m 1,7 km/h (1 Bft) O 93 0 min 0,000 mm 0,0 UV-I 0 W/m 9,7 C 12,0 C 4,8 km/h (1 Bft) 98,11 %
23.05.2017 01:36 11,9 C 20,6 C 86 % 1015,2 hPa 0,0 l/m 1,2 km/h (1 Bft) O 93 0 min 0,000 mm 0,0 UV-I 0 W/m 9,6 C 11,9 C 4,8 km/h (1 Bft) 96,00 %
23.05.2017 01:38 11,9 C 20,6 C 86 % 1015,2 hPa 0,0 l/m 2,2 km/h (1 Bft) O 94 0 min 0,000 mm 0,0 UV-I 0 W/m 9,6 C 11,9 C 4,8 km/h (1 Bft) 97,73 %
23.05.2017 01:40 11,9 C 20,6 C 86 % 1015,3 hPa 0,0 l/m 2,5 km/h (1 Bft) O 94 0 min 0,000 mm 0,0 UV-I 0 W/m 9,6 C 11,9 C 3,2 km/h (1 Bft) 97,56 %
23.05.2017 01:42 11,9 C 20,6 C 86 % 1015,3 hPa 0,0 l/m 2,7 km/h (1 Bft) O 94 0 min 0,000 mm 0,0 UV-I 0 W/m 9,6 C 11,9 C 3,2 km/h (1 Bft) 96,43 %
23.05.2017 01:44 11,8 C 20,6 C 86 % 1015,3 hPa 0,0 l/m 2,4 km/h (1 Bft) O 94 0 min 0,000 mm 0,0 UV-I 0 W/m 9,5 C 11,8 C 3,2 km/h (1 Bft) 97,56 %
23.05.2017 01:46 11,7 C 20,6 C 86 % 1015,3 hPa 0,0 l/m 3,0 km/h (1 Bft) O 94 0 min 0,000 mm 0,0 UV-I 0 W/m 9,4 C 11,7 C 4,8 km/h (1 Bft) 96,00 %
23.05.2017 01:48 11,5 C 20,6 C 87 % 1015,3 hPa 0,0 l/m 2,9 km/h (1 Bft) O 94 0 min 0,000 mm 0,0 UV-I 0 W/m 9,4 C 11,5 C 4,8 km/h (1 Bft) 95,74 %
23.05.2017 01:50 11,4 C 20,6 C 87 % 1015,2 hPa 0,0 l/m 3,2 km/h (1 Bft) O 94 0 min 0,000 mm 0,0 UV-I 0 W/m 9,3 C 11,4 C 4,8 km/h (1 Bft) 97,56 %
23.05.2017 01:52 11,4 C 20,6 C 87 % 1015,2 hPa 0,0 l/m 2,1 km/h (1 Bft) O 94 0 min 0,000 mm 0,0 UV-I 0 W/m 9,3 C 11,4 C 4,8 km/h (1 Bft) 96,23 %
23.05.2017 01:54 11,4 C 20,6 C 87 % 1015,3 hPa 0,0 l/m 1,4 km/h (1 Bft) O 94 0 min 0,000 mm 0,0 UV-I 0 W/m 9,3 C 11,4 C 3,2 km/h (1 Bft) 100,00 %
23.05.2017 01:56 11,4 C 20,6 C 88 % 1015,3 hPa 0,0 l/m 1,7 km/h (1 Bft) O 94 0 min 0,000 mm 0,0 UV-I 0 W/m 9,5 C 11,4 C 3,2 km/h (1 Bft) 94,00 %
23.05.2017 01:58 11,4 C 20,6 C 88 % 1015,3 hPa 0,0 l/m 2,4 km/h (1 Bft) O 94 0 min 0,000 mm 0,0 UV-I 0 W/m 9,5 C 11,4 C 3,2 km/h (1 Bft) 98,00 %
23.05.2017 02:00 11,5 C 20,6 C 87 % 1015,3 hPa 0,0 l/m 3,7 km/h (1 Bft) O 94 0 min 0,000 mm 0,0 UV-I 0 W/m 9,4 C 11,5 C 4,8 km/h (1 Bft) 97,37 %
23.05.2017 02:02 11,5 C 20,6 C 87 % 1015,2 hPa 0,0 l/m 2,5 km/h (1 Bft) O 94 0 min 0,000 mm 0,0 UV-I 0 W/m 9,4 C 11,5 C 4,8 km/h (1 Bft) 96,00 %
23.05.2017 02:04 11,5 C 20,6 C 87 % 1015,2 hPa 0,0 l/m 1,3 km/h (1 Bft) O 94 0 min 0,000 mm 0,0 UV-I 0 W/m 9,4 C 11,5 C 1,6 km/h (1 Bft) 97,87 %
23.05.2017 02:06 11,5 C 20,6 C 87 % 1015,2 hPa 0,0 l/m 0,9 km/h (0 Bft) O 94 0 min 0,000 mm 0,0 UV-I 0 W/m 9,4 C 11,5 C 3,2 km/h (1 Bft) 97,92 %
23.05.2017 02:08 11,4 C 20,6 C 87 % 1015,3 hPa 0,0 l/m 3,9 km/h (1 Bft) O 94 0 min 0,000 mm 0,0 UV-I 0 W/m 9,3 C 11,4 C 4,8 km/h (1 Bft) 97,96 %
23.05.2017 02:10 11,5 C 20,6 C 88 % 1015,3 hPa 0,0 l/m 2,6 km/h (1 Bft) O 96 0 min 0,000 mm 0,0 UV-I 0 W/m 9,6 C 11,5 C 6,4 km/h (2 Bft) 95,24 %
23.05.2017 02:12 11,6 C 20,6 C 87 % 1015,3 hPa 0,0 l/m 1,8 km/h (1 Bft) O 96 0 min 0,000 mm 0,0 UV-I 0 W/m 9,5 C 11,6 C 3,2 km/h (1 Bft) 91,49 %
23.05.2017 02:14 11,6 C 20,6 C 87 % 1015,2 hPa 0,0 l/m 2,6 km/h (1 Bft) O 96 0 min 0,000 mm 0,0 UV-I 0 W/m 9,5 C 11,6 C 4,8 km/h (1 Bft) 95,74 %
23.05.2017 02:16 11,5 C 20,6 C 87 % 1015,2 hPa 0,0 l/m 2,7 km/h (1 Bft) O 96 0 min 0,000 mm 0,0 UV-I 0 W/m 9,4 C 11,5 C 4,8 km/h (1 Bft) 96,23 %
23.05.2017 02:18 11,4 C 20,6 C 87 % 1015,2 hPa 0,0 l/m 0,9 km/h (0 Bft) O 96 0 min 0,000 mm 0,0 UV-I 0 W/m 9,3 C 11,4 C 3,2 km/h (1 Bft) 95,74 %
23.05.2017 02:20 11,4 C 20,6 C 87 % 1015,2 hPa 0,0 l/m 3,2 km/h (1 Bft) O 96 0 min 0,000 mm 0,0 UV-I 0 W/m 9,3 C 11,4 C 4,8 km/h (1 Bft) 95,74 %
23.05.2017 02:22 11,4 C 20,6 C 87 % 1015,2 hPa 0,0 l/m 1,6 km/h (1 Bft) O 96 0 min 0,000 mm 0,0 UV-I 0 W/m 9,3 C 11,4 C 3,2 km/h (1 Bft) 96,00 %
23.05.2017 02:24 11,4 C 20,6 C 87 % 1015,2 hPa 0,0 l/m 2,5 km/h (1 Bft) O 96 0 min 0,000 mm 0,0 UV-I 0 W/m 9,3 C 11,4 C 4,8 km/h (1 Bft) 97,87 %
23.05.2017 02:26 11,4 C 20,6 C 87 % 1015,1 hPa 0,0 l/m 1,0 km/h (0 Bft) O 96 0 min 0,000 mm 0,0 UV-I 0 W/m 9,3 C 11,4 C 3,2 km/h (1 Bft) 97,73 %
23.05.2017 02:28 11,5 C 20,6 C 87 % 1015,1 hPa 0,0 l/m 1,1 km/h (1 Bft) O 96 0 min 0,000 mm 0,0 UV-I 0 W/m 9,4 C 11,5 C 1,6 km/h (1 Bft) 97,73 %
23.05.2017 02:30 11,6 C 20,6 C 87 % 1015,1 hPa 0,0 l/m 1,8 km/h (1 Bft) O 96 0 min 0,000 mm 0,0 UV-I 0 W/m 9,5 C 11,6 C 3,2 km/h (1 Bft) 94,00 %
23.05.2017 02:32 11,6 C 20,6 C 87 % 1015,1 hPa 0,0 l/m 0,9 km/h (0 Bft) O 96 0 min 0,000 mm 0,0 UV-I 0 W/m 9,5 C 11,6 C 1,6 km/h (1 Bft) 97,56 %
23.05.2017 02:34 11,7 C 20,6 C 87 % 1015,1 hPa 0,0 l/m 1,7 km/h (1 Bft) O 96 0 min 0,000 mm 0,0 UV-I 0 W/m 9,6 C 11,7 C 3,2 km/h (1 Bft) 97,87 %
23.05.2017 02:36 11,7 C 20,6 C 86 % 1015,0 hPa 0,0 l/m 1,2 km/h (1 Bft) O 96 0 min 0,000 mm 0,0 UV-I 0 W/m 9,4 C 11,7 C 3,2 km/h (1 Bft) 98,00 %
23.05.2017 02:38 11,7 C 20,6 C 86 % 1015,0 hPa 0,0 l/m 3,6 km/h (1 Bft) O-SO 113 0 min 0,000 mm 0,0 UV-I 0 W/m 9,4 C 11,7 C 6,4 km/h (2 Bft) 100,00 %
23.05.2017 02:40 11,7 C 20,6 C 86 % 1015,0 hPa 0,0 l/m 3,3 km/h (1 Bft) O-SO 116 0 min 0,000 mm 0,0 UV-I 0 W/m 9,4 C 11,7 C 4,8 km/h (1 Bft) 97,14 %
23.05.2017 02:42 11,8 C 20,6 C 86 % 1015,0 hPa 0,0 l/m 3,3 km/h (1 Bft) O-SO 116 0 min 0,000 mm 0,0 UV-I 0 W/m 9,5 C 11,8 C 4,8 km/h (1 Bft) 100,00 %
23.05.2017 02:44 11,7 C 20,6 C 87 % 1015,0 hPa 0,0 l/m 1,6 km/h (1 Bft) O-SO 116 0 min 0,000 mm 0,0 UV-I 0 W/m 9,6 C 11,7 C 3,2 km/h (1 Bft) 100,00 %
23.05.2017 02:46 11,7 C 20,6 C 87 % 1015,0 hPa 0,0 l/m 0,8 km/h (0 Bft) O-SO 116 0 min 0,000 mm 0,0 UV-I 0 W/m 9,6 C 11,7 C 3,2 km/h (1 Bft) 97,87 %
23.05.2017 02:48 11,8 C 20,6 C 87 % 1015,0 hPa 0,0 l/m 1,7 km/h (1 Bft) O-SO 116 0 min 0,000 mm 0,0 UV-I 0 W/m 9,7 C 11,8 C 3,2 km/h (1 Bft) 100,00 %
23.05.2017 02:50 11,9 C 20,6 C 87 % 1015,0 hPa 0,0 l/m 0,4 km/h (0 Bft) O-SO 116 0 min 0,000 mm 0,0 UV-I 0 W/m 9,8 C 11,9 C 1,6 km/h (1 Bft) 96,23 %
23.05.2017 02:52 11,9 C 20,6 C 86 % 1015,1 hPa 0,0 l/m 0,8 km/h (0 Bft) O-SO 116 0 min 0,000 mm 0,0 UV-I 0 W/m 9,6 C 11,9 C 3,2 km/h (1 Bft) 98,00 %
23.05.2017 02:54 11,8 C 20,6 C 86 % 1015,0 hPa 0,0 l/m 0,6 km/h (0 Bft) O-SO 116 0 min 0,000 mm 0,0 UV-I 0 W/m 9,5 C 11,8 C 1,6 km/h (1 Bft) 98,11 %
23.05.2017 02:56 11,7 C 20,6 C 86 % 1015,0 hPa 0,0 l/m 3,0 km/h (1 Bft) O-SO 122 0 min 0,000 mm 0,0 UV-I 0 W/m 9,4 C 11,7 C 4,8 km/h (1 Bft) 97,56 %
23.05.2017 02:58 11,6 C 20,6 C 86 % 1015,1 hPa 0,0 l/m 4,8 km/h (1 Bft) SW 221 0 min 0,000 mm 0,0 UV-I 0 W/m 9,3 C 11,6 C 6,4 km/h (2 Bft) 96,23 %
23.05.2017 03:00 11,4 C 20,6 C 87 % 1015,1 hPa 0,0 l/m 5,6 km/h (1 Bft) S-SW 209 0 min 0,000 mm 0,0 UV-I 0 W/m 9,3 C 11,4 C 6,4 km/h (2 Bft) 97,87 %
23.05.2017 03:02 11,2 C 20,6 C 87 % 1015,2 hPa 0,0 l/m 6,0 km/h (2 Bft) SW 216 0 min 0,000 mm 0,0 UV-I 0 W/m 9,1 C 11,2 C 8,0 km/h (2 Bft) 97,73 %
23.05.2017 03:04 11,1 C 20,6 C 88 % 1015,2 hPa 0,0 l/m 5,9 km/h (2 Bft) S-SW 196 0 min 0,000 mm 0,0 UV-I 0 W/m 9,2 C 11,1 C 8,0 km/h (2 Bft) 97,87 %
23.05.2017 03:06 11,1 C 20,6 C 88 % 1015,2 hPa 0,0 l/m 3,8 km/h (1 Bft) S-SW 198 0 min 0,000 mm 0,0 UV-I 0 W/m 9,2 C 11,1 C 6,4 km/h (2 Bft) 97,56 %
23.05.2017 03:08 11,0 C 20,6 C 88 % 1015,2 hPa 0,0 l/m 4,5 km/h (1 Bft) S-SW 198 0 min 0,000 mm 0,0 UV-I 0 W/m 9,1 C 11,0 C 6,4 km/h (2 Bft) 100,00 %
23.05.2017 03:10 11,1 C 20,6 C 89 % 1015,3 hPa 0,0 l/m 3,7 km/h (1 Bft) S-SW 198 0 min 0,000 mm 0,0 UV-I 0 W/m 9,4 C 11,1 C 4,8 km/h (1 Bft) 97,87 %
23.05.2017 03:12 11,1 C 20,6 C 89 % 1015,2 hPa 0,0 l/m 1,5 km/h (1 Bft) S-SW 198 0 min 0,000 mm 0,0 UV-I 0 W/m 9,4 C 11,1 C 4,8 km/h (1 Bft) 97,87 %
23.05.2017 03:14 11,2 C 20,6 C 88 % 1015,1 hPa 0,0 l/m 1,6 km/h (1 Bft) S 185 0 min 0,000 mm 0,0 UV-I 0 W/m 9,3 C 11,2 C 3,2 km/h (1 Bft) 100,00 %
23.05.2017 03:16 11,2 C 20,6 C 88 % 1015,1 hPa 0,0 l/m 2,1 km/h (1 Bft) S-SO 166 0 min 0,000 mm 0,0 UV-I 0 W/m 9,3 C 11,2 C 6,4 km/h (2 Bft) 100,00 %
23.05.2017 03:18 11,2 C 20,6 C 88 % 1015,1 hPa 0,0 l/m 4,6 km/h (1 Bft) S-SO 167 0 min 0,000 mm 0,0 UV-I 0 W/m 9,3 C 11,2 C 8,0 km/h (2 Bft) 97,87 %
23.05.2017 03:20 11,3 C 20,6 C 88 % 1015,2 hPa 0,0 l/m 5,6 km/h (1 Bft) S 169 0 min 0,000 mm 0,0 UV-I 0 W/m 9,4 C 11,3 C 8,0 km/h (2 Bft) 100,00 %
23.05.2017 03:22 11,4 C 20,6 C 88 % 1015,2 hPa 0,0 l/m 5,6 km/h (1 Bft) S-SW 212 0 min 0,000 mm 0,0 UV-I 0 W/m 9,5 C 11,4 C 6,4 km/h (2 Bft) 100,00 %
23.05.2017 03:24 11,4 C 20,6 C 88 % 1015,3 hPa 0,0 l/m 5,3 km/h (1 Bft) S-SW 212 0 min 0,000 mm 0,0 UV-I 0 W/m 9,5 C 11,4 C 6,4 km/h (2 Bft) 100,00 %
23.05.2017 03:26 11,4 C 20,6 C 87 % 1015,3 hPa 0,0 l/m 3,8 km/h (1 Bft) S-SW 212 0 min 0,000 mm 0,0 UV-I 0 W/m 9,3 C 11,4 C 4,8 km/h (1 Bft) 100,00 %
23.05.2017 03:28 11,4 C 20,6 C 87 % 1015,3 hPa 0,0 l/m 4,2 km/h (1 Bft) S-SW 212 0 min 0,000 mm 0,0 UV-I 0 W/m 9,3 C 11,4 C 6,4 km/h (2 Bft) 100,00 %
23.05.2017 03:30 11,4 C 20,6 C 87 % 1015,3 hPa 0,0 l/m 3,4 km/h (1 Bft) S-SW 212 0 min 0,000 mm 0,0 UV-I 0 W/m 9,3 C 11,4 C 4,8 km/h (1 Bft) 97,92 %
23.05.2017 03:32 11,3 C 20,6 C 88 % 1015,3 hPa 0,0 l/m 4,7 km/h (1 Bft) S-SW 212 0 min 0,000 mm 0,0 UV-I 0 W/m 9,4 C 11,3 C 6,4 km/h (2 Bft) 100,00 %
23.05.2017 03:34 11,3 C 20,6 C 87 % 1015,3 hPa 0,0 l/m 5,4 km/h (1 Bft) S 187 0 min 0,000 mm 0,0 UV-I 0 W/m 9,2 C 11,3 C 8,0 km/h (2 Bft) 95,74 %
23.05.2017 03:36 11,3 C 20,6 C 88 % 1015,3 hPa 0,0 l/m 6,3 km/h (2 Bft) SW 215 0 min 0,000 mm 0,0 UV-I 0 W/m 9,4 C 11,3 C 11,3 km/h (2 Bft) 100,00 %
23.05.2017 03:38 11,3 C 20,6 C 88 % 1015,3 hPa 0,0 l/m 6,8 km/h (2 Bft) S-SO 168 0 min 0,000 mm 0,0 UV-I 0 W/m 9,4 C 11,0 C 9,7 km/h (2 Bft) 97,56 %
23.05.2017 03:40 11,3 C 20,6 C 88 % 1015,3 hPa 0,0 l/m 4,0 km/h (1 Bft) S-SO 165 0 min 0,000 mm 0,0 UV-I 0 W/m 9,4 C 11,3 C 6,4 km/h (2 Bft) 100,00 %
23.05.2017 03:42 11,3 C 20,6 C 88 % 1015,2 hPa 0,0 l/m 4,1 km/h (1 Bft) S-SO 165 0 min 0,000 mm 0,0 UV-I 0 W/m 9,4 C 11,3 C 8,0 km/h (2 Bft) 98,11 %
23.05.2017 03:44 11,3 C 20,6 C 87 % 1015,3 hPa 0,0 l/m 3,6 km/h (1 Bft) S-SO 167 0 min 0,000 mm 0,0 UV-I 0 W/m 9,2 C 11,3 C 6,4 km/h (2 Bft) 97,37 %
23.05.2017 03:46 11,4 C 20,6 C 87 % 1015,2 hPa 0,0 l/m 2,4 km/h (1 Bft) S 175 0 min 0,000 mm 0,0 UV-I 0 W/m 9,3 C 11,4 C 4,8 km/h (1 Bft) 100,00 %
23.05.2017 03:48 11,6 C 20,6 C 86 % 1015,1 hPa 0,0 l/m 3,6 km/h (1 Bft) S 173 0 min 0,000 mm 0,0 UV-I 0 W/m 9,3 C 11,6 C 6,4 km/h (2 Bft) 97,87 %
23.05.2017 03:50 11,7 C 20,6 C 86 % 1015,0 hPa 0,0 l/m 4,4 km/h (1 Bft) S 171 0 min 0,000 mm 0,0 UV-I 0 W/m 9,4 C 11,7 C 8,0 km/h (2 Bft) 100,00 %
23.05.2017 03:52 11,8 C 20,6 C 85 % 1015,0 hPa 0,0 l/m 2,8 km/h (1 Bft) S-SO 167 0 min 0,000 mm 0,0 UV-I 0 W/m 9,4 C 11,8 C 6,4 km/h (2 Bft) 98,21 %
23.05.2017 03:54 11,9 C 20,6 C 85 % 1015,0 hPa 0,0 l/m 3,3 km/h (1 Bft) S-SO 167 0 min 0,000 mm 0,0 UV-I 0 W/m 9,5 C 11,9 C 6,4 km/h (2 Bft) 100,00 %
23.05.2017 03:56 11,9 C 20,6 C 85 % 1015,0 hPa 0,0 l/m 5,9 km/h (2 Bft) S 189 0 min 0,000 mm 0,0 UV-I 0 W/m 9,5 C 11,9 C 8,0 km/h (2 Bft) 98,11 %
23.05.2017 03:58 12,0 C 20,6 C 84 % 1015,0 hPa 0,0 l/m 4,9 km/h (1 Bft) S 188 0 min 0,000 mm 0,0 UV-I 0 W/m 9,4 C 12,0 C 6,4 km/h (2 Bft) 98,00 %
23.05.2017 04:00 11,9 C 20,6 C 84 % 1015,0 hPa 0,0 l/m 4,4 km/h (1 Bft) S-SW 199 0 min 0,000 mm 0,0 UV-I 0 W/m 9,3 C 11,9 C 9,7 km/h (2 Bft) 100,00 %
23.05.2017 04:02 11,8 C 20,6 C 84 % 1015,0 hPa 0,0 l/m 6,4 km/h (2 Bft) S-SW 199 0 min 0,000 mm 0,0 UV-I 0 W/m 9,2 C 11,8 C 6,4 km/h (2 Bft) 100,00 %
23.05.2017 04:04 11,8 C 20,6 C 84 % 1015,0 hPa 0,0 l/m 5,6 km/h (1 Bft) S 188 0 min 0,000 mm 0,0 UV-I 0 W/m 9,2 C 11,8 C 6,4 km/h (2 Bft) 100,00 %
23.05.2017 04:06 11,8 C 20,6 C 84 % 1014,9 hPa 0,0 l/m 3,9 km/h (1 Bft) S 191 0 min 0,000 mm 0,0 UV-I 0 W/m 9,2 C 11,8 C 6,4 km/h (2 Bft) 94,34 %
23.05.2017 04:08 11,8 C 20,6 C 84 % 1014,9 hPa 0,0 l/m 2,9 km/h (1 Bft) S 174 0 min 0,000 mm 0,0 UV-I 0 W/m 9,2 C 11,8 C 4,8 km/h (1 Bft) 93,62 %
23.05.2017 04:10 11,8 C 20,6 C 84 % 1014,9 hPa 0,0 l/m 3,5 km/h (1 Bft) S 179 0 min 0,000 mm 0,0 UV-I 0 W/m 9,2 C 11,8 C 6,4 km/h (2 Bft) 97,56 %
23.05.2017 04:12 11,8 C 20,6 C 84 % 1014,9 hPa 0,0 l/m 3,7 km/h (1 Bft) S 179 0 min 0,000 mm 0,0 UV-I 0 W/m 9,2 C 11,8 C 6,4 km/h (2 Bft) 96,00 %
23.05.2017 04:14 11,8 C 20,6 C 84 % 1014,9 hPa 0,0 l/m 3,3 km/h (1 Bft) S 180 0 min 0,000 mm 0,0 UV-I 0 W/m 9,2 C 11,8 C 6,4 km/h (2 Bft) 94,00 %
23.05.2017 04:16 11,9 C 20,6 C 84 % 1014,9 hPa 0,0 l/m 4,9 km/h (1 Bft) S-SW 192 0 min 0,000 mm 0,0 UV-I 0 W/m 9,3 C 11,9 C 8,0 km/h (2 Bft) 95,12 %
23.05.2017 04:18 11,9 C 20,6 C 84 % 1014,8 hPa 0,0 l/m 4,1 km/h (1 Bft) S-SW 194 0 min 0,000 mm 0,0 UV-I 0 W/m 9,3 C 11,9 C 6,4 km/h (2 Bft) 95,74 %
23.05.2017 04:20 11,9 C 20,6 C 84 % 1014,8 hPa 0,0 l/m 4,2 km/h (1 Bft) S 171 0 min 0,000 mm 0,0 UV-I 0 W/m 9,3 C 11,9 C 8,0 km/h (2 Bft) 94,00 %
23.05.2017 04:22 11,9 C 20,6 C 83 % 1014,8 hPa 0,0 l/m 3,3 km/h (1 Bft) S 190 0 min 0,000 mm 0,0 UV-I 0 W/m 9,1 C 11,9 C 6,4 km/h (2 Bft) 94,34 %
23.05.2017 04:24 12,0 C 20,6 C 83 % 1014,8 hPa 0,0 l/m 3,0 km/h (1 Bft) S-SO 166 0 min 0,000 mm 0,0 UV-I 0 W/m 9,2 C 12,0 C 8,0 km/h (2 Bft) 95,12 %
23.05.2017 04:26 12,1 C 20,6 C 83 % 1014,8 hPa 0,0 l/m 2,5 km/h (1 Bft) S-SO 166 0 min 0,000 mm 0,0 UV-I 0 W/m 9,3 C 12,1 C 6,4 km/h (2 Bft) 89,36 %
23.05.2017 04:28 12,1 C 20,6 C 83 % 1014,8 hPa 0,0 l/m 5,4 km/h (1 Bft) S-SO 167 0 min 0,000 mm 0,0 UV-I 0 W/m 9,3 C 12,1 C 8,0 km/h (2 Bft) 96,00 %
23.05.2017 04:30 12,1 C 20,6 C 83 % 1014,8 hPa 0,0 l/m 4,7 km/h (1 Bft) S-SW 199 0 min 0,000 mm 0,0 UV-I 0 W/m 9,3 C 12,1 C 6,4 km/h (2 Bft) 92,68 %
23.05.2017 04:32 12,0 C 20,6 C 83 % 1014,8 hPa 0,0 l/m 2,5 km/h (1 Bft) S-SW 199 0 min 0,000 mm 0,0 UV-I 0 W/m 9,2 C 12,0 C 4,8 km/h (1 Bft) 87,23 %
23.05.2017 04:34 11,8 C 20,6 C 83 % 1014,8 hPa 0,0 l/m 2,1 km/h (1 Bft) S-SW 199 0 min 0,000 mm 0,0 UV-I 0 W/m 9,0 C 11,8 C 3,2 km/h (1 Bft) 96,00 %
23.05.2017 04:36 11,7 C 20,6 C 84 % 1014,9 hPa 0,0 l/m 2,6 km/h (1 Bft) S-SW 199 0 min 0,000 mm 0,0 UV-I 0 W/m 9,1 C 11,7 C 4,8 km/h (1 Bft) 95,74 %
23.05.2017 04:38 11,6 C 20,6 C 84 % 1014,9 hPa 0,0 l/m 1,6 km/h (1 Bft) S-SW 199 0 min 0,000 mm 0,0 UV-I 0 W/m 9,0 C 11,6 C 3,2 km/h (1 Bft) 92,00 %
23.05.2017 04:40 11,5 C 20,6 C 84 % 1014,9 hPa 0,0 l/m 0,4 km/h (0 Bft) S-SW 199 0 min 0,000 mm 0,0 UV-I 0 W/m 8,9 C 11,5 C 1,6 km/h (1 Bft) 93,62 %
23.05.2017 04:42 11,4 C 20,0 C 85 % 1015,0 hPa 0,0 l/m 0,8 km/h (0 Bft) S-SW 199 0 min 0,000 mm 0,0 UV-I 0 W/m 9,0 C 11,4 C 3,2 km/h (1 Bft) 95,74 %
23.05.2017 04:44 11,3 C 20,0 C 85 % 1014,9 hPa 0,0 l/m 1,5 km/h (1 Bft) S-SW 199 0 min 0,000 mm 0,0 UV-I 0 W/m 8,9 C 11,3 C 3,2 km/h (1 Bft) 94,87 %
23.05.2017 04:46 11,3 C 20,6 C 85 % 1014,9 hPa 0,0 l/m 0,8 km/h (0 Bft) S-SW 199 0 min 0,000 mm 0,0 UV-I 0 W/m 8,9 C 11,3 C 3,2 km/h (1 Bft) 98,11 %
23.05.2017 04:48 11,2 C 20,0 C 85 % 1014,9 hPa 0,0 l/m 0,7 km/h (0 Bft) S-SW 199 0 min 0,000 mm 0,0 UV-I 0 W/m 8,8 C 11,2 C 1,6 km/h (1 Bft) 93,62 %
23.05.2017 04:50 11,1 C 20,0 C 85 % 1014,9 hPa 0,0 l/m 1,2 km/h (1 Bft) S-SW 199 0 min 0,000 mm 0,0 UV-I 0 W/m 8,7 C 11,1 C 3,2 km/h (1 Bft) 97,56 %
23.05.2017 04:52 10,8 C 20,0 C 86 % 1014,9 hPa 0,0 l/m 3,9 km/h (1 Bft) S-SW 198 0 min 0,000 mm 0,0 UV-I 0 W/m 8,6 C 10,8 C 4,8 km/h (1 Bft) 95,74 %
23.05.2017 04:54 10,7 C 20,0 C 87 % 1014,9 hPa 0,0 l/m 5,8 km/h (2 Bft) O-NO 65 0 min 0,000 mm 0,0 UV-I 0 W/m 8,6 C 10,7 C 8,0 km/h (2 Bft) 98,11 %
23.05.2017 04:56 10,7 C 20,0 C 87 % 1014,9 hPa 0,0 l/m 6,2 km/h (2 Bft) O-NO 65 0 min 0,000 mm 0,0 UV-I 0 W/m 8,6 C 10,7 C 8,0 km/h (2 Bft) 97,92 %
23.05.2017 04:58 10,6 C 20,0 C 87 % 1014,9 hPa 0,0 l/m 2,6 km/h (1 Bft) O-NO 65 0 min 0,000 mm 0,0 UV-I 0 W/m 8,5 C 10,6 C 4,8 km/h (1 Bft) 95,74 %
23.05.2017 05:00 10,6 C 20,0 C 88 % 1015,0 hPa 0,0 l/m 1,6 km/h (1 Bft) O-NO 65 0 min 0,000 mm 0,0 UV-I 0 W/m 8,7 C 10,6 C 4,8 km/h (1 Bft) 94,29 %
23.05.2017 05:02 10,6 C 20,0 C 88 % 1015,0 hPa 0,0 l/m 4,9 km/h (1 Bft) O-NO 65 0 min 0,000 mm 0,0 UV-I 0 W/m 8,7 C 10,6 C 6,4 km/h (2 Bft) 98,11 %
23.05.2017 05:04 10,6 C 20,0 C 88 % 1015,0 hPa 0,0 l/m 1,1 km/h (1 Bft) O-NO 65 0 min 0,000 mm 0,0 UV-I 0 W/m 8,7 C 10,6 C 4,8 km/h (1 Bft) 98,00 %
23.05.2017 05:06 10,6 C 20,0 C 89 % 1015,0 hPa 0,0 l/m 0,0 km/h (0 Bft) O-NO 65 0 min 0,000 mm 0,0 UV-I 5 W/m 8,9 C 10,6 C 1,6 km/h (1 Bft) 96,00 %
23.05.2017 05:08 10,6 C 20,0 C 88 % 1015,0 hPa 0,0 l/m 0,0 km/h (0 Bft) O-NO 65 0 min 0,000 mm 0,0 UV-I 5 W/m 8,7 C 10,6 C 0,0 km/h (0 Bft) 95,74 %
23.05.2017 05:10 10,6 C 20,0 C 89 % 1015,1 hPa 0,0 l/m 2,2 km/h (1 Bft) O-NO 65 0 min 0,000 mm 0,0 UV-I 5 W/m 8,9 C 10,6 C 4,8 km/h (1 Bft) 100,00 %
23.05.2017 05:12 10,4 C 20,0 C 88 % 1015,1 hPa 0,0 l/m 4,0 km/h (1 Bft) S-SO 159 0 min 0,000 mm 0,0 UV-I 5 W/m 8,5 C 10,4 C 6,4 km/h (2 Bft) 92,00 %
23.05.2017 05:14 10,3 C 20,0 C 88 % 1015,1 hPa 0,0 l/m 4,8 km/h (1 Bft) S 173 0 min 0,000 mm 0,0 UV-I 5 W/m 8,4 C 10,3 C 6,4 km/h (2 Bft) 95,74 %
23.05.2017 05:16 10,2 C 20,0 C 88 % 1015,1 hPa 0,0 l/m 3,9 km/h (1 Bft) S-SW 198 0 min 0,000 mm 0,0 UV-I 7 W/m 8,3 C 10,2 C 4,8 km/h (1 Bft) 97,56 %
23.05.2017 05:18 10,0 C 20,0 C 89 % 1015,1 hPa 0,0 l/m 4,2 km/h (1 Bft) S-SW 199 0 min 0,000 mm 0,0 UV-I 7 W/m 8,3 C 10,0 C 6,4 km/h (2 Bft) 97,87 %
23.05.2017 05:20 9,9 C 20,0 C 89 % 1015,2 hPa 0,0 l/m 3,3 km/h (1 Bft) S-SW 199 0 min 0,000 mm 0,0 UV-I 7 W/m 8,2 C 9,9 C 4,8 km/h (1 Bft) 100,00 %
23.05.2017 05:22 9,9 C 20,0 C 90 % 1015,1 hPa 0,0 l/m 0,6 km/h (0 Bft) S-SW 199 0 min 0,000 mm 0,0 UV-I 7 W/m 8,3 C 9,9 C 1,6 km/h (1 Bft) 98,00 %
23.05.2017 05:24 9,8 C 20,0 C 90 % 1015,2 hPa 0,0 l/m 0,0 km/h (0 Bft) S-SW 199 0 min 0,000 mm 0,0 UV-I 8 W/m 8,2 C 9,8 C 0,0 km/h (0 Bft) 97,44 %
23.05.2017 05:26 9,7 C 20,0 C 90 % 1015,2 hPa 0,0 l/m 0,0 km/h (0 Bft) S-SW 199 0 min 0,000 mm 0,0 UV-I 9 W/m 8,1 C 9,7 C 0,0 km/h (0 Bft) 100,00 %
23.05.2017 05:28 9,7 C 20,0 C 90 % 1015,1 hPa 0,0 l/m 0,0 km/h (0 Bft) S-SW 199 0 min 0,000 mm 0,0 UV-I 9 W/m 8,1 C 9,7 C 0,0 km/h (0 Bft) 100,00 %
23.05.2017 05:30 9,7 C 20,0 C 91 % 1015,2 hPa 0,0 l/m 0,3 km/h (0 Bft) S-SW 199 0 min 0,000 mm 0,0 UV-I 10 W/m 8,3 C 9,7 C 1,6 km/h (1 Bft) 100,00 %
23.05.2017 05:32 9,8 C 20,0 C 91 % 1015,2 hPa 0,0 l/m 1,0 km/h (0 Bft) S-SW 199 0 min 0,000 mm 0,0 UV-I 11 W/m 8,4 C 9,8 C 3,2 km/h (1 Bft) 98,00 %
23.05.2017 05:34 9,9 C 20,0 C 91 % 1015,2 hPa 0,0 l/m 2,2 km/h (1 Bft) S-SW 199 0 min 0,000 mm 0,0 UV-I 11 W/m 8,5 C 9,9 C 4,8 km/h (1 Bft) 95,74 %
23.05.2017 05:36 9,9 C 20,0 C 91 % 1015,2 hPa 0,0 l/m 1,7 km/h (1 Bft) S-SW 199 0 min 0,000 mm 0,0 UV-I 12 W/m 8,5 C 9,9 C 3,2 km/h (1 Bft) 95,45 %
23.05.2017 05:38 9,9 C 20,0 C 90 % 1015,2 hPa 0,0 l/m 1,5 km/h (1 Bft) S-SW 199 0 min 0,000 mm 0,0 UV-I 12 W/m 8,3 C 9,9 C 3,2 km/h (1 Bft) 100,00 %
23.05.2017 05:40 9,9 C 20,0 C 90 % 1015,1 hPa 0,0 l/m 0,5 km/h (0 Bft) S-SW 199 0 min 0,000 mm 0,0 UV-I 14 W/m 8,3 C 9,9 C 1,6 km/h (1 Bft) 98,11 %
23.05.2017 05:42 9,9 C 20,0 C 90 % 1015,1 hPa 0,0 l/m 1,4 km/h (1 Bft) S-SW 199 0 min 0,000 mm 0,0 UV-I 15 W/m 8,3 C 9,9 C 3,2 km/h (1 Bft) 100,00 %
23.05.2017 05:44 9,9 C 20,0 C 91 % 1015,1 hPa 0,0 l/m 0,4 km/h (0 Bft) S-SW 199 0 min 0,000 mm 0,0 UV-I 17 W/m 8,5 C 9,9 C 1,6 km/h (1 Bft) 97,37 %
23.05.2017 05:46 10,1 C 20,0 C 91 % 1015,2 hPa 0,0 l/m 1,8 km/h (1 Bft) S-SW 199 0 min 0,000 mm 0,0 UV-I 19 W/m 8,7 C 10,1 C 3,2 km/h (1 Bft) 100,00 %
23.05.2017 05:48 10,2 C 20,0 C 90 % 1015,2 hPa 0,0 l/m 1,9 km/h (1 Bft) S-SW 199 0 min 0,000 mm 0,0 UV-I 23 W/m 8,6 C 10,2 C 3,2 km/h (1 Bft) 97,14 %
23.05.2017 05:50 10,1 C 20,0 C 90 % 1015,2 hPa 0,0 l/m 1,8 km/h (1 Bft) S-SW 199 0 min 0,000 mm 0,0 UV-I 31 W/m 8,5 C 10,1 C 3,2 km/h (1 Bft) 100,00 %
23.05.2017 05:52 10,1 C 20,0 C 90 % 1015,2 hPa 0,0 l/m 1,9 km/h (1 Bft) S-SW 199 0 min 0,000 mm 0,0 UV-I 38 W/m 8,5 C 10,1 C 3,2 km/h (1 Bft) 98,11 %
23.05.2017 05:54 10,1 C 20,0 C 90 % 1015,1 hPa 0,0 l/m 1,3 km/h (1 Bft) S-SW 199 0 min 0,000 mm 0,0 UV-I 39 W/m 8,5 C 10,1 C 3,2 km/h (1 Bft) 97,56 %
23.05.2017 05:56 10,2 C 20,0 C 90 % 1015,2 hPa 0,0 l/m 1,2 km/h (1 Bft) S-SW 199 0 min 0,000 mm 0,0 UV-I 33 W/m 8,6 C 10,2 C 3,2 km/h (1 Bft) 98,00 %
23.05.2017 05:58 10,4 C 20,0 C 90 % 1015,2 hPa 0,0 l/m 1,8 km/h (1 Bft) S-SW 199 0 min 0,000 mm 0,0 UV-I 41 W/m 8,8 C 10,4 C 4,8 km/h (1 Bft) 97,87 %
23.05.2017 06:00 10,7 C 20,0 C 89 % 1015,2 hPa 0,0 l/m 0,7 km/h (0 Bft) S-SW 199 2 min 0,000 mm 0,0 UV-I 60 W/m 9,0 C 10,7 C 1,6 km/h (1 Bft) 100,00 %
23.05.2017 06:02 10,8 C 20,0 C 88 % 1015,2 hPa 0,0 l/m 0,5 km/h (0 Bft) S-SW 199 2 min 0,000 mm 0,0 UV-I 70 W/m 8,9 C 10,8 C 1,6 km/h (1 Bft) 97,44 %
23.05.2017 06:04 10,8 C 20,0 C 88 % 1015,3 hPa 0,0 l/m 0,6 km/h (0 Bft) S-SW 199 2 min 0,000 mm 0,0 UV-I 75 W/m 8,9 C 10,8 C 3,2 km/h (1 Bft) 96,36 %
23.05.2017 06:06 10,8 C 20,0 C 88 % 1015,2 hPa 0,0 l/m 0,0 km/h (0 Bft) S-SW 199 2 min 0,000 mm 0,0 UV-I 79 W/m 8,9 C 10,8 C 0,0 km/h (0 Bft) 96,08 %
23.05.2017 06:08 10,8 C 20,0 C 88 % 1015,2 hPa 0,0 l/m 0,0 km/h (0 Bft) S-SW 199 2 min 0,000 mm 0,0 UV-I 82 W/m 8,9 C 10,8 C 0,0 km/h (0 Bft) 97,14 %
23.05.2017 06:10 10,9 C 20,0 C 88 % 1015,2 hPa 0,0 l/m 0,0 km/h (0 Bft) S-SW 199 2 min 0,000 mm 0,0 UV-I 70 W/m 9,0 C 10,9 C 0,0 km/h (0 Bft) 100,00 %
23.05.2017 06:12 10,9 C 20,0 C 88 % 1015,3 hPa 0,0 l/m 0,0 km/h (0 Bft) S-SW 199 0 min 0,000 mm 0,0 UV-I 53 W/m 9,0 C 10,9 C 0,0 km/h (0 Bft) 100,00 %
23.05.2017 06:14 10,9 C 20,0 C 88 % 1015,3 hPa 0,0 l/m 0,2 km/h (0 Bft) S-SW 199 0 min 0,000 mm 0,0 UV-I 44 W/m 9,0 C 10,9 C 1,6 km/h (1 Bft) 95,74 %
23.05.2017 06:16 11,0 C 20,0 C 88 % 1015,3 hPa 0,0 l/m 0,2 km/h (0 Bft) S-SW 199 0 min 0,000 mm 0,0 UV-I 46 W/m 9,1 C 11,0 C 1,6 km/h (1 Bft) 93,62 %
23.05.2017 06:18 10,9 C 20,0 C 88 % 1015,4 hPa 0,0 l/m 0,0 km/h (0 Bft) S-SW 199 0 min 0,000 mm 0,0 UV-I 60 W/m 9,0 C 10,9 C 1,6 km/h (1 Bft) 96,23 %
23.05.2017 06:20 10,8 C 20,0 C 88 % 1015,4 hPa 0,0 l/m 0,0 km/h (0 Bft) S-SW 199 2 min 0,000 mm 0,0 UV-I 104 W/m 8,9 C 10,8 C 0,0 km/h (0 Bft) 97,37 %
23.05.2017 06:22 10,7 C 20,0 C 89 % 1015,4 hPa 0,0 l/m 0,0 km/h (0 Bft) S-SW 199 2 min 0,000 mm 0,0 UV-I 114 W/m 9,0 C 10,7 C 0,0 km/h (0 Bft) 95,74 %
23.05.2017 06:24 10,6 C 20,0 C 90 % 1015,4 hPa 0,0 l/m 2,5 km/h (1 Bft) S-SW 199 2 min 0,000 mm 0,0 UV-I 121 W/m 9,0 C 10,6 C 4,8 km/h (1 Bft) 98,11 %
23.05.2017 06:26 10,5 C 20,0 C 90 % 1015,4 hPa 0,0 l/m 1,7 km/h (1 Bft) S-SW 199 2 min 0,000 mm 0,0 UV-I 125 W/m 8,9 C 10,5 C 3,2 km/h (1 Bft) 96,00 %
23.05.2017 06:28 10,6 C 20,0 C 91 % 1015,5 hPa 0,0 l/m 0,2 km/h (0 Bft) S-SW 199 2 min 0,000 mm 0,0 UV-I 127 W/m 9,2 C 10,6 C 1,6 km/h (1 Bft) 92,11 %
23.05.2017 06:30 10,7 C 20,0 C 91 % 1015,5 hPa 0,0 l/m 0,0 km/h (0 Bft) S-SW 199 2 min 0,000 mm 0,0 UV-I 139 W/m 9,3 C 10,7 C 0,0 km/h (0 Bft) 97,87 %
23.05.2017 06:32 10,8 C 20,0 C 91 % 1015,5 hPa 0,0 l/m 0,9 km/h (0 Bft) S-SW 199 2 min 0,000 mm 0,0 UV-I 142 W/m 9,4 C 10,8 C 3,2 km/h (1 Bft) 96,23 %
23.05.2017 06:34 11,0 C 20,0 C 91 % 1015,5 hPa 0,0 l/m 1,8 km/h (1 Bft) S-SW 199 2 min 0,000 mm 0,0 UV-I 145 W/m 9,6 C 11,0 C 3,2 km/h (1 Bft) 95,74 %
23.05.2017 06:36 11,1 C 20,0 C 90 % 1015,5 hPa 0,0 l/m 2,9 km/h (1 Bft) S-SW 199 2 min 0,000 mm 0,0 UV-I 147 W/m 9,5 C 11,1 C 4,8 km/h (1 Bft) 92,68 %
23.05.2017 06:38 11,2 C 20,0 C 90 % 1015,5 hPa 0,0 l/m 3,6 km/h (1 Bft) S-SW 199 2 min 0,000 mm 0,0 UV-I 147 W/m 9,6 C 11,2 C 4,8 km/h (1 Bft) 98,00 %
23.05.2017 06:40 11,3 C 20,0 C 90 % 1015,6 hPa 0,0 l/m 2,2 km/h (1 Bft) S-SW 199 2 min 0,000 mm 0,0 UV-I 146 W/m 9,7 C 11,3 C 4,8 km/h (1 Bft) 94,00 %
23.05.2017 06:42 11,4 C 20,0 C 90 % 1015,6 hPa 0,0 l/m 1,8 km/h (1 Bft) S-SW 199 2 min 0,000 mm 0,0 UV-I 150 W/m 9,8 C 11,4 C 3,2 km/h (1 Bft) 89,36 %
23.05.2017 06:44 11,4 C 20,0 C 89 % 1015,6 hPa 0,0 l/m 1,8 km/h (1 Bft) S-SW 199 2 min 0,000 mm 0,0 UV-I 155 W/m 9,7 C 11,4 C 3,2 km/h (1 Bft) 94,00 %
23.05.2017 06:46 11,5 C 20,0 C 89 % 1015,6 hPa 0,0 l/m 2,8 km/h (1 Bft) S-SW 199 2 min 0,000 mm 0,0 UV-I 156 W/m 9,8 C 11,5 C 4,8 km/h (1 Bft) 94,44 %
23.05.2017 06:48 11,6 C 20,0 C 89 % 1015,7 hPa 0,0 l/m 1,5 km/h (1 Bft) S-SW 199 2 min 0,000 mm 0,0 UV-I 160 W/m 9,8 C 11,6 C 3,2 km/h (1 Bft) 94,00 %
23.05.2017 06:50 11,7 C 20,0 C 89 % 1015,7 hPa 0,0 l/m 0,5 km/h (0 Bft) S-SW 199 0 min 0,000 mm 0,0 UV-I 94 W/m 9,9 C 11,7 C 1,6 km/h (1 Bft) 93,62 %
23.05.2017 06:52 11,7 C 20,0 C 89 % 1015,7 hPa 0,0 l/m 2,2 km/h (1 Bft) S-SW 199 0 min 0,000 mm 0,0 UV-I 68 W/m 9,9 C 11,7 C 3,2 km/h (1 Bft) 95,12 %
23.05.2017 06:54 11,7 C 20,0 C 89 % 1015,7 hPa 0,0 l/m 2,6 km/h (1 Bft) S-SW 199 0 min 0,000 mm 0,0 UV-I 73 W/m 9,9 C 11,7 C 3,2 km/h (1 Bft) 100,00 %
23.05.2017 06:56 11,7 C 20,0 C 89 % 1015,7 hPa 0,0 l/m 2,2 km/h (1 Bft) S-SW 199 0 min 0,000 mm 0,0 UV-I 113 W/m 9,9 C 11,7 C 3,2 km/h (1 Bft) 98,00 %
23.05.2017 06:59 11,7 C 20,0 C 90 % 1015,7 hPa 0,0 l/m 0,9 km/h (0 Bft) S-SW 199 3 min 0,000 mm 0,0 UV-I 194 W/m 10,1 C 11,7 C 3,2 km/h (1 Bft) 98,63 %
23.05.2017 07:00 11,8 C 20,0 C 90 % 1015,7 hPa 0,0 l/m 0,5 km/h (0 Bft) S-SW 199 1 min 0,000 mm 0,0 UV-I 197 W/m 10,2 C 11,8 C 1,6 km/h (1 Bft) 100,00 %
23.05.2017 07:02 11,9 C 20,0 C 90 % 1015,7 hPa 0,0 l/m 0,0 km/h (0 Bft) S-SW 199 2 min 0,051 mm 0,0 UV-I 205 W/m 10,3 C 11,9 C 0,0 km/h (0 Bft) 95,12 %
23.05.2017 07:04 12,1 C 20,0 C 88 % 1015,7 hPa 0,0 l/m 0,0 km/h (0 Bft) S-SW 199 2 min 0,000 mm 0,0 UV-I 212 W/m 10,2 C 12,1 C 0,0 km/h (0 Bft) 93,62 %
23.05.2017 07:06 12,3 C 20,0 C 88 % 1015,7 hPa 0,0 l/m 0,0 km/h (0 Bft) S-SW 199 2 min 0,000 mm 0,0 UV-I 216 W/m 10,4 C 12,3 C 1,6 km/h (1 Bft) 92,68 %
23.05.2017 07:08 12,4 C 20,0 C 88 % 1015,7 hPa 0,0 l/m 0,0 km/h (0 Bft) S-SW 199 2 min 0,000 mm 0,0 UV-I 222 W/m 10,5 C 12,4 C 0,0 km/h (0 Bft) 100,00 %
23.05.2017 07:10 12,7 C 20,0 C 86 % 1015,7 hPa 0,0 l/m 0,0 km/h (0 Bft) S-SW 199 2 min 0,000 mm 0,0 UV-I 226 W/m 10,4 C 12,7 C 0,0 km/h (0 Bft) 98,39 %
23.05.2017 07:12 12,9 C 20,0 C 86 % 1015,7 hPa 0,0 l/m 0,0 km/h (0 Bft) S-SW 199 2 min 0,000 mm 0,0 UV-I 232 W/m 10,6 C 12,9 C 0,0 km/h (0 Bft) 93,62 %
23.05.2017 07:14 13,1 C 20,0 C 86 % 1015,7 hPa 0,0 l/m 0,0 km/h (0 Bft) S-SW 199 2 min 0,000 mm 0,0 UV-I 236 W/m 10,8 C 13,1 C 0,0 km/h (0 Bft) 98,00 %
23.05.2017 07:16 13,2 C 20,0 C 84 % 1015,7 hPa 0,0 l/m 0,0 km/h (0 Bft) S-SW 199 2 min 0,000 mm 0,0 UV-I 238 W/m 10,6 C 13,2 C 0,0 km/h (0 Bft) 100,00 %
23.05.2017 07:18 13,2 C 20,0 C 84 % 1015,7 hPa 0,0 l/m 0,0 km/h (0 Bft) S-SW 199 2 min 0,000 mm 0,0 UV-I 245 W/m 10,6 C 13,2 C 0,0 km/h (0 Bft) 94,00 %
23.05.2017 07:20 13,3 C 20,0 C 84 % 1015,7 hPa 0,0 l/m 0,6 km/h (0 Bft) S-SW 199 2 min 0,000 mm 0,0 UV-I 253 W/m 10,7 C 13,3 C 3,2 km/h (1 Bft) 92,45 %
23.05.2017 07:22 13,4 C 20,0 C 83 % 1015,8 hPa 0,0 l/m 2,2 km/h (1 Bft) S-SW 199 2 min 0,000 mm 0,0 UV-I 259 W/m 10,6 C 13,4 C 3,2 km/h (1 Bft) 93,62 %
23.05.2017 07:24 13,5 C 20,0 C 83 % 1015,7 hPa 0,0 l/m 1,7 km/h (1 Bft) S-SW 199 2 min 0,000 mm 0,2 UV-I 259 W/m 10,7 C 13,5 C 3,2 km/h (1 Bft) 95,74 %
23.05.2017 07:26 13,6 C 20,0 C 82 % 1015,7 hPa 0,0 l/m 0,1 km/h (0 Bft) S-SW 199 2 min 0,000 mm 0,5 UV-I 270 W/m 10,6 C 13,6 C 1,6 km/h (1 Bft) 97,22 %
23.05.2017 07:28 13,7 C 20,0 C 82 % 1015,8 hPa 0,0 l/m 1,0 km/h (0 Bft) S-SW 199 2 min 0,000 mm 0,5 UV-I 277 W/m 10,7 C 13,7 C 3,2 km/h (1 Bft) 96,23 %
23.05.2017 07:30 13,7 C 20,0 C 80 % 1015,8 hPa 0,0 l/m 1,6 km/h (1 Bft) S-SW 199 2 min 0,000 mm 0,5 UV-I 288 W/m 10,3 C 13,7 C 3,2 km/h (1 Bft) 96,00 %
23.05.2017 07:32 13,8 C 20,0 C 82 % 1015,7 hPa 0,0 l/m 0,6 km/h (0 Bft) S-SW 199 2 min 0,000 mm 0,5 UV-I 301 W/m 10,8 C 13,8 C 3,2 km/h (1 Bft) 96,15 %
23.05.2017 07:34 13,9 C 20,0 C 80 % 1015,7 hPa 0,0 l/m 0,3 km/h (0 Bft) S-SW 199 2 min 0,000 mm 0,5 UV-I 284 W/m 10,5 C 13,9 C 3,2 km/h (1 Bft) 95,59 %
23.05.2017 07:36 14,1 C 20,0 C 80 % 1015,7 hPa 0,0 l/m 0,9 km/h (0 Bft) S-SW 199 2 min 0,000 mm 0,5 UV-I 241 W/m 10,7 C 14,1 C 3,2 km/h (1 Bft) 95,74 %
23.05.2017 07:38 14,2 C 20,0 C 79 % 1015,8 hPa 0,0 l/m 1,2 km/h (1 Bft) S-SW 199 2 min 0,000 mm 0,6 UV-I 286 W/m 10,6 C 14,2 C 1,6 km/h (1 Bft) 100,00 %
23.05.2017 07:40 14,3 C 20,0 C 80 % 1015,9 hPa 0,0 l/m 4,1 km/h (1 Bft) SW 214 2 min 0,000 mm 0,6 UV-I 312 W/m 10,9 C 14,3 C 6,4 km/h (2 Bft) 94,12 %
23.05.2017 07:42 14,4 C 20,0 C 80 % 1015,9 hPa 0,0 l/m 2,9 km/h (1 Bft) SW 214 2 min 0,000 mm 0,6 UV-I 334 W/m 11,0 C 14,4 C 6,4 km/h (2 Bft) 94,00 %
23.05.2017 07:44 14,5 C 20,0 C 80 % 1015,9 hPa 0,0 l/m 0,7 km/h (0 Bft) SW 214 2 min 0,000 mm 0,6 UV-I 354 W/m 11,1 C 14,5 C 1,6 km/h (1 Bft) 98,11 %
23.05.2017 07:46 14,7 C 20,0 C 80 % 1016,0 hPa 0,0 l/m 0,1 km/h (0 Bft) SW 214 2 min 0,000 mm 0,7 UV-I 367 W/m 11,3 C 14,7 C 1,6 km/h (1 Bft) 97,37 %
23.05.2017 07:49 14,9 C 20,0 C 79 % 1016,0 hPa 0,0 l/m 1,0 km/h (0 Bft) SW 214 3 min 0,000 mm 0,7 UV-I 388 W/m 11,3 C 14,9 C 3,2 km/h (1 Bft) 91,89 %
23.05.2017 07:50 14,9 C 20,0 C 79 % 1016,0 hPa 0,0 l/m 2,6 km/h (1 Bft) SW 214 1 min 0,000 mm 0,7 UV-I 387 W/m 11,3 C 14,9 C 4,8 km/h (1 Bft) 96,15 %
23.05.2017 07:52 15,0 C 20,0 C 78 % 1016,1 hPa 0,0 l/m 2,9 km/h (1 Bft) SW 214 2 min 0,000 mm 0,7 UV-I 402 W/m 11,2 C 15,0 C 4,8 km/h (1 Bft) 92,00 %
23.05.2017 07:54 15,1 C 20,0 C 79 % 1016,1 hPa 0,0 l/m 3,3 km/h (1 Bft) SW 214 2 min 0,000 mm 0,7 UV-I 293 W/m 11,5 C 15,1 C 4,8 km/h (1 Bft) 94,74 %
23.05.2017 07:56 15,2 C 20,0 C 79 % 1016,1 hPa 0,0 l/m 3,8 km/h (1 Bft) SW 214 2 min 0,000 mm 0,7 UV-I 327 W/m 11,6 C 15,2 C 6,4 km/h (2 Bft) 100,00 %
23.05.2017 07:59 15,3 C 20,0 C 80 % 1016,1 hPa 0,0 l/m 3,5 km/h (1 Bft) SW 214 3 min 0,000 mm 0,7 UV-I 373 W/m 11,9 C 15,3 C 6,4 km/h (2 Bft) 94,59 %
23.05.2017 08:00 15,3 C 20,0 C 80 % 1016,1 hPa 0,0 l/m 3,3 km/h (1 Bft) SW 214 0 min 0,152 mm 0,7 UV-I 229 W/m 11,9 C 15,3 C 4,8 km/h (1 Bft) 96,15 %
23.05.2017 08:02 15,3 C 20,0 C 80 % 1016,1 hPa 0,0 l/m 2,2 km/h (1 Bft) SW 214 2 min 0,000 mm 0,7 UV-I 247 W/m 11,9 C 15,3 C 4,8 km/h (1 Bft) 90,48 %
23.05.2017 08:04 15,3 C 20,0 C 78 % 1016,1 hPa 0,0 l/m 5,2 km/h (1 Bft) SW 234 2 min 0,000 mm 0,8 UV-I 327 W/m 11,5 C 15,3 C 8,0 km/h (2 Bft) 98,08 %
23.05.2017 08:06 15,4 C 20,0 C 79 % 1016,1 hPa 0,0 l/m 5,5 km/h (1 Bft) W-SW 245 2 min 0,000 mm 0,8 UV-I 473 W/m 11,8 C 15,4 C 8,0 km/h (2 Bft) 93,75 %
23.05.2017 08:08 15,4 C 20,0 C 77 % 1016,1 hPa 0,0 l/m 3,7 km/h (1 Bft) W-SW 246 2 min 0,000 mm 0,7 UV-I 243 W/m 11,4 C 15,4 C 4,8 km/h (1 Bft) 96,00 %
23.05.2017 08:10 15,4 C 20,0 C 77 % 1016,1 hPa 0,0 l/m 1,9 km/h (1 Bft) W-SW 246 0 min 0,000 mm 0,7 UV-I 224 W/m 11,4 C 15,4 C 3,2 km/h (1 Bft) 100,00 %
23.05.2017 08:12 15,4 C 20,0 C 79 % 1016,1 hPa 0,0 l/m 2,0 km/h (1 Bft) W 265 0 min 0,000 mm 0,7 UV-I 216 W/m 11,8 C 15,4 C 4,8 km/h (1 Bft) 97,87 %
23.05.2017 08:14 15,4 C 20,0 C 78 % 1016,1 hPa 0,0 l/m 2,0 km/h (1 Bft) W 265 0 min 0,000 mm 0,7 UV-I 186 W/m 11,6 C 15,4 C 4,8 km/h (1 Bft) 100,00 %
23.05.2017 08:16 15,4 C 20,0 C 78 % 1016,2 hPa 0,0 l/m 3,4 km/h (1 Bft) W-SW 254 0 min 0,000 mm 0,8 UV-I 226 W/m 11,6 C 15,4 C 8,0 km/h (2 Bft) 95,74 %
23.05.2017 08:19 15,4 C 20,0 C 79 % 1016,2 hPa 0,0 l/m 5,1 km/h (1 Bft) W-SW 250 3 min 0,000 mm 0,9 UV-I 340 W/m 11,8 C 15,4 C 8,0 km/h (2 Bft) 98,11 %
23.05.2017 08:20 15,5 C 20,0 C 79 % 1016,2 hPa 0,0 l/m 2,3 km/h (1 Bft) W-SW 250 1 min 0,000 mm 1,0 UV-I 438 W/m 11,9 C 15,5 C 4,8 km/h (1 Bft) 97,37 %
23.05.2017 08:22 15,7 C 20,0 C 79 % 1016,2 hPa 0,0 l/m 2,3 km/h (1 Bft) W-SW 250 2 min 0,000 mm 1,0 UV-I 383 W/m 12,1 C 15,7 C 3,2 km/h (1 Bft) 92,00 %
23.05.2017 08:24 15,8 C 20,0 C 78 % 1016,2 hPa 0,0 l/m 5,5 km/h (1 Bft) W 268 2 min 0,000 mm 1,1 UV-I 402 W/m 12,0 C 15,8 C 11,3 km/h (2 Bft) 94,74 %
23.05.2017 08:26 15,8 C 20,0 C 77 % 1016,2 hPa 0,0 l/m 7,4 km/h (2 Bft) W-SW 251 2 min 0,000 mm 1,1 UV-I 542 W/m 11,8 C 15,3 C 12,9 km/h (3 Bft) 95,45 %
23.05.2017 08:29 16,1 C 20,6 C 77 % 1016,2 hPa 0,0 l/m 6,9 km/h (2 Bft) W 273 3 min 0,000 mm 1,1 UV-I 564 W/m 12,1 C 15,8 C 11,3 km/h (2 Bft) 93,22 %
23.05.2017 08:30 16,1 C 20,6 C 77 % 1016,3 hPa 0,0 l/m 8,8 km/h (2 Bft) W-SW 254 1 min 0,000 mm 1,1 UV-I 550 W/m 12,1 C 14,9 C 11,3 km/h (2 Bft) 95,45 %
23.05.2017 08:32 16,2 C 20,0 C 77 % 1016,3 hPa 0,0 l/m 7,6 km/h (2 Bft) W 264 2 min 0,000 mm 1,0 UV-I 458 W/m 12,2 C 15,6 C 11,3 km/h (2 Bft) 93,33 %
23.05.2017 08:34 16,3 C 20,0 C 77 % 1016,3 hPa 0,0 l/m 4,7 km/h (1 Bft) W-SW 249 2 min 0,000 mm 1,0 UV-I 338 W/m 12,3 C 16,3 C 6,4 km/h (2 Bft) 93,44 %
23.05.2017 08:36 16,3 C 20,0 C 77 % 1016,3 hPa 0,0 l/m 6,0 km/h (2 Bft) W 263 2 min 0,000 mm 1,1 UV-I 338 W/m 12,3 C 16,3 C 9,7 km/h (2 Bft) 94,00 %
23.05.2017 08:38 16,3 C 20,0 C 77 % 1016,3 hPa 0,0 l/m 3,2 km/h (1 Bft) W 279 2 min 0,000 mm 1,0 UV-I 305 W/m 12,3 C 16,3 C 9,7 km/h (2 Bft) 100,00 %
23.05.2017 08:40 16,4 C 20,0 C 78 % 1016,3 hPa 0,0 l/m 2,8 km/h (1 Bft) S-SW 196 2 min 0,000 mm 1,2 UV-I 298 W/m 12,6 C 16,4 C 6,4 km/h (2 Bft) 97,14 %
23.05.2017 08:42 16,6 C 20,6 C 77 % 1016,2 hPa 0,0 l/m 4,0 km/h (1 Bft) S-SW 200 2 min 0,000 mm 1,3 UV-I 375 W/m 12,5 C 16,6 C 6,4 km/h (2 Bft) 94,87 %
23.05.2017 08:44 16,7 C 20,0 C 76 % 1016,2 hPa 0,0 l/m 4,5 km/h (1 Bft) S 170 2 min 0,000 mm 1,2 UV-I 610 W/m 12,4 C 16,7 C 9,7 km/h (2 Bft) 92,86 %
23.05.2017 08:46 16,6 C 20,0 C 76 % 1016,2 hPa 0,0 l/m 3,7 km/h (1 Bft) S-SO 165 0 min 0,000 mm 1,0 UV-I 267 W/m 12,3 C 16,6 C 8,0 km/h (2 Bft) 94,74 %
23.05.2017 08:48 16,5 C 20,0 C 75 % 1016,2 hPa 0,0 l/m 3,8 km/h (1 Bft) S-SW 208 0 min 0,000 mm 1,0 UV-I 213 W/m 12,1 C 16,5 C 8,0 km/h (2 Bft) 96,43 %
23.05.2017 08:50 16,5 C 20,0 C 76 % 1016,3 hPa 0,0 l/m 4,0 km/h (1 Bft) SW 219 0 min 0,000 mm 1,0 UV-I 241 W/m 12,3 C 16,5 C 8,0 km/h (2 Bft) 92,11 %
23.05.2017 08:52 16,6 C 20,0 C 76 % 1016,4 hPa 0,0 l/m 4,9 km/h (1 Bft) W-SW 258 0 min 0,000 mm 1,1 UV-I 284 W/m 12,3 C 16,6 C 8,0 km/h (2 Bft) 100,00 %
23.05.2017 08:54 16,7 C 20,6 C 76 % 1016,4 hPa 0,0 l/m 6,4 km/h (2 Bft) SW 232 0 min 0,000 mm 1,1 UV-I 295 W/m 12,4 C 16,7 C 9,7 km/h (2 Bft) 98,04 %
23.05.2017 08:56 16,8 C 20,0 C 77 % 1016,4 hPa 0,0 l/m 5,0 km/h (1 Bft) W 268 2 min 0,000 mm 1,1 UV-I 427 W/m 12,7 C 16,8 C 6,4 km/h (2 Bft) 92,68 %
23.05.2017 08:58 16,9 C 20,0 C 76 % 1016,5 hPa 0,0 l/m 3,8 km/h (1 Bft) S 184 0 min 0,000 mm 1,0 UV-I 293 W/m 12,6 C 16,9 C 4,8 km/h (1 Bft) 100,00 %
23.05.2017 09:00 16,9 C 20,0 C 75 % 1016,4 hPa 0,0 l/m 2,8 km/h (1 Bft) S-SW 201 2 min 0,203 mm 0,9 UV-I 383 W/m 12,4 C 16,9 C 4,8 km/h (1 Bft) 98,11 %
23.05.2017 09:02 16,9 C 20,0 C 76 % 1016,5 hPa 0,0 l/m 6,4 km/h (2 Bft) W-SW 241 0 min 0,000 mm 0,9 UV-I 191 W/m 12,6 C 16,9 C 9,7 km/h (2 Bft) 100,00 %
23.05.2017 09:04 16,9 C 20,0 C 75 % 1016,5 hPa 0,0 l/m 6,4 km/h (2 Bft) SW 219 0 min 0,000 mm 0,9 UV-I 174 W/m 12,4 C 16,9 C 9,7 km/h (2 Bft) 96,00 %
23.05.2017 09:06 16,9 C 20,0 C 76 % 1016,6 hPa 0,0 l/m 5,9 km/h (2 Bft) SW 235 0 min 0,000 mm 1,0 UV-I 172 W/m 12,6 C 16,9 C 8,0 km/h (2 Bft) 97,56 %
23.05.2017 09:08 16,9 C 20,0 C 76 % 1016,5 hPa 0,0 l/m 4,6 km/h (1 Bft) SW 227 0 min 0,000 mm 1,2 UV-I 222 W/m 12,6 C 16,9 C 8,0 km/h (2 Bft) 100,00 %
23.05.2017 09:10 17,1 C 20,6 C 77 % 1016,5 hPa 0,0 l/m 5,8 km/h (2 Bft) SW 223 2 min 0,000 mm 1,6 UV-I 448 W/m 13,0 C 17,1 C 9,7 km/h (2 Bft) 98,11 %
23.05.2017 09:12 17,3 C 20,6 C 73 % 1016,5 hPa 0,0 l/m 6,1 km/h (2 Bft) SW 229 2 min 0,000 mm 1,7 UV-I 635 W/m 12,4 C 17,3 C 9,7 km/h (2 Bft) 100,00 %
23.05.2017 09:14 17,3 C 20,0 C 71 % 1016,5 hPa 0,0 l/m 6,9 km/h (2 Bft) S-SW 205 2 min 0,000 mm 1,5 UV-I 622 W/m 12,0 C 17,1 C 9,7 km/h (2 Bft) 98,00 %
23.05.2017 09:16 17,3 C 20,6 C 70 % 1016,5 hPa 0,0 l/m 4,3 km/h (1 Bft) SW 226 0 min 0,000 mm 1,5 UV-I 227 W/m 11,8 C 17,3 C 8,0 km/h (2 Bft) 96,00 %
23.05.2017 09:18 17,5 C 20,6 C 72 % 1016,5 hPa 0,0 l/m 4,9 km/h (1 Bft) W 277 0 min 0,000 mm 1,9 UV-I 227 W/m 12,4 C 17,5 C 6,4 km/h (2 Bft) 97,73 %
23.05.2017 09:20 17,7 C 20,6 C 71 % 1016,6 hPa 0,0 l/m 7,3 km/h (2 Bft) W 260 2 min 0,000 mm 1,9 UV-I 438 W/m 12,4 C 17,3 C 11,3 km/h (2 Bft) 95,83 %
23.05.2017 09:22 17,7 C 20,6 C 68 % 1016,5 hPa 0,0 l/m 4,4 km/h (1 Bft) W-SW 247 2 min 0,000 mm 1,9 UV-I 512 W/m 11,7 C 17,7 C 8,0 km/h (2 Bft) 100,00 %
23.05.2017 09:24 17,7 C 20,6 C 71 % 1016,5 hPa 0,0 l/m 2,4 km/h (1 Bft) W 270 2 min 0,000 mm 1,7 UV-I 578 W/m 12,4 C 17,7 C 4,8 km/h (1 Bft) 100,00 %
23.05.2017 09:26 17,8 C 20,6 C 70 % 1016,5 hPa 0,0 l/m 2,8 km/h (1 Bft) S-SW 210 0 min 0,000 mm 1,3 UV-I 334 W/m 12,3 C 17,8 C 4,8 km/h (1 Bft) 98,11 %
23.05.2017 09:28 17,8 C 20,6 C 69 % 1016,5 hPa 0,0 l/m 2,0 km/h (1 Bft) S-SW 210 0 min 0,000 mm 1,2 UV-I 268 W/m 12,0 C 17,8 C 3,2 km/h (1 Bft) 100,00 %
23.05.2017 09:30 17,8 C 20,0 C 70 % 1016,5 hPa 0,0 l/m 3,8 km/h (1 Bft) S-SW 197 0 min 0,000 mm 1,3 UV-I 304 W/m 12,3 C 17,8 C 6,4 km/h (2 Bft) 98,31 %
23.05.2017 09:32 17,9 C 20,6 C 71 % 1016,5 hPa 0,0 l/m 3,3 km/h (1 Bft) W 266 2 min 0,000 mm 1,4 UV-I 357 W/m 12,6 C 17,9 C 6,4 km/h (2 Bft) 96,15 %
23.05.2017 09:34 17,9 C 20,6 C 70 % 1016,5 hPa 0,0 l/m 3,0 km/h (1 Bft) W 265 2 min 0,000 mm 1,2 UV-I 650 W/m 12,3 C 17,9 C 4,8 km/h (1 Bft) 96,77 %
23.05.2017 09:36 18,0 C 20,0 C 69 % 1016,5 hPa 0,0 l/m 7,5 km/h (2 Bft) S 181 0 min 0,000 mm 0,6 UV-I 328 W/m 12,2 C 17,5 C 11,3 km/h (2 Bft) 98,00 %
23.05.2017 09:38 17,8 C 20,0 C 69 % 1016,5 hPa 0,0 l/m 6,1 km/h (2 Bft) SW 236 0 min 0,000 mm 0,6 UV-I 154 W/m 12,0 C 17,8 C 9,7 km/h (2 Bft) 97,14 %
23.05.2017 09:40 17,7 C 20,0 C 70 % 1016,5 hPa 0,0 l/m 1,4 km/h (1 Bft) SW 236 0 min 0,000 mm 0,8 UV-I 153 W/m 12,2 C 17,7 C 4,8 km/h (1 Bft) 92,86 %
23.05.2017 09:42 17,5 C 20,0 C 70 % 1016,5 hPa 0,0 l/m 3,6 km/h (1 Bft) S-SW 202 0 min 0,000 mm 0,9 UV-I 153 W/m 12,0 C 17,5 C 4,8 km/h (1 Bft) 97,73 %
23.05.2017 09:44 17,3 C 20,0 C 71 % 1016,5 hPa 0,0 l/m 2,1 km/h (1 Bft) S-SW 202 0 min 0,000 mm 1,1 UV-I 175 W/m 12,0 C 17,3 C 3,2 km/h (1 Bft) 98,00 %
23.05.2017 09:46 17,3 C 20,0 C 71 % 1016,5 hPa 0,0 l/m 4,0 km/h (1 Bft) S-SW 205 0 min 0,000 mm 1,2 UV-I 226 W/m 12,0 C 17,3 C 6,4 km/h (2 Bft) 100,00 %
23.05.2017 09:48 17,3 C 20,0 C 72 % 1016,5 hPa 0,0 l/m 3,3 km/h (1 Bft) S-SW 207 0 min 0,000 mm 1,3 UV-I 264 W/m 12,2 C 17,3 C 4,8 km/h (1 Bft) 98,00 %
23.05.2017 09:50 17,4 C 20,6 C 71 % 1016,6 hPa 0,0 l/m 4,7 km/h (1 Bft) SW 232 0 min 0,000 mm 1,5 UV-I 267 W/m 12,1 C 17,4 C 6,4 km/h (2 Bft) 97,56 %
23.05.2017 09:52 17,5 C 20,0 C 71 % 1016,6 hPa 0,0 l/m 4,5 km/h (1 Bft) S-SW 208 0 min 0,000 mm 1,3 UV-I 238 W/m 12,2 C 17,5 C 8,0 km/h (2 Bft) 95,45 %
23.05.2017 09:54 17,6 C 20,6 C 71 % 1016,6 hPa 0,0 l/m 1,2 km/h (1 Bft) S-SW 208 0 min 0,000 mm 1,4 UV-I 244 W/m 12,3 C 17,6 C 4,8 km/h (1 Bft) 90,00 %
23.05.2017 09:56 17,5 C 20,6 C 72 % 1016,6 hPa 0,0 l/m 2,9 km/h (1 Bft) S-SW 209 0 min 0,000 mm 1,6 UV-I 275 W/m 12,4 C 17,5 C 4,8 km/h (1 Bft) 97,22 %
23.05.2017 09:58 17,6 C 20,6 C 70 % 1016,6 hPa 0,0 l/m 4,0 km/h (1 Bft) S-SW 209 0 min 0,000 mm 1,7 UV-I 328 W/m 12,1 C 17,6 C 6,4 km/h (2 Bft) 96,00 %
23.05.2017 10:00 17,7 C 20,6 C 73 % 1016,6 hPa 0,0 l/m 4,6 km/h (1 Bft) W-SW 239 0 min 0,204 mm 1,8 UV-I 345 W/m 12,8 C 17,7 C 6,4 km/h (2 Bft) 92,45 %
23.05.2017 10:02 17,8 C 20,6 C 72 % 1016,6 hPa 0,0 l/m 4,5 km/h (1 Bft) SW 216 0 min 0,000 mm 1,6 UV-I 337 W/m 12,7 C 17,8 C 8,0 km/h (2 Bft) 98,00 %
23.05.2017 10:04 17,9 C 20,6 C 71 % 1016,6 hPa 0,0 l/m 5,1 km/h (1 Bft) SW 235 0 min 0,000 mm 1,5 UV-I 306 W/m 12,6 C 17,9 C 8,0 km/h (2 Bft) 97,87 %
23.05.2017 10:06 17,8 C 20,0 C 71 % 1016,6 hPa 0,0 l/m 4,4 km/h (1 Bft) W 267 0 min 0,000 mm 1,3 UV-I 206 W/m 12,5 C 17,8 C 8,0 km/h (2 Bft) 97,87 %
23.05.2017 10:08 17,7 C 20,0 C 70 % 1016,6 hPa 0,0 l/m 4,2 km/h (1 Bft) SW 223 0 min 0,000 mm 1,4 UV-I 213 W/m 12,2 C 17,7 C 6,4 km/h (2 Bft) 95,74 %
23.05.2017 10:10 17,7 C 20,6 C 71 % 1016,6 hPa 0,0 l/m 4,4 km/h (1 Bft) W-SW 241 0 min 0,000 mm 1,6 UV-I 241 W/m 12,4 C 17,7 C 6,4 km/h (2 Bft) 100,00 %
23.05.2017 10:12 17,7 C 20,6 C 72 % 1016,6 hPa 0,0 l/m 4,3 km/h (1 Bft) W-SW 242 0 min 0,000 mm 1,7 UV-I 239 W/m 12,6 C 17,7 C 6,4 km/h (2 Bft) 97,87 %
23.05.2017 10:14 17,7 C 20,6 C 71 % 1016,6 hPa 0,0 l/m 2,3 km/h (1 Bft) W-SW 242 0 min 0,000 mm 1,8 UV-I 228 W/m 12,4 C 17,7 C 4,8 km/h (1 Bft) 96,00 %
23.05.2017 10:16 17,7 C 20,6 C 72 % 1016,6 hPa 0,0 l/m 3,7 km/h (1 Bft) W-SW 240 0 min 0,000 mm 1,9 UV-I 208 W/m 12,6 C 17,7 C 6,4 km/h (2 Bft) 97,73 %
23.05.2017 10:18 17,7 C 20,6 C 72 % 1016,6 hPa 0,0 l/m 1,9 km/h (1 Bft) W-SW 240 0 min 0,000 mm 1,9 UV-I 169 W/m 12,6 C 17,7 C 3,2 km/h (1 Bft) 95,45 %
23.05.2017 10:20 17,7 C 20,6 C 73 % 1016,6 hPa 0,0 l/m 3,8 km/h (1 Bft) W-SW 240 0 min 0,000 mm 2,7 UV-I 211 W/m 12,8 C 17,7 C 4,8 km/h (1 Bft) 98,00 %
23.05.2017 10:22 17,9 C 20,6 C 73 % 1016,6 hPa 0,0 l/m 3,4 km/h (1 Bft) W-SW 240 2 min 0,000 mm 3,3 UV-I 805 W/m 13,0 C 17,9 C 4,8 km/h (1 Bft) 98,11 %
23.05.2017 10:24 18,3 C 20,6 C 72 % 1016,6 hPa 0,0 l/m 2,9 km/h (1 Bft) W-SW 240 2 min 0,000 mm 3,1 UV-I 812 W/m 13,2 C 18,3 C 6,4 km/h (2 Bft) 95,74 %
23.05.2017 10:26 18,4 C 20,6 C 71 % 1016,5 hPa 0,0 l/m 3,0 km/h (1 Bft) SW 235 2 min 0,000 mm 3,0 UV-I 812 W/m 13,0 C 18,4 C 6,4 km/h (2 Bft) 97,37 %
23.05.2017 10:28 18,6 C 20,6 C 71 % 1016,5 hPa 0,0 l/m 3,3 km/h (1 Bft) S-SW 194 2 min 0,000 mm 3,4 UV-I 814 W/m 13,2 C 18,6 C 6,4 km/h (2 Bft) 92,86 %
23.05.2017 10:30 18,7 C 20,6 C 71 % 1016,5 hPa 0,0 l/m 2,5 km/h (1 Bft) SW 231 2 min 0,000 mm 3,5 UV-I 833 W/m 13,3 C 18,7 C 6,4 km/h (2 Bft) 92,11 %
23.05.2017 10:32 18,8 C 20,6 C 68 % 1016,4 hPa 0,0 l/m 5,1 km/h (1 Bft) S 185 2 min 0,000 mm 3,5 UV-I 826 W/m 12,8 C 18,8 C 8,0 km/h (2 Bft) 94,34 %
23.05.2017 10:34 18,8 C 20,6 C 68 % 1016,3 hPa 0,0 l/m 4,9 km/h (1 Bft) SW 236 2 min 0,000 mm 3,5 UV-I 815 W/m 12,8 C 18,8 C 9,7 km/h (2 Bft) 95,74 %
23.05.2017 10:36 19,0 C 20,6 C 69 % 1016,4 hPa 0,0 l/m 4,4 km/h (1 Bft) W-SW 242 2 min 0,000 mm 3,4 UV-I 793 W/m 13,2 C 19,0 C 9,7 km/h (2 Bft) 93,18 %
23.05.2017 10:38 19,1 C 20,6 C 67 % 1016,4 hPa 0,0 l/m 7,8 km/h (2 Bft) SW 215 2 min 0,000 mm 3,6 UV-I 772 W/m 12,8 C 18,5 C 11,3 km/h (2 Bft) 84,62 %
23.05.2017 10:40 19,1 C 20,6 C 67 % 1016,3 hPa 0,0 l/m 4,8 km/h (1 Bft) S-SW 192 2 min 0,000 mm 3,6 UV-I 758 W/m 12,8 C 19,1 C 9,7 km/h (2 Bft) 98,21 %
23.05.2017 10:42 19,2 C 20,6 C 67 % 1016,3 hPa 0,0 l/m 5,7 km/h (1 Bft) S-SW 207 2 min 0,000 mm 3,7 UV-I 775 W/m 12,9 C 19,2 C 9,7 km/h (2 Bft) 97,56 %
23.05.2017 10:44 19,4 C 20,6 C 71 % 1016,3 hPa 0,0 l/m 4,6 km/h (1 Bft) W-SW 238 2 min 0,000 mm 3,7 UV-I 774 W/m 14,0 C 19,4 C 6,4 km/h (2 Bft) 92,45 %
23.05.2017 10:46 19,6 C 20,6 C 67 % 1016,3 hPa 0,0 l/m 2,0 km/h (1 Bft) W-SW 238 2 min 0,000 mm 3,8 UV-I 779 W/m 13,3 C 19,6 C 4,8 km/h (1 Bft) 97,56 %
23.05.2017 10:48 19,7 C 20,6 C 66 % 1016,3 hPa 0,0 l/m 6,3 km/h (2 Bft) SW 215 2 min 0,000 mm 3,8 UV-I 780 W/m 13,2 C 19,7 C 9,7 km/h (2 Bft) 94,00 %
23.05.2017 10:50 19,8 C 20,6 C 66 % 1016,3 hPa 0,0 l/m 6,3 km/h (2 Bft) S-SW 200 2 min 0,000 mm 3,9 UV-I 794 W/m 13,3 C 19,8 C 12,9 km/h (3 Bft) 94,00 %
23.05.2017 10:52 19,8 C 20,6 C 65 % 1016,3 hPa 0,0 l/m 4,0 km/h (1 Bft) S 185 2 min 0,000 mm 3,9 UV-I 812 W/m 13,0 C 19,8 C 8,0 km/h (2 Bft) 92,00 %
23.05.2017 10:54 20,0 C 20,6 C 67 % 1016,3 hPa 0,0 l/m 4,3 km/h (1 Bft) S-SO 166 2 min 0,000 mm 4,0 UV-I 828 W/m 13,7 C 20,0 C 12,9 km/h (3 Bft) 97,56 %
23.05.2017 10:56 20,2 C 20,6 C 65 % 1016,3 hPa 0,0 l/m 9,0 km/h (2 Bft) W-SW 254 2 min 0,000 mm 4,0 UV-I 821 W/m 13,4 C 19,2 C 11,3 km/h (2 Bft) 90,24 %
23.05.2017 10:58 20,2 C 20,6 C 64 % 1016,3 hPa 0,0 l/m 7,7 km/h (2 Bft) SW 215 2 min 0,000 mm 4,0 UV-I 816 W/m 13,2 C 19,7 C 12,9 km/h (3 Bft) 88,00 %
23.05.2017 11:00 20,4 C 20,6 C 66 % 1016,4 hPa 0,0 l/m 7,5 km/h (2 Bft) S-SW 192 2 min 0,355 mm 3,9 UV-I 921 W/m 13,8 C 20,0 C 9,7 km/h (2 Bft) 96,00 %
23.05.2017 11:02 20,6 C 20,6 C 65 % 1016,4 hPa 0,0 l/m 6,0 km/h (2 Bft) SW 217 2 min 0,000 mm 3,0 UV-I 874 W/m 13,8 C 20,6 C 9,7 km/h (2 Bft) 95,12 %
23.05.2017 11:04 20,4 C 20,6 C 65 % 1016,3 hPa 0,0 l/m 4,5 km/h (1 Bft) W-NW 290 2 min 0,000 mm 3,8 UV-I 804 W/m 13,6 C 20,4 C 16,1 km/h (3 Bft) 98,00 %
23.05.2017 11:06 20,4 C 20,6 C 67 % 1016,4 hPa 0,0 l/m 4,5 km/h (1 Bft) SW 230 2 min 0,000 mm 3,6 UV-I 985 W/m 14,1 C 20,4 C 9,7 km/h (2 Bft) 98,00 %
23.05.2017 11:08 20,5 C 20,6 C 63 % 1016,4 hPa 0,0 l/m 6,4 km/h (2 Bft) W-SW 246 2 min 0,000 mm 2,5 UV-I 653 W/m 13,2 C 20,5 C 8,0 km/h (2 Bft) 94,74 %
23.05.2017 11:10 20,4 C 20,6 C 63 % 1016,4 hPa 0,0 l/m 5,9 km/h (2 Bft) W-SW 240 0 min 0,000 mm 2,0 UV-I 316 W/m 13,1 C 20,4 C 11,3 km/h (2 Bft) 94,34 %
23.05.2017 11:12 20,3 C 20,6 C 65 % 1016,4 hPa 0,0 l/m 5,9 km/h (2 Bft) S-SW 205 0 min 0,000 mm 1,9 UV-I 283 W/m 13,5 C 20,3 C 9,7 km/h (2 Bft) 92,45 %
23.05.2017 11:14 20,3 C 20,6 C 65 % 1016,4 hPa 0,0 l/m 5,1 km/h (1 Bft) SW 233 0 min 0,000 mm 2,2 UV-I 310 W/m 13,5 C 20,3 C 9,7 km/h (2 Bft) 97,44 %
23.05.2017 11:16 20,2 C 20,6 C 65 % 1016,4 hPa 0,0 l/m 5,5 km/h (1 Bft) SW 231 0 min 0,000 mm 2,1 UV-I 291 W/m 13,4 C 20,2 C 14,5 km/h (3 Bft) 93,62 %
23.05.2017 11:18 20,1 C 20,6 C 64 % 1016,4 hPa 0,0 l/m 7,3 km/h (2 Bft) W-SW 244 0 min 0,000 mm 2,3 UV-I 285 W/m 13,1 C 19,7 C 12,9 km/h (3 Bft) 95,12 %
23.05.2017 11:20 19,9 C 20,6 C 65 % 1016,3 hPa 0,0 l/m 5,3 km/h (1 Bft) W-NW 286 0 min 0,000 mm 3,2 UV-I 297 W/m 13,1 C 19,9 C 12,9 km/h (3 Bft) 98,11 %
23.05.2017 11:22 20,0 C 20,6 C 64 % 1016,3 hPa 0,0 l/m 4,4 km/h (1 Bft) W 260 2 min 0,000 mm 4,1 UV-I 730 W/m 13,0 C 20,0 C 8,0 km/h (2 Bft) 98,21 %
23.05.2017 11:24 20,2 C 20,6 C 66 % 1016,2 hPa 0,0 l/m 8,4 km/h (2 Bft) W-SW 241 2 min 0,000 mm 4,3 UV-I 904 W/m 13,6 C 19,4 C 12,9 km/h (3 Bft) 92,11 %
23.05.2017 11:26 20,3 C 20,6 C 64 % 1016,3 hPa 0,0 l/m 9,4 km/h (2 Bft) W-SW 257 2 min 0,000 mm 4,4 UV-I 917 W/m 13,3 C 19,2 C 14,5 km/h (3 Bft) 96,23 %
23.05.2017 11:28 20,4 C 20,6 C 62 % 1016,2 hPa 0,0 l/m 5,2 km/h (1 Bft) W-SW 258 2 min 0,000 mm 4,2 UV-I 887 W/m 12,9 C 20,4 C 11,3 km/h (2 Bft) 94,74 %
23.05.2017 11:30 20,6 C 20,6 C 63 % 1016,2 hPa 0,0 l/m 2,9 km/h (1 Bft) W-SW 240 2 min 0,000 mm 4,3 UV-I 934 W/m 13,3 C 20,6 C 6,4 km/h (2 Bft) 94,34 %
23.05.2017 11:32 20,9 C 20,6 C 65 % 1016,2 hPa 0,0 l/m 4,2 km/h (1 Bft) W 263 2 min 0,000 mm 4,4 UV-I 844 W/m 14,1 C 20,9 C 8,0 km/h (2 Bft) 90,20 %
23.05.2017 11:34 20,9 C 20,6 C 62 % 1016,3 hPa 0,0 l/m 4,7 km/h (1 Bft) W 277 0 min 0,000 mm 2,9 UV-I 457 W/m 13,3 C 20,9 C 8,0 km/h (2 Bft) 94,74 %
23.05.2017 11:36 20,8 C 20,6 C 62 % 1016,2 hPa 0,0 l/m 4,1 km/h (1 Bft) W 273 0 min 0,000 mm 2,6 UV-I 433 W/m 13,2 C 20,8 C 9,7 km/h (2 Bft) 97,73 %
23.05.2017 11:38 20,7 C 20,6 C 60 % 1016,2 hPa 0,0 l/m 7,5 km/h (2 Bft) W 264 0 min 0,000 mm 2,5 UV-I 398 W/m 12,7 C 20,3 C 14,5 km/h (3 Bft) 95,45 %
23.05.2017 11:40 20,7 C 20,6 C 60 % 1016,3 hPa 0,0 l/m 5,6 km/h (1 Bft) W 275 0 min 0,000 mm 2,5 UV-I 387 W/m 12,7 C 20,7 C 11,3 km/h (2 Bft) 94,92 %
23.05.2017 11:42 20,6 C 20,6 C 60 % 1016,2 hPa 0,0 l/m 3,1 km/h (1 Bft) W 276 0 min 0,000 mm 2,6 UV-I 399 W/m 12,6 C 20,6 C 6,4 km/h (2 Bft) 95,45 %
23.05.2017 11:44 20,5 C 20,6 C 62 % 1016,2 hPa 0,0 l/m 1,6 km/h (1 Bft) W 279 0 min 0,000 mm 2,6 UV-I 376 W/m 13,0 C 20,5 C 4,8 km/h (1 Bft) 98,00 %
23.05.2017 11:46 20,4 C 20,6 C 61 % 1016,3 hPa 0,0 l/m 1,8 km/h (1 Bft) W-NW 284 0 min 0,000 mm 3,0 UV-I 394 W/m 12,6 C 20,4 C 4,8 km/h (1 Bft) 94,74 %
23.05.2017 11:48 20,6 C 20,6 C 62 % 1016,2 hPa 0,0 l/m 3,5 km/h (1 Bft) W 273 2 min 0,000 mm 3,6 UV-I 718 W/m 13,1 C 20,6 C 6,4 km/h (2 Bft) 96,00 %
23.05.2017 11:50 20,7 C 20,6 C 63 % 1016,2 hPa 0,0 l/m 5,0 km/h (1 Bft) W 277 0 min 0,000 mm 2,6 UV-I 434 W/m 13,4 C 20,7 C 8,0 km/h (2 Bft) 98,11 %
23.05.2017 11:52 20,7 C 20,6 C 62 % 1016,1 hPa 0,0 l/m 3,6 km/h (1 Bft) W 264 0 min 0,000 mm 3,4 UV-I 281 W/m 13,2 C 20,7 C 6,4 km/h (2 Bft) 100,00 %
23.05.2017 11:54 20,8 C 20,6 C 64 % 1016,1 hPa 0,0 l/m 1,4 km/h (1 Bft) W 270 2 min 0,000 mm 4,8 UV-I 876 W/m 13,7 C 20,8 C 3,2 km/h (1 Bft) 98,08 %
23.05.2017 11:56 20,9 C 20,6 C 60 % 1016,1 hPa 0,0 l/m 3,6 km/h (1 Bft) W 259 2 min 0,000 mm 4,9 UV-I 887 W/m 12,8 C 20,9 C 6,4 km/h (2 Bft) 94,00 %
23.05.2017 11:58 21,1 C 20,6 C 64 % 1016,0 hPa 0,0 l/m 1,0 km/h (0 Bft) N-NW 331 2 min 0,000 mm 4,8 UV-I 866 W/m 14,0 C 21,1 C 3,2 km/h (1 Bft) 97,22 %
23.05.2017 12:00 21,3 C 20,6 C 62 % 1016,1 hPa 0,0 l/m 0,8 km/h (0 Bft) NW 322 2 min 0,000 mm 4,9 UV-I 868 W/m 13,7 C 21,3 C 3,2 km/h (1 Bft) 96,00 %
23.05.2017 12:02 21,4 C 20,6 C 63 % 1016,1 hPa 0,0 l/m 1,3 km/h (1 Bft) NW 326 2 min 0,381 mm 4,9 UV-I 870 W/m 14,1 C 21,4 C 4,8 km/h (1 Bft) 90,24 %
23.05.2017 12:04 21,4 C 20,6 C 60 % 1016,0 hPa 0,0 l/m 2,2 km/h (1 Bft) NW 324 2 min 0,000 mm 4,9 UV-I 878 W/m 13,3 C 21,4 C 6,4 km/h (2 Bft) 95,16 %
23.05.2017 12:06 21,4 C 20,6 C 62 % 1016,0 hPa 0,0 l/m 1,8 km/h (1 Bft) N-NW 336 2 min 0,000 mm 4,9 UV-I 887 W/m 13,8 C 21,4 C 3,2 km/h (1 Bft) 97,37 %
23.05.2017 12:08 21,5 C 20,6 C 62 % 1016,0 hPa 0,0 l/m 1,2 km/h (1 Bft) W 263 2 min 0,000 mm 4,9 UV-I 896 W/m 13,9 C 21,5 C 6,4 km/h (2 Bft) 90,57 %
23.05.2017 12:10 21,8 C 20,6 C 66 % 1015,9 hPa 0,0 l/m 1,6 km/h (1 Bft) W-NW 292 2 min 0,000 mm 4,8 UV-I 899 W/m 15,2 C 21,8 C 4,8 km/h (1 Bft) 97,73 %
23.05.2017 12:12 21,7 C 20,6 C 59 % 1015,9 hPa 0,0 l/m 4,5 km/h (1 Bft) NW 304 2 min 0,000 mm 3,3 UV-I 829 W/m 13,3 C 21,7 C 11,3 km/h (2 Bft) 96,00 %
23.05.2017 12:14 21,5 C 20,6 C 59 % 1015,9 hPa 0,0 l/m 1,5 km/h (1 Bft) NW 317 0 min 0,000 mm 2,9 UV-I 206 W/m 13,1 C 21,5 C 3,2 km/h (1 Bft) 92,11 %
23.05.2017 12:16 21,4 C 20,6 C 62 % 1016,0 hPa 0,0 l/m 0,8 km/h (0 Bft) NW 317 0 min 0,000 mm 4,1 UV-I 214 W/m 13,8 C 21,4 C 3,2 km/h (1 Bft) 98,11 %
23.05.2017 12:18 21,4 C 20,6 C 60 % 1015,9 hPa 0,0 l/m 3,2 km/h (1 Bft) W-SW 251 0 min 0,000 mm 3,5 UV-I 349 W/m 13,3 C 21,4 C 6,4 km/h (2 Bft) 95,74 %
23.05.2017 12:20 21,4 C 20,6 C 60 % 1015,9 hPa 0,0 l/m 4,5 km/h (1 Bft) N-NW 328 2 min 0,000 mm 4,6 UV-I 528 W/m 13,3 C 21,4 C 8,0 km/h (2 Bft) 95,12 %
23.05.2017 12:22 21,5 C 21,1 C 60 % 1015,8 hPa 0,0 l/m 4,2 km/h (1 Bft) W 274 2 min 0,000 mm 5,1 UV-I 920 W/m 13,4 C 21,5 C 9,7 km/h (2 Bft) 89,36 %
23.05.2017 12:24 21,6 C 21,1 C 58 % 1015,8 hPa 0,0 l/m 3,1 km/h (1 Bft) W-SW 252 2 min 0,000 mm 5,1 UV-I 918 W/m 13,0 C 21,6 C 9,7 km/h (2 Bft) 98,11 %
23.05.2017 12:26 21,9 C 21,1 C 58 % 1015,8 hPa 0,0 l/m 2,3 km/h (1 Bft) N-NW 335 2 min 0,000 mm 5,3 UV-I 913 W/m 13,3 C 21,9 C 4,8 km/h (1 Bft) 97,56 %
23.05.2017 12:28 22,2 C 21,1 C 58 % 1015,8 hPa 0,0 l/m 5,4 km/h (1 Bft) W 279 2 min 0,000 mm 5,3 UV-I 910 W/m 13,5 C 22,2 C 12,9 km/h (3 Bft) 95,74 %
23.05.2017 12:30 22,2 C 21,1 C 55 % 1015,7 hPa 0,0 l/m 6,7 km/h (2 Bft) W-NW 297 2 min 0,000 mm 5,2 UV-I 902 W/m 12,7 C 22,1 C 12,9 km/h (3 Bft) 88,00 %
23.05.2017 12:32 22,2 C 21,1 C 57 % 1015,8 hPa 0,0 l/m 6,2 km/h (2 Bft) W-NW 298 2 min 0,000 mm 5,3 UV-I 919 W/m 13,3 C 22,2 C 12,9 km/h (3 Bft) 95,74 %
23.05.2017 12:34 22,4 C 21,1 C 57 % 1015,7 hPa 0,0 l/m 5,9 km/h (2 Bft) W 274 2 min 0,000 mm 5,3 UV-I 920 W/m 13,5 C 22,4 C 16,1 km/h (3 Bft) 97,78 %
23.05.2017 12:36 22,8 C 21,1 C 55 % 1015,8 hPa 0,0 l/m 6,2 km/h (2 Bft) SW 222 2 min 0,000 mm 5,3 UV-I 923 W/m 13,3 C 22,8 C 11,3 km/h (2 Bft) 97,73 %
23.05.2017 12:38 23,0 C 21,1 C 53 % 1015,7 hPa 0,0 l/m 6,4 km/h (2 Bft) W-SW 258 2 min 0,000 mm 5,4 UV-I 932 W/m 12,9 C 23,0 C 14,5 km/h (3 Bft) 97,37 %
23.05.2017 12:40 22,9 C 21,1 C 52 % 1015,7 hPa 0,0 l/m 6,9 km/h (2 Bft) W-SW 254 2 min 0,000 mm 5,4 UV-I 944 W/m 12,5 C 22,7 C 16,1 km/h (3 Bft) 98,18 %
23.05.2017 12:42 23,0 C 21,1 C 52 % 1015,7 hPa 0,0 l/m 6,9 km/h (2 Bft) NW 314 2 min 0,000 mm 5,4 UV-I 939 W/m 12,6 C 22,8 C 14,5 km/h (3 Bft) 98,11 %
23.05.2017 12:44 22,9 C 21,1 C 53 % 1015,7 hPa 0,0 l/m 11,7 km/h (2 Bft) W-SW 254 2 min 0,000 mm 5,2 UV-I 939 W/m 12,8 C 21,4 C 19,3 km/h (3 Bft) 94,00 %
23.05.2017 12:46 23,0 C 21,1 C 53 % 1015,7 hPa 0,0 l/m 7,7 km/h (2 Bft) W-SW 254 2 min 0,000 mm 5,3 UV-I 933 W/m 12,9 C 22,6 C 17,7 km/h (3 Bft) 97,37 %
23.05.2017 12:49 23,1 C 21,1 C 50 % 1015,7 hPa 0,0 l/m 11,9 km/h (2 Bft) W-SW 244 3 min 0,000 mm 5,4 UV-I 932 W/m 12,1 C 21,6 C 27,4 km/h (4 Bft) 96,34 %
23.05.2017 12:50 23,2 C 21,1 C 51 % 1015,7 hPa 0,0 l/m 15,8 km/h (3 Bft) W-SW 244 1 min 0,000 mm 5,3 UV-I 936 W/m 12,5 C 21,0 C 25,7 km/h (4 Bft) 100,00 %
23.05.2017 12:52 23,2 C 21,1 C 50 % 1015,6 hPa 0,0 l/m 12,1 km/h (2 Bft) W 267 2 min 0,000 mm 5,3 UV-I 943 W/m 12,2 C 21,7 C 19,3 km/h (3 Bft) 95,45 %
23.05.2017 12:54 23,3 C 21,1 C 50 % 1015,6 hPa 0,0 l/m 9,2 km/h (2 Bft) W-SW 254 2 min 0,000 mm 5,3 UV-I 958 W/m 12,3 C 22,5 C 17,7 km/h (3 Bft) 100,00 %
23.05.2017 12:56 23,4 C 21,1 C 49 % 1015,6 hPa 0,0 l/m 12,9 km/h (3 Bft) SW 231 2 min 0,000 mm 5,4 UV-I 960 W/m 12,1 C 21,8 C 29,0 km/h (5 Bft) 100,00 %
23.05.2017 12:58 23,4 C 21,1 C 49 % 1015,6 hPa 0,0 l/m 20,2 km/h (4 Bft) S-SW 203 2 min 0,000 mm 5,4 UV-I 994 W/m 12,1 C 20,6 C 30,6 km/h (5 Bft) 98,11 %
23.05.2017 13:00 23,4 C 21,1 C 49 % 1015,6 hPa 0,0 l/m 20,0 km/h (4 Bft) SW 227 2 min 0,000 mm 5,3 UV-I 1055 W/m 12,1 C 20,6 C 29,0 km/h (5 Bft) 96,00 %
23.05.2017 13:02 23,3 C 21,1 C 48 % 1015,6 hPa 0,0 l/m 18,4 km/h (3 Bft) W-SW 244 2 min 0,534 mm 3,4 UV-I 500 W/m 11,7 C 20,7 C 29,0 km/h (5 Bft) 100,00 %
23.05.2017 13:04 23,1 C 21,1 C 48 % 1015,5 hPa 0,0 l/m 13,4 km/h (3 Bft) W 269 0 min 0,000 mm 3,6 UV-I 424 W/m 11,5 C 21,3 C 20,9 km/h (4 Bft) 97,56 %
23.05.2017 13:06 23,1 C 21,1 C 50 % 1015,6 hPa 0,0 l/m 15,4 km/h (3 Bft) W-SW 245 2 min 0,000 mm 4,4 UV-I 518 W/m 12,1 C 20,9 C 27,4 km/h (4 Bft) 98,11 %
23.05.2017 13:08 23,1 C 21,1 C 50 % 1015,5 hPa 0,0 l/m 13,9 km/h (3 Bft) W-NW 296 2 min 0,000 mm 4,5 UV-I 911 W/m 12,1 C 21,2 C 24,1 km/h (4 Bft) 96,67 %
23.05.2017 13:10 22,8 C 21,1 C 49 % 1015,5 hPa 0,0 l/m 7,4 km/h (2 Bft) NW 316 0 min 0,000 mm 2,5 UV-I 309 W/m 11,5 C 22,5 C 14,5 km/h (3 Bft) 96,61 %
23.05.2017 13:12 22,6 C 21,1 C 48 % 1015,6 hPa 0,0 l/m 10,4 km/h (2 Bft) W 266 0 min 0,000 mm 2,5 UV-I 329 W/m 11,0 C 21,4 C 16,1 km/h (3 Bft) 94,55 %
23.05.2017 13:14 22,4 C 21,1 C 50 % 1015,5 hPa 0,0 l/m 12,2 km/h (2 Bft) W 261 0 min 0,000 mm 2,9 UV-I 407 W/m 11,5 C 20,7 C 20,9 km/h (4 Bft) 100,00 %
23.05.2017 13:16 22,5 C 21,1 C 50 % 1015,6 hPa 0,0 l/m 9,2 km/h (2 Bft) W 270 2 min 0,000 mm 3,9 UV-I 496 W/m 11,5 C 21,6 C 17,7 km/h (3 Bft) 100,00 %
23.05.2017 13:18 22,8 C 21,1 C 48 % 1015,6 hPa 0,0 l/m 13,0 km/h (3 Bft) W-SW 246 2 min 0,000 mm 4,9 UV-I 890 W/m 11,2 C 21,0 C 20,9 km/h (4 Bft) 98,11 %
23.05.2017 13:20 22,8 C 21,1 C 46 % 1015,6 hPa 0,0 l/m 11,0 km/h (2 Bft) W-SW 247 2 min 0,000 mm 3,6 UV-I 654 W/m 10,6 C 21,5 C 19,3 km/h (3 Bft) 97,73 %
23.05.2017 13:22 22,7 C 21,1 C 46 % 1015,5 hPa 0,0 l/m 14,3 km/h (3 Bft) S 173 0 min 0,000 mm 2,9 UV-I 424 W/m 10,5 C 20,7 C 22,5 km/h (4 Bft) 98,21 %
23.05.2017 13:24 22,6 C 21,1 C 46 % 1015,6 hPa 0,0 l/m 15,0 km/h (3 Bft) SW 236 0 min 0,000 mm 2,9 UV-I 405 W/m 10,4 C 20,4 C 25,7 km/h (4 Bft) 97,37 %
23.05.2017 13:26 22,6 C 21,1 C 48 % 1015,6 hPa 0,0 l/m 12,4 km/h (3 Bft) W-SW 245 0 min 0,000 mm 4,1 UV-I 406 W/m 11,0 C 20,9 C 20,9 km/h (4 Bft) 100,00 %
23.05.2017 13:28 22,8 C 21,1 C 47 % 1015,6 hPa 0,0 l/m 15,0 km/h (3 Bft) W-SW 239 2 min 0,000 mm 5,1 UV-I 1012 W/m 10,9 C 20,6 C 25,7 km/h (4 Bft) 97,14 %
23.05.2017 13:30 23,0 C 21,1 C 46 % 1015,6 hPa 0,0 l/m 12,8 km/h (3 Bft) SW 231 2 min 0,000 mm 5,1 UV-I 996 W/m 10,7 C 21,3 C 33,8 km/h (5 Bft) 96,61 %
23.05.2017 13:32 23,1 C 21,1 C 46 % 1015,6 hPa 0,0 l/m 14,2 km/h (3 Bft) W 262 2 min 0,000 mm 4,2 UV-I 969 W/m 10,8 C 21,2 C 22,5 km/h (4 Bft) 95,45 %
23.05.2017 13:34 23,2 C 21,1 C 48 % 1015,5 hPa 0,0 l/m 12,5 km/h (3 Bft) W-SW 249 2 min 0,000 mm 5,1 UV-I 946 W/m 11,6 C 21,6 C 24,1 km/h (4 Bft) 97,56 %
23.05.2017 13:36 23,3 C 21,1 C 46 % 1015,5 hPa 0,0 l/m 9,9 km/h (2 Bft) SW 230 2 min 0,000 mm 5,0 UV-I 904 W/m 11,0 C 22,3 C 14,5 km/h (3 Bft) 96,23 %
23.05.2017 13:38 23,5 C 21,1 C 47 % 1015,6 hPa 0,0 l/m 14,9 km/h (3 Bft) W-SW 255 2 min 0,000 mm 4,8 UV-I 894 W/m 11,5 C 21,5 C 27,4 km/h (4 Bft) 97,56 %
23.05.2017 13:40 23,6 C 21,1 C 46 % 1015,5 hPa 0,0 l/m 15,7 km/h (3 Bft) W 264 2 min 0,000 mm 4,2 UV-I 889 W/m 11,3 C 21,5 C 22,5 km/h (4 Bft) 98,31 %
23.05.2017 13:42 23,6 C 21,1 C 46 % 1015,5 hPa 0,0 l/m 16,1 km/h (3 Bft) W-SW 246 0 min 0,000 mm 3,2 UV-I 416 W/m 11,3 C 21,4 C 24,1 km/h (4 Bft) 97,14 %
23.05.2017 13:44 23,4 C 21,1 C 45 % 1015,5 hPa 0,0 l/m 17,0 km/h (3 Bft) W-SW 239 2 min 0,000 mm 4,8 UV-I 866 W/m 10,8 C 21,0 C 24,1 km/h (4 Bft) 100,00 %
23.05.2017 13:46 23,3 C 21,1 C 46 % 1015,6 hPa 0,0 l/m 18,0 km/h (3 Bft) SW 234 2 min 0,000 mm 4,4 UV-I 915 W/m 11,0 C 20,8 C 22,5 km/h (4 Bft) 92,11 %
23.05.2017 13:48 23,3 C 21,1 C 47 % 1015,5 hPa 0,0 l/m 7,8 km/h (2 Bft) W 263 2 min 0,000 mm 4,8 UV-I 873 W/m 11,3 C 22,9 C 17,7 km/h (3 Bft) 96,97 %
23.05.2017 13:50 23,3 C 21,1 C 47 % 1015,4 hPa 0,0 l/m 9,6 km/h (2 Bft) W-SW 244 2 min 0,000 mm 3,9 UV-I 821 W/m 11,3 C 22,4 C 14,5 km/h (3 Bft) 97,14 %
23.05.2017 13:52 23,3 C 21,1 C 48 % 1015,4 hPa 0,0 l/m 10,5 km/h (2 Bft) W-NW 302 2 min 0,000 mm 4,6 UV-I 836 W/m 11,7 C 22,2 C 17,7 km/h (3 Bft) 88,10 %
23.05.2017 13:54 23,4 C 21,1 C 47 % 1015,5 hPa 0,0 l/m 8,6 km/h (2 Bft) W-SW 240 2 min 0,000 mm 4,5 UV-I 758 W/m 11,4 C 22,8 C 14,5 km/h (3 Bft) 93,18 %
23.05.2017 13:56 23,5 C 21,1 C 51 % 1015,4 hPa 0,0 l/m 9,1 km/h (2 Bft) W-NW 296 2 min 0,000 mm 4,4 UV-I 771 W/m 12,8 C 22,7 C 14,5 km/h (3 Bft) 98,00 %
23.05.2017 13:58 23,5 C 21,1 C 49 % 1015,5 hPa 0,0 l/m 10,8 km/h (2 Bft) W 280 2 min 0,000 mm 4,3 UV-I 757 W/m 12,2 C 22,3 C 22,5 km/h (4 Bft) 98,00 %
23.05.2017 14:00 23,4 C 21,1 C 48 % 1015,4 hPa 0,0 l/m 11,9 km/h (2 Bft) SW 223 2 min 0,533 mm 4,4 UV-I 764 W/m 11,8 C 22,0 C 25,7 km/h (4 Bft) 100,00 %
23.05.2017 14:02 23,4 C 21,1 C 48 % 1015,4 hPa 0,0 l/m 11,2 km/h (2 Bft) W-SW 239 2 min 0,000 mm 4,8 UV-I 890 W/m 11,8 C 22,1 C 17,7 km/h (3 Bft) 97,37 %
23.05.2017 14:04 23,4 C 21,1 C 48 % 1015,3 hPa 0,0 l/m 18,1 km/h (3 Bft) W-SW 254 2 min 0,000 mm 4,7 UV-I 873 W/m 11,8 C 20,9 C 29,0 km/h (5 Bft) 94,34 %
23.05.2017 14:06 23,5 C 21,1 C 48 % 1015,3 hPa 0,0 l/m 14,9 km/h (3 Bft) W-SW 241 2 min 0,000 mm 4,7 UV-I 889 W/m 11,8 C 21,5 C 24,1 km/h (4 Bft) 90,24 %
23.05.2017 14:08 23,7 C 21,1 C 50 % 1015,3 hPa 0,0 l/m 10,2 km/h (2 Bft) W-SW 252 2 min 0,000 mm 4,6 UV-I 884 W/m 12,6 C 22,7 C 17,7 km/h (3 Bft) 94,74 %
23.05.2017 14:10 23,8 C 21,7 C 50 % 1015,4 hPa 0,0 l/m 13,1 km/h (3 Bft) W-SW 254 2 min 0,000 mm 4,3 UV-I 880 W/m 12,7 C 22,2 C 20,9 km/h (4 Bft) 96,23 %
23.05.2017 14:12 23,8 C 21,7 C 48 % 1015,4 hPa 0,0 l/m 13,5 km/h (3 Bft) W 266 2 min 0,000 mm 4,5 UV-I 855 W/m 12,1 C 22,1 C 22,5 km/h (4 Bft) 96,23 %
23.05.2017 14:14 23,8 C 21,7 C 49 % 1015,4 hPa 0,0 l/m 13,9 km/h (3 Bft) W-NW 284 2 min 0,000 mm 4,6 UV-I 862 W/m 12,4 C 22,0 C 24,1 km/h (4 Bft) 97,56 %
23.05.2017 14:16 23,8 C 21,7 C 49 % 1015,4 hPa 0,0 l/m 10,0 km/h (2 Bft) NW 304 2 min 0,000 mm 4,6 UV-I 860 W/m 12,4 C 22,8 C 20,9 km/h (4 Bft) 92,86 %
23.05.2017 14:18 23,7 C 21,7 C 49 % 1015,4 hPa 0,0 l/m 13,2 km/h (3 Bft) SW 234 2 min 0,000 mm 4,5 UV-I 848 W/m 12,3 C 22,1 C 17,7 km/h (3 Bft) 91,30 %
23.05.2017 14:20 23,7 C 21,7 C 47 % 1015,4 hPa 0,0 l/m 13,4 km/h (3 Bft) W-SW 238 2 min 0,000 mm 4,6 UV-I 858 W/m 11,7 C 22,0 C 22,5 km/h (4 Bft) 97,37 %
23.05.2017 14:22 23,7 C 21,7 C 50 % 1015,3 hPa 0,0 l/m 14,1 km/h (3 Bft) SW 235 2 min 0,000 mm 4,6 UV-I 886 W/m 12,6 C 21,9 C 27,4 km/h (4 Bft) 92,86 %
23.05.2017 14:24 23,7 C 21,7 C 47 % 1015,3 hPa 0,0 l/m 12,0 km/h (2 Bft) W-SW 244 2 min 0,000 mm 4,6 UV-I 871 W/m 11,7 C 22,3 C 22,5 km/h (4 Bft) 97,56 %
23.05.2017 14:26 23,8 C 21,7 C 48 % 1015,3 hPa 0,0 l/m 14,6 km/h (3 Bft) W 266 2 min 0,000 mm 4,6 UV-I 896 W/m 12,1 C 21,9 C 20,9 km/h (4 Bft) 94,34 %
23.05.2017 14:28 23,8 C 21,7 C 47 % 1015,3 hPa 0,0 l/m 15,8 km/h (3 Bft) W 270 2 min 0,000 mm 4,3 UV-I 852 W/m 11,8 C 21,7 C 20,9 km/h (4 Bft) 95,83 %
23.05.2017 14:30 23,7 C 21,7 C 48 % 1015,2 hPa 0,0 l/m 12,8 km/h (3 Bft) W-SW 247 2 min 0,000 mm 4,1 UV-I 749 W/m 12,0 C 22,1 C 29,0 km/h (5 Bft) 98,51 %
23.05.2017 14:32 23,6 C 21,7 C 47 % 1015,2 hPa 0,0 l/m 17,6 km/h (3 Bft) W 267 2 min 0,000 mm 4,1 UV-I 792 W/m 11,6 C 21,2 C 24,1 km/h (4 Bft) 89,58 %
23.05.2017 14:34 23,6 C 21,7 C 49 % 1015,3 hPa 0,0 l/m 15,2 km/h (3 Bft) W 271 2 min 0,000 mm 4,1 UV-I 835 W/m 12,2 C 21,6 C 22,5 km/h (4 Bft) 90,24 %
23.05.2017 14:36 23,6 C 21,7 C 47 % 1015,3 hPa 0,0 l/m 11,5 km/h (2 Bft) W-NW 290 2 min 0,000 mm 3,8 UV-I 811 W/m 11,6 C 22,3 C 19,3 km/h (3 Bft) 95,45 %
23.05.2017 14:38 23,6 C 21,7 C 48 % 1015,2 hPa 0,0 l/m 9,6 km/h (2 Bft) W 265 2 min 0,000 mm 4,1 UV-I 826 W/m 11,9 C 22,7 C 20,9 km/h (4 Bft) 100,00 %
23.05.2017 14:40 23,6 C 21,7 C 46 % 1015,2 hPa 0,0 l/m 13,9 km/h (3 Bft) W-SW 252 2 min 0,000 mm 3,8 UV-I 716 W/m 11,3 C 21,8 C 22,5 km/h (4 Bft) 97,73 %
23.05.2017 14:42 23,7 C 21,7 C 48 % 1015,1 hPa 0,0 l/m 13,9 km/h (3 Bft) W 265 2 min 0,000 mm 4,1 UV-I 807 W/m 12,0 C 21,9 C 19,3 km/h (3 Bft) 100,00 %
23.05.2017 14:44 23,8 C 21,7 C 48 % 1015,1 hPa 0,0 l/m 13,5 km/h (3 Bft) W 263 2 min 0,000 mm 4,2 UV-I 844 W/m 12,1 C 22,1 C 20,9 km/h (4 Bft) 96,43 %
23.05.2017 14:46 23,9 C 21,7 C 47 % 1015,1 hPa 0,0 l/m 19,3 km/h (3 Bft) W-SW 252 2 min 0,000 mm 4,2 UV-I 848 W/m 11,9 C 21,3 C 30,6 km/h (5 Bft) 94,29 %
23.05.2017 14:48 24,1 C 21,7 C 46 % 1015,2 hPa 0,0 l/m 16,5 km/h (3 Bft) W-SW 257 2 min 0,000 mm 4,2 UV-I 828 W/m 11,7 C 22,0 C 25,7 km/h (4 Bft) 98,31 %
23.05.2017 14:50 24,3 C 21,7 C 46 % 1015,1 hPa 0,0 l/m 13,7 km/h (3 Bft) W-SW 237 2 min 0,000 mm 4,2 UV-I 853 W/m 11,9 C 22,7 C 33,8 km/h (5 Bft) 86,36 %
23.05.2017 14:52 24,2 C 21,7 C 45 % 1015,2 hPa 0,0 l/m 15,0 km/h (3 Bft) NW 323 2 min 0,000 mm 4,2 UV-I 852 W/m 11,5 C 22,3 C 25,7 km/h (4 Bft) 93,62 %
23.05.2017 14:54 24,2 C 21,7 C 46 % 1015,3 hPa 0,0 l/m 15,0 km/h (3 Bft) W-SW 242 2 min 0,000 mm 4,1 UV-I 855 W/m 11,8 C 22,3 C 25,7 km/h (4 Bft) 95,12 %
23.05.2017 14:56 24,2 C 21,7 C 47 % 1015,2 hPa 0,0 l/m 20,7 km/h (4 Bft) SW 227 2 min 0,000 mm 4,0 UV-I 852 W/m 12,2 C 21,5 C 29,0 km/h (5 Bft) 96,00 %
23.05.2017 14:58 24,1 C 21,7 C 45 % 1015,2 hPa 0,0 l/m 23,8 km/h (4 Bft) W-SW 247 2 min 0,000 mm 3,9 UV-I 841 W/m 11,4 C 21,1 C 37,0 km/h (5 Bft) 94,00 %
23.05.2017 15:00 24,1 C 21,7 C 45 % 1015,2 hPa 0,0 l/m 20,8 km/h (4 Bft) SW 221 2 min 0,000 mm 3,7 UV-I 875 W/m 11,4 C 21,4 C 30,6 km/h (5 Bft) 97,73 %
23.05.2017 15:02 23,8 C 21,7 C 44 % 1015,2 hPa 0,0 l/m 19,1 km/h (3 Bft) W-SW 241 2 min 0,635 mm 3,3 UV-I 619 W/m 10,8 C 21,2 C 27,4 km/h (4 Bft) 92,45 %
23.05.2017 15:04 23,7 C 21,7 C 44 % 1015,1 hPa 0,0 l/m 19,2 km/h (3 Bft) W 263 2 min 0,000 mm 2,8 UV-I 438 W/m 10,7 C 21,1 C 27,4 km/h (4 Bft) 92,11 %
23.05.2017 15:06 23,4 C 21,7 C 45 % 1015,1 hPa 0,0 l/m 14,4 km/h (3 Bft) W-SW 246 0 min 0,000 mm 2,6 UV-I 340 W/m 10,8 C 21,5 C 24,1 km/h (4 Bft) 90,00 %
23.05.2017 15:08 23,2 C 21,7 C 47 % 1015,1 hPa 0,0 l/m 16,5 km/h (3 Bft) W 271 0 min 0,000 mm 2,7 UV-I 345 W/m 11,3 C 20,9 C 22,5 km/h (4 Bft) 95,24 %
23.05.2017 15:10 23,1 C 21,7 C 48 % 1015,1 hPa 0,0 l/m 12,8 km/h (3 Bft) SW 235 0 min 0,000 mm 2,5 UV-I 274 W/m 11,5 C 21,4 C 22,5 km/h (4 Bft) 92,45 %
23.05.2017 15:12 22,9 C 21,7 C 47 % 1015,1 hPa 0,0 l/m 13,1 km/h (3 Bft) W-SW 242 0 min 0,000 mm 2,7 UV-I 195 W/m 11,0 C 21,1 C 19,3 km/h (3 Bft) 95,12 %
23.05.2017 15:14 23,1 C 21,7 C 48 % 1015,1 hPa 0,0 l/m 13,9 km/h (3 Bft) W-SW 258 2 min 0,000 mm 3,8 UV-I 826 W/m 11,5 C 21,2 C 22,5 km/h (4 Bft) 92,11 %
23.05.2017 15:16 23,4 C 21,7 C 46 % 1015,1 hPa 0,0 l/m 16,5 km/h (3 Bft) W-NW 290 2 min 0,000 mm 4,0 UV-I 868 W/m 11,1 C 21,1 C 29,0 km/h (5 Bft) 88,68 %
23.05.2017 15:18 23,6 C 21,7 C 40 % 1015,1 hPa 0,0 l/m 19,6 km/h (3 Bft) S-SW 202 2 min 0,000 mm 4,0 UV-I 863 W/m 9,2 C 20,9 C 27,4 km/h (4 Bft) 98,21 %
23.05.2017 15:20 23,8 C 21,7 C 42 % 1015,1 hPa 0,0 l/m 12,2 km/h (2 Bft) SW 234 2 min 0,000 mm 4,0 UV-I 853 W/m 10,1 C 22,4 C 22,5 km/h (4 Bft) 93,18 %
23.05.2017 15:22 23,9 C 21,7 C 39 % 1015,1 hPa 0,0 l/m 19,6 km/h (3 Bft) W 277 2 min 0,000 mm 3,9 UV-I 833 W/m 9,1 C 21,3 C 35,4 km/h (5 Bft) 94,00 %
23.05.2017 15:24 23,9 C 21,7 C 39 % 1015,2 hPa 0,0 l/m 20,7 km/h (4 Bft) W-NW 285 2 min 0,000 mm 3,9 UV-I 834 W/m 9,1 C 21,2 C 32,2 km/h (5 Bft) 95,74 %
23.05.2017 15:26 23,9 C 21,7 C 40 % 1015,1 hPa 0,0 l/m 21,2 km/h (4 Bft) SW 227 2 min 0,000 mm 3,9 UV-I 830 W/m 9,5 C 21,1 C 29,0 km/h (5 Bft) 95,74 %
23.05.2017 15:28 24,0 C 21,7 C 39 % 1015,1 hPa 0,0 l/m 24,9 km/h (4 Bft) SW 230 2 min 0,000 mm 3,8 UV-I 811 W/m 9,2 C 20,8 C 37,0 km/h (5 Bft) 96,00 %
23.05.2017 15:30 24,0 C 21,7 C 40 % 1015,0 hPa 0,0 l/m 17,6 km/h (3 Bft) W 265 2 min 0,000 mm 3,8 UV-I 798 W/m 9,6 C 21,7 C 29,0 km/h (5 Bft) 92,11 %
23.05.2017 15:32 24,1 C 21,7 C 41 % 1015,0 hPa 0,0 l/m 16,6 km/h (3 Bft) W-SW 241 2 min 0,000 mm 3,6 UV-I 774 W/m 10,0 C 22,0 C 24,1 km/h (4 Bft) 96,00 %
23.05.2017 15:34 24,1 C 21,7 C 41 % 1015,1 hPa 0,0 l/m 19,7 km/h (3 Bft) W-SW 247 2 min 0,000 mm 3,6 UV-I 761 W/m 10,0 C 21,5 C 32,2 km/h (5 Bft) 98,00 %
23.05.2017 15:36 24,2 C 21,7 C 42 % 1015,0 hPa 0,0 l/m 15,8 km/h (3 Bft) W 260 2 min 0,000 mm 3,5 UV-I 750 W/m 10,5 C 22,2 C 24,1 km/h (4 Bft) 95,12 %
23.05.2017 15:38 24,2 C 21,7 C 41 % 1015,0 hPa 0,0 l/m 14,4 km/h (3 Bft) W-SW 257 2 min 0,000 mm 3,4 UV-I 736 W/m 10,1 C 22,4 C 24,1 km/h (4 Bft) 96,23 %
23.05.2017 15:40 24,3 C 21,7 C 40 % 1015,0 hPa 0,0 l/m 16,8 km/h (3 Bft) W-SW 242 2 min 0,000 mm 3,4 UV-I 735 W/m 9,8 C 22,2 C 25,7 km/h (4 Bft) 94,29 %
23.05.2017 15:42 24,2 C 21,7 C 39 % 1015,0 hPa 0,0 l/m 18,8 km/h (3 Bft) W-SW 246 2 min 0,000 mm 3,4 UV-I 740 W/m 9,4 C 21,8 C 35,4 km/h (5 Bft) 98,00 %
23.05.2017 15:44 24,0 C 21,7 C 39 % 1015,0 hPa 0,0 l/m 15,5 km/h (3 Bft) W-SW 253 2 min 0,000 mm 3,3 UV-I 735 W/m 9,2 C 22,0 C 27,4 km/h (4 Bft) 93,33 %
23.05.2017 15:46 23,9 C 21,7 C 39 % 1015,0 hPa 0,0 l/m 19,1 km/h (3 Bft) W-SW 250 2 min 0,000 mm 3,3 UV-I 734 W/m 9,1 C 21,4 C 29,0 km/h (5 Bft) 96,36 %
23.05.2017 15:48 23,9 C 22,2 C 40 % 1015,0 hPa 0,0 l/m 20,2 km/h (4 Bft) W-SW 254 2 min 0,000 mm 3,3 UV-I 719 W/m 9,5 C 21,2 C 38,6 km/h (5 Bft) 93,33 %
23.05.2017 15:50 23,9 C 22,2 C 40 % 1015,0 hPa 0,0 l/m 15,6 km/h (3 Bft) W-SW 244 2 min 0,000 mm 3,2 UV-I 717 W/m 9,5 C 21,9 C 24,1 km/h (4 Bft) 96,92 %
23.05.2017 15:52 23,9 C 22,2 C 40 % 1014,9 hPa 0,0 l/m 18,3 km/h (3 Bft) W 273 2 min 0,000 mm 3,2 UV-I 715 W/m 9,5 C 21,5 C 27,4 km/h (4 Bft) 97,37 %
23.05.2017 15:54 23,9 C 22,2 C 40 % 1014,9 hPa 0,0 l/m 24,8 km/h (4 Bft) W-SW 255 2 min 0,000 mm 3,1 UV-I 709 W/m 9,5 C 20,7 C 37,0 km/h (5 Bft) 96,00 %
23.05.2017 15:56 23,9 C 22,2 C 40 % 1014,9 hPa 0,0 l/m 19,0 km/h (3 Bft) SW 236 2 min 0,000 mm 3,1 UV-I 707 W/m 9,5 C 21,4 C 33,8 km/h (5 Bft) 96,55 %
23.05.2017 15:58 24,0 C 22,2 C 41 % 1015,0 hPa 0,0 l/m 15,5 km/h (3 Bft) W 259 2 min 0,000 mm 3,0 UV-I 687 W/m 9,9 C 22,0 C 25,7 km/h (4 Bft) 94,59 %
23.05.2017 16:00 24,1 C 22,2 C 43 % 1015,0 hPa 0,0 l/m 12,5 km/h (3 Bft) S 175 2 min 0,584 mm 2,9 UV-I 664 W/m 10,7 C 22,7 C 17,7 km/h (3 Bft) 94,74 %
23.05.2017 16:02 24,2 C 22,2 C 42 % 1014,9 hPa 0,0 l/m 16,1 km/h (3 Bft) W-SW 255 2 min 0,000 mm 2,9 UV-I 664 W/m 10,5 C 22,2 C 29,0 km/h (5 Bft) 96,23 %
23.05.2017 16:05 24,2 C 22,2 C 42 % 1014,9 hPa 0,0 l/m 16,1 km/h (3 Bft) W-SW 247 3 min 0,000 mm 2,9 UV-I 663 W/m 10,5 C 22,2 C 29,0 km/h (5 Bft) 96,49 %
23.05.2017 16:10 24,3 C 22,2 C 39 % 1014,9 hPa 0,0 l/m 15,3 km/h (3 Bft) W 279 5 min 0,000 mm 2,8 UV-I 662 W/m 9,4 C 22,4 C 27,4 km/h (4 Bft) 95,63 %
23.05.2017 16:12 24,3 C 22,2 C 38 % 1014,9 hPa 0,0 l/m 12,6 km/h (3 Bft) W 271 2 min 0,000 mm 2,7 UV-I 651 W/m 9,1 C 22,9 C 20,9 km/h (4 Bft) 95,12 %
23.05.2017 16:14 24,3 C 22,2 C 39 % 1014,9 hPa 0,0 l/m 15,4 km/h (3 Bft) W 260 2 min 0,000 mm 2,6 UV-I 643 W/m 9,4 C 22,4 C 24,1 km/h (4 Bft) 96,23 %
23.05.2017 16:16 24,2 C 22,2 C 41 % 1014,8 hPa 0,0 l/m 13,1 km/h (3 Bft) W 261 2 min 0,000 mm 2,6 UV-I 635 W/m 10,1 C 22,7 C 24,1 km/h (4 Bft) 94,87 %
23.05.2017 16:18 24,2 C 22,2 C 39 % 1014,9 hPa 0,0 l/m 15,9 km/h (3 Bft) N-NW 333 2 min 0,000 mm 2,6 UV-I 643 W/m 9,4 C 22,2 C 27,4 km/h (4 Bft) 97,50 %
23.05.2017 16:20 24,2 C 22,2 C 39 % 1014,8 hPa 0,0 l/m 11,5 km/h (2 Bft) W-SW 246 2 min 0,000 mm 2,6 UV-I 643 W/m 9,4 C 23,0 C 20,9 km/h (4 Bft) 95,31 %
23.05.2017 16:22 24,3 C 22,2 C 40 % 1014,9 hPa 0,0 l/m 13,7 km/h (3 Bft) SW 215 2 min 0,000 mm 2,6 UV-I 637 W/m 9,8 C 22,7 C 19,3 km/h (3 Bft) 97,44 %
23.05.2017 16:24 24,3 C 22,2 C 40 % 1014,9 hPa 0,0 l/m 14,7 km/h (3 Bft) W-NW 284 2 min 0,000 mm 2,5 UV-I 633 W/m 9,8 C 22,5 C 22,5 km/h (4 Bft) 94,92 %
23.05.2017 16:26 24,4 C 22,2 C 39 % 1014,8 hPa 0,0 l/m 13,2 km/h (3 Bft) W-NW 287 2 min 0,000 mm 2,4 UV-I 622 W/m 9,5 C 22,9 C 17,7 km/h (3 Bft) 100,00 %
23.05.2017 16:28 24,4 C 22,2 C 40 % 1014,8 hPa 0,0 l/m 16,6 km/h (3 Bft) W 265 2 min 0,000 mm 2,4 UV-I 611 W/m 9,9 C 22,3 C 25,7 km/h (4 Bft) 93,18 %
23.05.2017 16:30 24,4 C 22,2 C 40 % 1014,8 hPa 0,0 l/m 17,9 km/h (3 Bft) W-NW 293 2 min 0,000 mm 2,3 UV-I 596 W/m 9,9 C 22,2 C 35,4 km/h (5 Bft) 98,31 %
23.05.2017 16:32 24,5 C 22,2 C 40 % 1014,7 hPa 0,0 l/m 14,6 km/h (3 Bft) W 262 2 min 0,000 mm 2,3 UV-I 593 W/m 10,0 C 22,8 C 22,5 km/h (4 Bft) 98,21 %
23.05.2017 16:34 24,5 C 22,2 C 38 % 1014,8 hPa 0,0 l/m 15,0 km/h (3 Bft) W-SW 250 2 min 0,000 mm 2,3 UV-I 596 W/m 9,2 C 22,7 C 24,1 km/h (4 Bft) 100,00 %
23.05.2017 16:36 24,5 C 22,2 C 39 % 1014,7 hPa 0,0 l/m 14,4 km/h (3 Bft) W-NW 285 2 min 0,000 mm 2,2 UV-I 586 W/m 9,6 C 22,8 C 27,4 km/h (4 Bft) 100,00 %
23.05.2017 16:38 24,4 C 22,2 C 39 % 1014,8 hPa 0,0 l/m 17,4 km/h (3 Bft) W 263 2 min 0,000 mm 2,2 UV-I 592 W/m 9,5 C 22,2 C 33,8 km/h (5 Bft) 97,73 %
23.05.2017 16:40 24,4 C 22,2 C 38 % 1014,7 hPa 0,0 l/m 15,8 km/h (3 Bft) W-SW 254 2 min 0,000 mm 2,2 UV-I 587 W/m 9,2 C 22,5 C 20,9 km/h (4 Bft) 98,11 %
23.05.2017 16:42 24,3 C 22,2 C 38 % 1015,0 hPa 0,0 l/m 19,0 km/h (3 Bft) W 275 2 min 0,000 mm 2,1 UV-I 576 W/m 9,1 C 21,9 C 32,2 km/h (5 Bft) 97,73 %
23.05.2017 16:44 24,2 C 22,2 C 39 % 1014,8 hPa 0,0 l/m 16,1 km/h (3 Bft) W-SW 255 2 min 0,000 mm 2,1 UV-I 575 W/m 9,4 C 22,2 C 27,4 km/h (4 Bft) 94,74 %
23.05.2017 16:46 24,2 C 22,2 C 39 % 1014,9 hPa 0,0 l/m 17,0 km/h (3 Bft) W-NW 286 2 min 0,000 mm 2,1 UV-I 565 W/m 9,4 C 22,0 C 25,7 km/h (4 Bft) 98,11 %
23.05.2017 16:48 24,3 C 22,2 C 39 % 1014,8 hPa 0,0 l/m 17,8 km/h (3 Bft) SW 234 2 min 0,000 mm 2,1 UV-I 570 W/m 9,4 C 22,0 C 24,1 km/h (4 Bft) 97,87 %
23.05.2017 16:50 24,3 C 22,2 C 38 % 1014,8 hPa 0,0 l/m 17,1 km/h (3 Bft) W-SW 248 2 min 0,000 mm 2,0 UV-I 562 W/m 9,1 C 22,1 C 25,7 km/h (4 Bft) 98,00 %
23.05.2017 16:52 24,3 C 22,2 C 39 % 1014,8 hPa 0,0 l/m 16,3 km/h (3 Bft) W-SW 254 2 min 0,000 mm 2,0 UV-I 546 W/m 9,4 C 22,3 C 22,5 km/h (4 Bft) 100,00 %
23.05.2017 16:54 24,3 C 22,2 C 39 % 1014,8 hPa 0,0 l/m 15,8 km/h (3 Bft) W-SW 257 2 min 0,000 mm 1,9 UV-I 529 W/m 9,4 C 22,3 C 27,4 km/h (4 Bft) 100,00 %
23.05.2017 16:56 24,3 C 22,2 C 39 % 1014,8 hPa 0,0 l/m 20,9 km/h (4 Bft) W-SW 241 2 min 0,000 mm 1,8 UV-I 526 W/m 9,4 C 21,7 C 32,2 km/h (5 Bft) 100,00 %
23.05.2017 16:58 24,3 C 22,2 C 38 % 1014,8 hPa 0,0 l/m 20,2 km/h (4 Bft) W 266 2 min 0,000 mm 1,8 UV-I 530 W/m 9,1 C 21,7 C 29,0 km/h (5 Bft) 95,45 %
23.05.2017 17:00 24,2 C 22,2 C 39 % 1014,8 hPa 0,0 l/m 14,3 km/h (3 Bft) S-SW 207 2 min 0,508 mm 1,8 UV-I 509 W/m 9,4 C 22,5 C 25,7 km/h (4 Bft) 97,92 %
23.05.2017 17:02 24,2 C 22,2 C 39 % 1014,7 hPa 0,0 l/m 18,0 km/h (3 Bft) SW 236 2 min 0,000 mm 1,7 UV-I 469 W/m 9,4 C 21,9 C 27,4 km/h (4 Bft) 100,00 %
23.05.2017 17:04 24,2 C 22,2 C 39 % 1014,7 hPa 0,0 l/m 13,6 km/h (3 Bft) W-SW 242 2 min 0,000 mm 1,7 UV-I 510 W/m 9,4 C 22,6 C 22,5 km/h (4 Bft) 97,73 %
23.05.2017 17:06 24,2 C 22,2 C 39 % 1014,7 hPa 0,0 l/m 8,0 km/h (2 Bft) SW 222 2 min 0,000 mm 1,7 UV-I 495 W/m 9,4 C 23,8 C 14,5 km/h (3 Bft) 97,73 %
23.05.2017 17:08 24,2 C 22,2 C 39 % 1014,8 hPa 0,0 l/m 11,2 km/h (2 Bft) SW 234 2 min 0,000 mm 1,6 UV-I 500 W/m 9,4 C 23,0 C 24,1 km/h (4 Bft) 100,00 %
23.05.2017 17:10 24,2 C 22,2 C 39 % 1014,8 hPa 0,0 l/m 11,1 km/h (2 Bft) NW 317 2 min 0,000 mm 1,6 UV-I 493 W/m 9,4 C 23,0 C 17,7 km/h (3 Bft) 100,00 %
23.05.2017 17:12 24,2 C 22,2 C 39 % 1014,8 hPa 0,0 l/m 12,1 km/h (2 Bft) SW 218 2 min 0,000 mm 1,6 UV-I 505 W/m 9,4 C 22,8 C 17,7 km/h (3 Bft) 98,04 %
23.05.2017 17:14 24,2 C 22,2 C 38 % 1014,7 hPa 0,0 l/m 14,5 km/h (3 Bft) W-SW 248 2 min 0,000 mm 1,6 UV-I 489 W/m 9,0 C 22,4 C 24,1 km/h (4 Bft) 100,00 %
23.05.2017 17:16 24,1 C 22,2 C 38 % 1014,7 hPa 0,0 l/m 11,3 km/h (2 Bft) W-SW 238 2 min 0,000 mm 1,5 UV-I 463 W/m 8,9 C 22,9 C 17,7 km/h (3 Bft) 100,00 %
23.05.2017 17:18 24,2 C 22,2 C 40 % 1014,8 hPa 0,0 l/m 7,6 km/h (2 Bft) W 279 2 min 0,000 mm 1,4 UV-I 451 W/m 9,7 C 23,9 C 16,1 km/h (3 Bft) 95,74 %
23.05.2017 17:20 24,2 C 22,2 C 39 % 1014,8 hPa 0,0 l/m 11,0 km/h (2 Bft) NW 313 2 min 0,000 mm 1,4 UV-I 476 W/m 9,4 C 23,1 C 17,7 km/h (3 Bft) 96,00 %
23.05.2017 17:22 24,2 C 22,2 C 39 % 1014,7 hPa 0,0 l/m 18,0 km/h (3 Bft) W-SW 256 2 min 0,000 mm 1,4 UV-I 464 W/m 9,4 C 21,9 C 29,0 km/h (5 Bft) 100,00 %
23.05.2017 17:24 24,2 C 22,2 C 39 % 1014,8 hPa 0,0 l/m 9,7 km/h (2 Bft) W-SW 257 2 min 0,000 mm 1,3 UV-I 411 W/m 9,4 C 23,3 C 14,5 km/h (3 Bft) 98,31 %
23.05.2017 17:26 24,1 C 22,2 C 39 % 1014,7 hPa 0,0 l/m 11,8 km/h (2 Bft) W 270 2 min 0,000 mm 1,2 UV-I 338 W/m 9,3 C 22,8 C 17,7 km/h (3 Bft) 97,73 %
23.05.2017 17:28 23,9 C 22,2 C 39 % 1014,6 hPa 0,0 l/m 9,5 km/h (2 Bft) W-SW 244 2 min 0,000 mm 1,2 UV-I 301 W/m 9,1 C 23,1 C 17,7 km/h (3 Bft) 93,33 %
23.05.2017 17:30 23,8 C 22,2 C 41 % 1014,7 hPa 0,0 l/m 9,7 km/h (2 Bft) W 263 2 min 0,000 mm 1,1 UV-I 333 W/m 9,7 C 22,9 C 20,9 km/h (4 Bft) 100,00 %
23.05.2017 17:32 23,7 C 22,2 C 40 % 1014,7 hPa 0,0 l/m 11,2 km/h (2 Bft) W-NW 294 2 min 0,000 mm 1,1 UV-I 327 W/m 9,3 C 22,5 C 20,9 km/h (4 Bft) 100,00 %
23.05.2017 17:34 23,7 C 22,2 C 41 % 1014,7 hPa 0,0 l/m 9,6 km/h (2 Bft) SW 230 2 min 0,000 mm 1,1 UV-I 378 W/m 9,7 C 22,8 C 14,5 km/h (3 Bft) 100,00 %
23.05.2017 17:36 23,7 C 22,2 C 39 % 1014,7 hPa 0,0 l/m 9,2 km/h (2 Bft) W-SW 255 2 min 0,000 mm 1,2 UV-I 442 W/m 8,9 C 22,9 C 16,1 km/h (3 Bft) 97,87 %
23.05.2017 17:38 23,8 C 22,2 C 40 % 1014,7 hPa 0,0 l/m 14,5 km/h (3 Bft) W 276 2 min 0,000 mm 1,2 UV-I 434 W/m 9,4 C 21,9 C 24,1 km/h (4 Bft) 95,24 %
23.05.2017 17:40 23,8 C 22,2 C 40 % 1014,7 hPa 0,0 l/m 7,4 km/h (2 Bft) S-SW 213 2 min 0,000 mm 1,1 UV-I 430 W/m 9,4 C 23,5 C 14,5 km/h (3 Bft) 97,73 %
23.05.2017 17:42 23,8 C 22,2 C 39 % 1014,6 hPa 0,0 l/m 9,9 km/h (2 Bft) SW 232 2 min 0,000 mm 1,0 UV-I 326 W/m 9,0 C 22,9 C 22,5 km/h (4 Bft) 100,00 %
23.05.2017 17:44 23,7 C 22,2 C 39 % 1014,6 hPa 0,0 l/m 10,4 km/h (2 Bft) SW 232 2 min 0,000 mm 0,9 UV-I 298 W/m 8,9 C 22,6 C 19,3 km/h (3 Bft) 98,11 %
23.05.2017 17:46 23,6 C 22,2 C 39 % 1014,7 hPa 0,0 l/m 16,1 km/h (3 Bft) W-SW 257 2 min 0,000 mm 0,9 UV-I 326 W/m 8,8 C 21,4 C 27,4 km/h (4 Bft) 95,74 %
23.05.2017 17:48 23,5 C 22,2 C 40 % 1014,7 hPa 0,0 l/m 10,2 km/h (2 Bft) W 269 0 min 0,000 mm 0,8 UV-I 184 W/m 9,1 C 22,5 C 24,1 km/h (4 Bft) 97,87 %
23.05.2017 17:50 23,3 C 22,2 C 40 % 1014,7 hPa 0,0 l/m 15,2 km/h (3 Bft) W 265 0 min 0,000 mm 0,7 UV-I 178 W/m 8,9 C 21,2 C 27,4 km/h (4 Bft) 96,00 %
23.05.2017 17:52 23,2 C 22,2 C 40 % 1014,7 hPa 0,0 l/m 11,9 km/h (2 Bft) W-SW 253 0 min 0,000 mm 0,7 UV-I 183 W/m 8,8 C 21,7 C 20,9 km/h (4 Bft) 100,00 %
23.05.2017 17:54 23,1 C 22,2 C 40 % 1014,7 hPa 0,0 l/m 10,4 km/h (2 Bft) W 261 2 min 0,000 mm 0,8 UV-I 242 W/m 8,8 C 22,0 C 20,9 km/h (4 Bft) 92,00 %
23.05.2017 17:56 23,1 C 22,2 C 41 % 1014,7 hPa 0,0 l/m 8,7 km/h (2 Bft) W 260 2 min 0,000 mm 0,9 UV-I 332 W/m 9,1 C 22,4 C 14,5 km/h (3 Bft) 95,12 %
23.05.2017 17:58 23,2 C 22,2 C 41 % 1014,7 hPa 0,0 l/m 11,2 km/h (2 Bft) W 264 2 min 0,000 mm 0,9 UV-I 438 W/m 9,2 C 21,9 C 17,7 km/h (3 Bft) 98,11 %
23.05.2017 18:00 23,4 C 22,2 C 41 % 1014,7 hPa 0,0 l/m 11,0 km/h (2 Bft) W-SW 246 2 min 0,000 mm 0,9 UV-I 434 W/m 9,4 C 22,2 C 19,3 km/h (3 Bft) 92,00 %
23.05.2017 18:02 23,7 C 22,2 C 40 % 1014,7 hPa 0,0 l/m 16,4 km/h (3 Bft) W-SW 243 2 min 0,356 mm 0,8 UV-I 369 W/m 9,3 C 21,5 C 27,4 km/h (4 Bft) 94,00 %
23.05.2017 18:04 23,7 C 22,2 C 40 % 1014,7 hPa 0,0 l/m 14,0 km/h (3 Bft) W 270 2 min 0,000 mm 0,8 UV-I 288 W/m 9,3 C 21,9 C 20,9 km/h (4 Bft) 100,00 %
23.05.2017 18:06 23,6 C 22,2 C 39 % 1014,7 hPa 0,0 l/m 17,3 km/h (3 Bft) W-SW 254 2 min 0,000 mm 0,8 UV-I 311 W/m 8,8 C 21,2 C 27,4 km/h (4 Bft) 85,19 %
23.05.2017 18:08 23,6 C 22,2 C 40 % 1014,7 hPa 0,0 l/m 14,6 km/h (3 Bft) W-SW 246 2 min 0,000 mm 0,8 UV-I 285 W/m 9,2 C 21,7 C 22,5 km/h (4 Bft) 91,04 %
23.05.2017 18:10 23,5 C 22,2 C 41 % 1014,7 hPa 0,0 l/m 10,9 km/h (2 Bft) SW 227 2 min 0,000 mm 0,7 UV-I 251 W/m 9,5 C 22,3 C 20,9 km/h (4 Bft) 97,56 %
23.05.2017 18:12 23,4 C 22,2 C 41 % 1014,8 hPa 0,0 l/m 8,0 km/h (2 Bft) S-SW 200 2 min 0,000 mm 0,7 UV-I 268 W/m 9,4 C 22,9 C 14,5 km/h (3 Bft) 98,11 %
23.05.2017 18:14 23,3 C 22,2 C 42 % 1014,8 hPa 0,0 l/m 9,4 km/h (2 Bft) W 265 2 min 0,000 mm 0,7 UV-I 279 W/m 9,7 C 22,4 C 16,1 km/h (3 Bft) 94,00 %
23.05.2017 18:16 23,2 C 22,2 C 43 % 1014,8 hPa 0,0 l/m 10,9 km/h (2 Bft) SW 227 2 min 0,000 mm 0,7 UV-I 280 W/m 9,9 C 22,0 C 24,1 km/h (4 Bft) 89,36 %
23.05.2017 18:18 23,2 C 22,2 C 42 % 1014,8 hPa 0,0 l/m 12,5 km/h (3 Bft) W 277 2 min 0,000 mm 0,7 UV-I 304 W/m 9,6 C 21,6 C 20,9 km/h (4 Bft) 93,33 %
23.05.2017 18:20 23,2 C 22,2 C 42 % 1014,9 hPa 0,0 l/m 6,4 km/h (2 Bft) SW 225 2 min 0,000 mm 0,6 UV-I 286 W/m 9,6 C 23,2 C 11,3 km/h (2 Bft) 92,00 %
23.05.2017 18:22 23,3 C 22,2 C 43 % 1014,9 hPa 0,0 l/m 7,4 km/h (2 Bft) W-SW 240 2 min 0,000 mm 0,6 UV-I 277 W/m 10,0 C 23,0 C 12,9 km/h (3 Bft) 95,12 %
23.05.2017 18:24 23,3 C 22,2 C 44 % 1014,9 hPa 0,0 l/m 6,3 km/h (2 Bft) W-NW 282 2 min 0,000 mm 0,6 UV-I 274 W/m 10,4 C 23,3 C 14,5 km/h (3 Bft) 98,11 %
23.05.2017 18:26 23,2 C 22,2 C 46 % 1014,9 hPa 0,0 l/m 7,0 km/h (2 Bft) W-SW 254 2 min 0,000 mm 0,5 UV-I 242 W/m 10,9 C 23,0 C 16,1 km/h (3 Bft) 94,29 %
23.05.2017 18:28 23,1 C 22,2 C 44 % 1014,9 hPa 0,0 l/m 6,8 km/h (2 Bft) SW 220 2 min 0,000 mm 0,5 UV-I 221 W/m 10,2 C 23,0 C 12,9 km/h (3 Bft) 98,21 %
23.05.2017 18:30 23,0 C 22,2 C 43 % 1015,0 hPa 0,0 l/m 9,9 km/h (2 Bft) SW 227 2 min 0,000 mm 0,5 UV-I 188 W/m 9,7 C 22,0 C 16,1 km/h (3 Bft) 100,00 %
23.05.2017 18:32 22,9 C 22,2 C 44 % 1015,0 hPa 0,0 l/m 9,1 km/h (2 Bft) W-SW 253 0 min 0,000 mm 0,3 UV-I 169 W/m 10,0 C 22,1 C 25,7 km/h (4 Bft) 96,43 %
23.05.2017 18:34 22,8 C 22,2 C 44 % 1015,0 hPa 0,0 l/m 7,5 km/h (2 Bft) W 277 0 min 0,000 mm 0,0 UV-I 158 W/m 9,9 C 22,4 C 14,5 km/h (3 Bft) 97,56 %
23.05.2017 18:36 22,7 C 22,2 C 44 % 1015,0 hPa 0,0 l/m 6,4 km/h (2 Bft) W-SW 250 2 min 0,000 mm 0,0 UV-I 192 W/m 9,8 C 22,7 C 17,7 km/h (3 Bft) 100,00 %
23.05.2017 18:38 22,7 C 22,2 C 44 % 1015,0 hPa 0,0 l/m 3,2 km/h (1 Bft) N-NW 342 2 min 0,000 mm 0,0 UV-I 196 W/m 9,8 C 22,7 C 6,4 km/h (2 Bft) 96,43 %
23.05.2017 18:40 22,6 C 22,2 C 46 % 1015,0 hPa 0,0 l/m 3,0 km/h (1 Bft) N-NO 26 2 min 0,000 mm 0,0 UV-I 221 W/m 10,4 C 22,6 C 8,0 km/h (2 Bft) 100,00 %
23.05.2017 18:42 22,6 C 22,2 C 46 % 1015,1 hPa 0,0 l/m 2,7 km/h (1 Bft) W-NW 298 2 min 0,000 mm 0,0 UV-I 199 W/m 10,4 C 22,6 C 11,3 km/h (2 Bft) 94,00 %
23.05.2017 18:44 22,6 C 22,2 C 46 % 1015,1 hPa 0,0 l/m 6,1 km/h (2 Bft) W 267 2 min 0,000 mm 0,0 UV-I 189 W/m 10,4 C 22,6 C 14,5 km/h (3 Bft) 91,49 %
23.05.2017 18:46 22,5 C 22,2 C 46 % 1015,1 hPa 0,0 l/m 4,2 km/h (1 Bft) W-SW 250 0 min 0,000 mm 0,0 UV-I 155 W/m 10,3 C 22,5 C 11,3 km/h (2 Bft) 100,00 %
23.05.2017 18:48 22,5 C 22,2 C 45 % 1015,1 hPa 0,0 l/m 8,3 km/h (2 Bft) W 269 0 min 0,000 mm 0,0 UV-I 145 W/m 10,0 C 21,9 C 14,5 km/h (3 Bft) 96,00 %
23.05.2017 18:50 22,4 C 22,2 C 47 % 1015,2 hPa 0,0 l/m 3,2 km/h (1 Bft) W 264 0 min 0,000 mm 0,0 UV-I 142 W/m 10,5 C 22,4 C 6,4 km/h (2 Bft) 93,94 %
23.05.2017 18:52 22,4 C 22,2 C 46 % 1015,1 hPa 0,0 l/m 5,3 km/h (1 Bft) W-NW 289 2 min 0,000 mm 0,0 UV-I 159 W/m 10,2 C 22,4 C 12,9 km/h (3 Bft) 95,56 %
23.05.2017 18:54 22,3 C 22,2 C 48 % 1015,2 hPa 0,0 l/m 4,2 km/h (1 Bft) W 267 2 min 0,000 mm 0,0 UV-I 190 W/m 10,8 C 22,3 C 11,3 km/h (2 Bft) 96,36 %
23.05.2017 18:56 22,3 C 22,2 C 47 % 1015,2 hPa 0,0 l/m 3,4 km/h (1 Bft) W 276 2 min 0,000 mm 0,0 UV-I 196 W/m 10,4 C 22,3 C 9,7 km/h (2 Bft) 94,00 %
23.05.2017 18:58 22,3 C 22,2 C 47 % 1015,2 hPa 0,0 l/m 1,6 km/h (1 Bft) W 275 2 min 0,000 mm 0,0 UV-I 201 W/m 10,4 C 22,3 C 6,4 km/h (2 Bft) 100,00 %
23.05.2017 19:00 22,3 C 22,2 C 48 % 1015,2 hPa 0,0 l/m 2,2 km/h (1 Bft) N-NW 341 2 min 0,000 mm 0,0 UV-I 202 W/m 10,8 C 22,3 C 4,8 km/h (1 Bft) 93,62 %
23.05.2017 19:03 22,3 C 22,2 C 46 % 1015,2 hPa 0,0 l/m 4,2 km/h (1 Bft) W-NW 294 3 min 0,203 mm 0,0 UV-I 182 W/m 10,1 C 22,3 C 11,3 km/h (2 Bft) 95,52 %
23.05.2017 19:04 22,3 C 22,2 C 47 % 1015,2 hPa 0,0 l/m 2,2 km/h (1 Bft) W-NW 284 1 min 0,000 mm 0,0 UV-I 171 W/m 10,4 C 22,3 C 12,9 km/h (3 Bft) 91,67 %
23.05.2017 19:06 22,3 C 22,2 C 48 % 1015,2 hPa 0,0 l/m 4,5 km/h (1 Bft) SW 236 2 min 0,000 mm 0,0 UV-I 155 W/m 10,8 C 22,3 C 12,9 km/h (3 Bft) 89,47 %
23.05.2017 19:08 22,3 C 22,2 C 48 % 1015,2 hPa 0,0 l/m 3,3 km/h (1 Bft) N-NW 337 2 min 0,000 mm 0,0 UV-I 145 W/m 10,8 C 22,3 C 6,4 km/h (2 Bft) 89,29 %
23.05.2017 19:10 22,2 C 22,2 C 47 % 1015,2 hPa 0,0 l/m 7,0 km/h (2 Bft) W-NW 294 2 min 0,000 mm 0,0 UV-I 137 W/m 10,3 C 22,0 C 12,9 km/h (3 Bft) 97,73 %
23.05.2017 19:12 22,1 C 22,2 C 49 % 1015,2 hPa 0,0 l/m 3,4 km/h (1 Bft) W 262 2 min 0,000 mm 0,0 UV-I 134 W/m 10,9 C 22,1 C 6,4 km/h (2 Bft) 97,56 %
23.05.2017 19:14 22,1 C 22,2 C 47 % 1015,3 hPa 0,0 l/m 6,0 km/h (2 Bft) W-SW 250 2 min 0,000 mm 0,0 UV-I 127 W/m 10,3 C 22,1 C 11,3 km/h (2 Bft) 92,86 %
23.05.2017 19:16 22,1 C 22,2 C 47 % 1015,2 hPa 0,0 l/m 5,1 km/h (1 Bft) SW 228 2 min 0,000 mm 0,0 UV-I 122 W/m 10,3 C 22,1 C 11,3 km/h (2 Bft) 89,36 %
23.05.2017 19:18 22,0 C 22,2 C 47 % 1015,2 hPa 0,0 l/m 3,4 km/h (1 Bft) W 268 0 min 0,000 mm 0,0 UV-I 116 W/m 10,2 C 22,0 C 8,0 km/h (2 Bft) 92,00 %
23.05.2017 19:20 21,9 C 22,2 C 48 % 1015,2 hPa 0,0 l/m 2,8 km/h (1 Bft) W-SW 248 0 min 0,000 mm 0,0 UV-I 106 W/m 10,4 C 21,9 C 9,7 km/h (2 Bft) 94,74 %
23.05.2017 19:22 21,9 C 22,2 C 48 % 1015,3 hPa 0,0 l/m 5,0 km/h (1 Bft) W-NW 287 0 min 0,000 mm 0,0 UV-I 101 W/m 10,4 C 21,9 C 12,9 km/h (3 Bft) 94,34 %
23.05.2017 19:24 21,9 C 22,2 C 47 % 1015,2 hPa 0,0 l/m 6,5 km/h (2 Bft) W-SW 244 0 min 0,000 mm 0,0 UV-I 96 W/m 10,1 C 21,9 C 12,9 km/h (3 Bft) 95,12 %
23.05.2017 19:26 21,9 C 22,2 C 48 % 1015,2 hPa 0,0 l/m 5,9 km/h (2 Bft) W-SW 248 0 min 0,000 mm 0,0 UV-I 92 W/m 10,4 C 21,9 C 11,3 km/h (2 Bft) 94,00 %
23.05.2017 19:28 21,8 C 22,2 C 48 % 1015,3 hPa 0,0 l/m 6,2 km/h (2 Bft) W 281 0 min 0,000 mm 0,0 UV-I 91 W/m 10,3 C 21,8 C 16,1 km/h (3 Bft) 100,00 %
23.05.2017 19:30 21,8 C 22,2 C 48 % 1015,3 hPa 0,0 l/m 4,6 km/h (1 Bft) W 278 0 min 0,000 mm 0,0 UV-I 86 W/m 10,3 C 21,8 C 8,0 km/h (2 Bft) 95,31 %
23.05.2017 19:32 21,8 C 22,2 C 48 % 1015,3 hPa 0,0 l/m 4,5 km/h (1 Bft) W-NW 285 0 min 0,000 mm 0,0 UV-I 83 W/m 10,3 C 21,8 C 11,3 km/h (2 Bft) 94,44 %
23.05.2017 19:34 21,8 C 22,2 C 47 % 1015,3 hPa 0,0 l/m 10,2 km/h (2 Bft) SW 230 0 min 0,000 mm 0,0 UV-I 79 W/m 10,0 C 20,6 C 17,7 km/h (3 Bft) 97,87 %
23.05.2017 19:36 21,8 C 22,2 C 47 % 1015,3 hPa 0,0 l/m 5,8 km/h (2 Bft) W-SW 250 0 min 0,000 mm 0,0 UV-I 73 W/m 10,0 C 21,8 C 12,9 km/h (3 Bft) 93,10 %
23.05.2017 19:38 21,8 C 22,2 C 48 % 1015,3 hPa 0,0 l/m 3,9 km/h (1 Bft) W 266 0 min 0,000 mm 0,0 UV-I 64 W/m 10,3 C 21,8 C 6,4 km/h (2 Bft) 98,53 %
23.05.2017 19:40 21,8 C 22,2 C 48 % 1015,3 hPa 0,0 l/m 5,3 km/h (1 Bft) W 277 0 min 0,000 mm 0,0 UV-I 58 W/m 10,3 C 21,8 C 9,7 km/h (2 Bft) 96,23 %
23.05.2017 19:42 21,7 C 22,2 C 48 % 1015,3 hPa 0,0 l/m 5,0 km/h (1 Bft) W 275 0 min 0,000 mm 0,0 UV-I 54 W/m 10,2 C 21,7 C 11,3 km/h (2 Bft) 93,18 %
23.05.2017 19:44 21,7 C 22,2 C 49 % 1015,3 hPa 0,0 l/m 2,7 km/h (1 Bft) W 275 0 min 0,000 mm 0,0 UV-I 49 W/m 10,5 C 21,7 C 4,8 km/h (1 Bft) 95,74 %
23.05.2017 19:46 21,6 C 22,2 C 49 % 1015,3 hPa 0,0 l/m 4,8 km/h (1 Bft) W 265 0 min 0,000 mm 0,0 UV-I 47 W/m 10,4 C 21,6 C 9,7 km/h (2 Bft) 94,00 %
23.05.2017 19:48 21,4 C 22,2 C 49 % 1015,3 hPa 0,0 l/m 4,4 km/h (1 Bft) W 267 0 min 0,000 mm 0,0 UV-I 44 W/m 10,2 C 21,4 C 6,4 km/h (2 Bft) 97,83 %
23.05.2017 19:50 21,4 C 22,2 C 49 % 1015,3 hPa 0,0 l/m 4,6 km/h (1 Bft) W 274 0 min 0,000 mm 0,0 UV-I 42 W/m 10,2 C 21,4 C 9,7 km/h (2 Bft) 100,00 %
23.05.2017 19:53 21,3 C 22,2 C 50 % 1015,3 hPa 0,0 l/m 4,7 km/h (1 Bft) W-SW 242 0 min 0,000 mm 0,0 UV-I 40 W/m 10,4 C 21,3 C 12,9 km/h (3 Bft) 92,94 %
23.05.2017 19:54 21,3 C 22,2 C 49 % 1015,3 hPa 0,0 l/m 7,6 km/h (2 Bft) W-SW 252 0 min 0,000 mm 0,0 UV-I 37 W/m 10,1 C 20,9 C 14,5 km/h (3 Bft) 75,00 %
23.05.2017 19:56 21,3 C 22,2 C 50 % 1015,3 hPa 0,0 l/m 4,5 km/h (1 Bft) W-SW 254 0 min 0,000 mm 0,0 UV-I 36 W/m 10,4 C 21,3 C 6,4 km/h (2 Bft) 96,00 %
23.05.2017 19:58 21,2 C 22,2 C 50 % 1015,3 hPa 0,0 l/m 4,1 km/h (1 Bft) W-SW 250 0 min 0,000 mm 0,0 UV-I 33 W/m 10,4 C 21,2 C 6,4 km/h (2 Bft) 96,23 %
23.05.2017 20:00 21,2 C 22,2 C 50 % 1015,3 hPa 0,0 l/m 4,2 km/h (1 Bft) W-SW 254 0 min 0,102 mm 0,0 UV-I 31 W/m 10,4 C 21,2 C 6,4 km/h (2 Bft) 89,47 %
23.05.2017 20:02 21,0 C 22,2 C 50 % 1015,3 hPa 0,0 l/m 3,7 km/h (1 Bft) W-SW 253 0 min 0,000 mm 0,0 UV-I 29 W/m 10,2 C 21,0 C 6,4 km/h (2 Bft) 94,00 %
23.05.2017 20:04 20,9 C 22,2 C 50 % 1015,3 hPa 0,0 l/m 3,1 km/h (1 Bft) W-SW 251 0 min 0,000 mm 0,0 UV-I 26 W/m 10,1 C 20,9 C 4,8 km/h (1 Bft) 93,62 %
23.05.2017 20:06 20,9 C 22,2 C 51 % 1015,3 hPa 0,0 l/m 4,6 km/h (1 Bft) W-SW 249 0 min 0,000 mm 0,0 UV-I 26 W/m 10,4 C 20,9 C 8,0 km/h (2 Bft) 90,00 %
23.05.2017 20:08 20,8 C 22,2 C 51 % 1015,3 hPa 0,0 l/m 2,8 km/h (1 Bft) W-SW 247 0 min 0,000 mm 0,0 UV-I 24 W/m 10,3 C 20,8 C 4,8 km/h (1 Bft) 89,47 %
23.05.2017 20:10 20,7 C 22,2 C 52 % 1015,3 hPa 0,0 l/m 3,2 km/h (1 Bft) W-SW 247 0 min 0,000 mm 0,0 UV-I 23 W/m 10,5 C 20,7 C 4,8 km/h (1 Bft) 93,75 %
23.05.2017 20:12 20,7 C 22,2 C 52 % 1015,3 hPa 0,0 l/m 1,5 km/h (1 Bft) W-SW 247 0 min 0,000 mm 0,0 UV-I 21 W/m 10,5 C 20,7 C 3,2 km/h (1 Bft) 98,00 %
23.05.2017 20:14 20,5 C 22,2 C 52 % 1015,4 hPa 0,0 l/m 1,7 km/h (1 Bft) W-SW 247 0 min 0,000 mm 0,0 UV-I 21 W/m 10,3 C 20,5 C 4,8 km/h (1 Bft) 92,00 %
23.05.2017 20:16 20,4 C 22,2 C 52 % 1015,4 hPa 0,0 l/m 2,9 km/h (1 Bft) W-SW 247 0 min 0,000 mm 0,0 UV-I 21 W/m 10,2 C 20,4 C 4,8 km/h (1 Bft) 93,88 %
23.05.2017 20:18 20,4 C 22,2 C 53 % 1015,4 hPa 0,0 l/m 2,7 km/h (1 Bft) W-SW 247 0 min 0,000 mm 0,0 UV-I 20 W/m 10,5 C 20,4 C 4,8 km/h (1 Bft) 97,56 %
23.05.2017 20:20 20,3 C 22,2 C 53 % 1015,4 hPa 0,0 l/m 2,5 km/h (1 Bft) W-SW 247 0 min 0,000 mm 0,0 UV-I 19 W/m 10,4 C 20,3 C 4,8 km/h (1 Bft) 98,11 %
23.05.2017 20:22 20,3 C 22,2 C 53 % 1015,4 hPa 0,0 l/m 1,4 km/h (1 Bft) W-SW 247 0 min 0,000 mm 0,0 UV-I 19 W/m 10,4 C 20,3 C 3,2 km/h (1 Bft) 94,74 %
23.05.2017 20:24 20,2 C 22,2 C 54 % 1015,5 hPa 0,0 l/m 3,0 km/h (1 Bft) W-SW 247 0 min 0,000 mm 0,0 UV-I 18 W/m 10,6 C 20,2 C 4,8 km/h (1 Bft) 94,23 %
23.05.2017 20:26 20,1 C 22,2 C 54 % 1015,4 hPa 0,0 l/m 2,8 km/h (1 Bft) W-SW 247 0 min 0,000 mm 0,0 UV-I 16 W/m 10,5 C 20,1 C 4,8 km/h (1 Bft) 97,87 %
23.05.2017 20:28 20,0 C 22,2 C 55 % 1015,4 hPa 0,0 l/m 3,6 km/h (1 Bft) W-SW 243 0 min 0,000 mm 0,0 UV-I 14 W/m 10,7 C 20,0 C 6,4 km/h (2 Bft) 97,56 %
23.05.2017 20:30 19,8 C 22,2 C 56 % 1015,4 hPa 0,0 l/m 3,5 km/h (1 Bft) W-SW 241 0 min 0,000 mm 0,0 UV-I 12 W/m 10,8 C 19,8 C 6,4 km/h (2 Bft) 100,00 %
23.05.2017 20:32 19,7 C 22,2 C 56 % 1015,5 hPa 0,0 l/m 3,6 km/h (1 Bft) W-SW 244 0 min 0,000 mm 0,0 UV-I 11 W/m 10,7 C 19,7 C 4,8 km/h (1 Bft) 100,00 %
23.05.2017 20:34 19,7 C 22,2 C 57 % 1015,4 hPa 0,0 l/m 4,1 km/h (1 Bft) W-SW 243 2 min 0,000 mm 0,0 UV-I 9 W/m 10,9 C 19,7 C 6,4 km/h (2 Bft) 100,00 %
23.05.2017 20:36 19,5 C 22,2 C 57 % 1015,4 hPa 0,0 l/m 2,8 km/h (1 Bft) W-SW 243 0 min 0,000 mm 0,0 UV-I 9 W/m 10,8 C 19,5 C 4,8 km/h (1 Bft) 98,21 %
23.05.2017 20:38 19,4 C 22,2 C 57 % 1015,5 hPa 0,0 l/m 3,3 km/h (1 Bft) W-SW 240 0 min 0,000 mm 0,0 UV-I 8 W/m 10,7 C 19,4 C 6,4 km/h (2 Bft) 100,00 %
23.05.2017 20:40 19,3 C 22,2 C 57 % 1015,5 hPa 0,0 l/m 4,3 km/h (1 Bft) W-SW 240 0 min 0,000 mm 0,0 UV-I 7 W/m 10,6 C 19,3 C 6,4 km/h (2 Bft) 100,00 %
23.05.2017 20:42 19,3 C 22,2 C 58 % 1015,5 hPa 0,0 l/m 5,1 km/h (1 Bft) SW 231 0 min 0,000 mm 0,0 UV-I 7 W/m 10,8 C 19,3 C 6,4 km/h (2 Bft) 97,26 %
23.05.2017 20:44 19,2 C 22,2 C 59 % 1015,5 hPa 0,0 l/m 4,6 km/h (1 Bft) SW 229 0 min 0,000 mm 0,0 UV-I 7 W/m 11,0 C 19,2 C 6,4 km/h (2 Bft) 100,00 %
23.05.2017 20:46 19,2 C 22,2 C 59 % 1015,5 hPa 0,0 l/m 5,8 km/h (2 Bft) SW 228 0 min 0,000 mm 0,0 UV-I 5 W/m 11,0 C 19,2 C 8,0 km/h (2 Bft) 95,12 %
23.05.2017 20:48 19,1 C 22,2 C 59 % 1015,5 hPa 0,0 l/m 4,7 km/h (1 Bft) SW 228 0 min 0,000 mm 0,0 UV-I 5 W/m 10,9 C 19,1 C 6,4 km/h (2 Bft) 100,00 %
23.05.2017 20:50 19,0 C 22,2 C 59 % 1015,5 hPa 0,0 l/m 5,4 km/h (1 Bft) SW 227 0 min 0,000 mm 0,0 UV-I 5 W/m 10,8 C 19,0 C 6,4 km/h (2 Bft) 100,00 %
23.05.2017 20:52 18,9 C 22,2 C 60 % 1015,5 hPa 0,0 l/m 4,6 km/h (1 Bft) SW 225 0 min 0,000 mm 0,0 UV-I 5 W/m 11,0 C 18,9 C 6,4 km/h (2 Bft) 100,00 %
23.05.2017 20:54 18,8 C 22,2 C 61 % 1015,5 hPa 0,0 l/m 3,4 km/h (1 Bft) SW 225 0 min 0,000 mm 0,0 UV-I 5 W/m 11,1 C 18,8 C 6,4 km/h (2 Bft) 100,00 %
23.05.2017 20:56 18,6 C 22,2 C 61 % 1015,5 hPa 0,0 l/m 3,5 km/h (1 Bft) SW 225 0 min 0,000 mm 0,0 UV-I 5 W/m 10,9 C 18,6 C 6,4 km/h (2 Bft) 100,00 %
23.05.2017 20:58 18,6 C 22,2 C 60 % 1015,5 hPa 0,0 l/m 3,5 km/h (1 Bft) SW 225 0 min 0,000 mm 0,0 UV-I 3 W/m 10,7 C 18,6 C 6,4 km/h (2 Bft) 93,62 %
23.05.2017 21:00 18,6 C 22,2 C 61 % 1015,6 hPa 0,0 l/m 4,0 km/h (1 Bft) S 187 0 min 0,000 mm 0,0 UV-I 0 W/m 10,9 C 18,6 C 6,4 km/h (2 Bft) 100,00 %
23.05.2017 21:02 18,4 C 22,2 C 61 % 1015,6 hPa 0,0 l/m 3,0 km/h (1 Bft) S 188 0 min 0,025 mm 0,0 UV-I 0 W/m 10,7 C 18,4 C 6,4 km/h (2 Bft) 96,23 %
23.05.2017 21:04 18,4 C 22,2 C 62 % 1015,7 hPa 0,0 l/m 4,5 km/h (1 Bft) S-SW 210 0 min 0,000 mm 0,0 UV-I 0 W/m 11,0 C 18,4 C 8,0 km/h (2 Bft) 98,11 %
23.05.2017 21:06 18,3 C 22,2 C 62 % 1015,7 hPa 0,0 l/m 5,2 km/h (1 Bft) S-SW 200 0 min 0,000 mm 0,0 UV-I 0 W/m 10,9 C 18,3 C 6,4 km/h (2 Bft) 100,00 %
23.05.2017 21:08 18,2 C 22,2 C 63 % 1015,7 hPa 0,0 l/m 4,0 km/h (1 Bft) S-SW 194 0 min 0,000 mm 0,0 UV-I 0 W/m 11,0 C 18,2 C 6,4 km/h (2 Bft) 98,11 %
23.05.2017 21:10 18,1 C 22,2 C 63 % 1015,7 hPa 0,0 l/m 3,7 km/h (1 Bft) S-SW 194 0 min 0,000 mm 0,0 UV-I 0 W/m 10,9 C 18,1 C 6,4 km/h (2 Bft) 100,00 %
23.05.2017 21:12 18,0 C 22,2 C 63 % 1015,8 hPa 0,0 l/m 3,1 km/h (1 Bft) S-SW 194 0 min 0,000 mm 0,0 UV-I 0 W/m 10,8 C 18,0 C 6,4 km/h (2 Bft) 97,37 %
23.05.2017 21:14 17,9 C 22,2 C 64 % 1015,8 hPa 0,0 l/m 2,1 km/h (1 Bft) S-SW 194 0 min 0,000 mm 0,0 UV-I 0 W/m 11,0 C 17,9 C 4,8 km/h (1 Bft) 100,00 %
23.05.2017 21:16 17,8 C 22,2 C 64 % 1015,8 hPa 0,0 l/m 3,3 km/h (1 Bft) S-SW 193 0 min 0,000 mm 0,0 UV-I 0 W/m 10,9 C 17,8 C 6,4 km/h (2 Bft) 100,00 %
23.05.2017 21:18 17,8 C 22,2 C 64 % 1015,8 hPa 0,0 l/m 3,1 km/h (1 Bft) S-SW 192 0 min 0,000 mm 0,0 UV-I 0 W/m 10,9 C 17,8 C 6,4 km/h (2 Bft) 98,11 %
23.05.2017 21:20 17,7 C 22,2 C 64 % 1015,8 hPa 0,0 l/m 2,7 km/h (1 Bft) S 190 0 min 0,000 mm 0,0 UV-I 0 W/m 10,8 C 17,7 C 6,4 km/h (2 Bft) 100,00 %
23.05.2017 21:22 17,7 C 22,2 C 64 % 1015,9 hPa 0,0 l/m 2,7 km/h (1 Bft) S 190 0 min 0,000 mm 0,0 UV-I 0 W/m 10,8 C 17,7 C 6,4 km/h (2 Bft) 96,00 %
23.05.2017 21:24 17,7 C 22,2 C 64 % 1015,9 hPa 0,0 l/m 2,2 km/h (1 Bft) S 190 0 min 0,000 mm 0,0 UV-I 0 W/m 10,8 C 17,7 C 3,2 km/h (1 Bft) 97,87 %
23.05.2017 21:26 17,7 C 22,2 C 64 % 1015,9 hPa 0,0 l/m 2,7 km/h (1 Bft) S 190 0 min 0,000 mm 0,0 UV-I 0 W/m 10,8 C 17,7 C 4,8 km/h (1 Bft) 97,87 %
23.05.2017 21:28 17,7 C 22,2 C 65 % 1016,0 hPa 0,0 l/m 2,8 km/h (1 Bft) S 190 0 min 0,000 mm 0,0 UV-I 0 W/m 11,0 C 17,7 C 4,8 km/h (1 Bft) 100,00 %
23.05.2017 21:30 17,6 C 22,2 C 65 % 1016,0 hPa 0,0 l/m 3,6 km/h (1 Bft) S 190 0 min 0,000 mm 0,0 UV-I 0 W/m 10,9 C 17,6 C 6,4 km/h (2 Bft) 95,74 %
23.05.2017 21:32 17,5 C 22,2 C 65 % 1016,0 hPa 0,0 l/m 3,0 km/h (1 Bft) S 190 0 min 0,000 mm 0,0 UV-I 0 W/m 10,8 C 17,5 C 6,4 km/h (2 Bft) 100,00 %
23.05.2017 21:34 17,6 C 22,2 C 65 % 1016,0 hPa 0,0 l/m 3,6 km/h (1 Bft) S 190 0 min 0,000 mm 0,0 UV-I 0 W/m 10,9 C 17,6 C 6,4 km/h (2 Bft) 100,00 %
23.05.2017 21:36 17,5 C 22,2 C 65 % 1015,9 hPa 0,0 l/m 2,6 km/h (1 Bft) S 190 0 min 0,000 mm 0,0 UV-I 0 W/m 10,8 C 17,5 C 4,8 km/h (1 Bft) 98,00 %
23.05.2017 21:38 17,4 C 22,2 C 66 % 1016,0 hPa 0,0 l/m 2,7 km/h (1 Bft) S 189 0 min 0,000 mm 0,0 UV-I 0 W/m 11,0 C 17,4 C 6,4 km/h (2 Bft) 97,87 %
23.05.2017 21:40 17,3 C 22,2 C 66 % 1016,1 hPa 0,0 l/m 3,8 km/h (1 Bft) S 189 0 min 0,000 mm 0,0 UV-I 0 W/m 10,9 C 17,3 C 8,0 km/h (2 Bft) 98,11 %
23.05.2017 21:42 17,2 C 22,2 C 66 % 1016,1 hPa 0,0 l/m 2,5 km/h (1 Bft) S 189 0 min 0,000 mm 0,0 UV-I 0 W/m 10,8 C 17,2 C 6,4 km/h (2 Bft) 94,74 %
23.05.2017 21:44 17,1 C 22,2 C 66 % 1016,1 hPa 0,0 l/m 1,1 km/h (1 Bft) S 189 0 min 0,000 mm 0,0 UV-I 0 W/m 10,7 C 17,1 C 3,2 km/h (1 Bft) 100,00 %
23.05.2017 21:46 17,1 C 22,2 C 66 % 1016,1 hPa 0,0 l/m 2,0 km/h (1 Bft) S 189 0 min 0,000 mm 0,0 UV-I 0 W/m 10,7 C 17,1 C 4,8 km/h (1 Bft) 94,74 %
23.05.2017 21:48 17,2 C 22,2 C 66 % 1016,1 hPa 0,0 l/m 2,6 km/h (1 Bft) S 189 0 min 0,000 mm 0,0 UV-I 0 W/m 10,8 C 17,2 C 4,8 km/h (1 Bft) 100,00 %
23.05.2017 21:50 17,2 C 22,2 C 65 % 1016,1 hPa 0,0 l/m 2,0 km/h (1 Bft) S 189 0 min 0,000 mm 0,0 UV-I 0 W/m 10,6 C 17,2 C 4,8 km/h (1 Bft) 96,00 %
23.05.2017 21:52 17,3 C 22,2 C 65 % 1016,1 hPa 0,0 l/m 2,4 km/h (1 Bft) S 189 0 min 0,000 mm 0,0 UV-I 0 W/m 10,7 C 17,3 C 4,8 km/h (1 Bft) 95,12 %
23.05.2017 21:54 17,3 C 22,2 C 65 % 1016,1 hPa 0,0 l/m 2,1 km/h (1 Bft) S 189 0 min 0,000 mm 0,0 UV-I 0 W/m 10,7 C 17,3 C 3,2 km/h (1 Bft) 98,11 %
23.05.2017 21:56 17,3 C 22,2 C 65 % 1016,1 hPa 0,0 l/m 1,9 km/h (1 Bft) S 189 0 min 0,000 mm 0,0 UV-I 0 W/m 10,7 C 17,3 C 3,2 km/h (1 Bft) 96,00 %
23.05.2017 21:58 17,2 C 22,2 C 66 % 1016,1 hPa 0,0 l/m 1,6 km/h (1 Bft) S 189 0 min 0,000 mm 0,0 UV-I 0 W/m 10,8 C 17,2 C 3,2 km/h (1 Bft) 97,37 %
23.05.2017 22:00 17,0 C 22,2 C 67 % 1016,1 hPa 0,0 l/m 3,0 km/h (1 Bft) S 188 0 min 0,000 mm 0,0 UV-I 0 W/m 10,8 C 17,0 C 4,8 km/h (1 Bft) 95,45 %
23.05.2017 22:02 16,9 C 22,2 C 67 % 1016,1 hPa 0,0 l/m 2,2 km/h (1 Bft) S 188 0 min 0,025 mm 0,0 UV-I 0 W/m 10,7 C 16,9 C 3,2 km/h (1 Bft) 96,00 %
23.05.2017 22:04 16,8 C 22,2 C 67 % 1016,1 hPa 0,0 l/m 1,6 km/h (1 Bft) S 188 0 min 0,000 mm 0,0 UV-I 0 W/m 10,6 C 16,8 C 3,2 km/h (1 Bft) 98,21 %
23.05.2017 22:06 16,8 C 22,2 C 67 % 1016,1 hPa 0,0 l/m 2,0 km/h (1 Bft) S 188 0 min 0,000 mm 0,0 UV-I 0 W/m 10,6 C 16,8 C 4,8 km/h (1 Bft) 91,67 %
23.05.2017 22:08 16,9 C 22,2 C 67 % 1016,2 hPa 0,0 l/m 1,8 km/h (1 Bft) S 188 0 min 0,000 mm 0,0 UV-I 0 W/m 10,7 C 16,9 C 3,2 km/h (1 Bft) 96,77 %
23.05.2017 22:10 17,0 C 22,2 C 66 % 1016,2 hPa 0,0 l/m 1,6 km/h (1 Bft) S 188 0 min 0,000 mm 0,0 UV-I 0 W/m 10,6 C 17,0 C 3,2 km/h (1 Bft) 97,87 %
23.05.2017 22:12 17,0 C 22,2 C 67 % 1016,2 hPa 0,0 l/m 2,6 km/h (1 Bft) S 188 0 min 0,000 mm 0,0 UV-I 0 W/m 10,8 C 17,0 C 4,8 km/h (1 Bft) 98,11 %
23.05.2017 22:15 16,9 C 22,2 C 68 % 1016,3 hPa 0,0 l/m 1,9 km/h (1 Bft) S 188 0 min 0,000 mm 0,0 UV-I 0 W/m 11,0 C 16,9 C 3,2 km/h (1 Bft) 94,29 %
23.05.2017 22:16 16,9 C 22,2 C 68 % 1016,3 hPa 0,0 l/m 1,7 km/h (1 Bft) S 188 0 min 0,000 mm 0,0 UV-I 0 W/m 11,0 C 16,9 C 3,2 km/h (1 Bft) 100,00 %
23.05.2017 22:20 16,8 C 22,2 C 68 % 1016,3 hPa 0,0 l/m 2,8 km/h (1 Bft) S 188 0 min 0,000 mm 0,0 UV-I 0 W/m 10,9 C 16,8 C 4,8 km/h (1 Bft) 96,91 %
23.05.2017 22:22 16,8 C 22,2 C 69 % 1016,3 hPa 0,0 l/m 3,6 km/h (1 Bft) S 188 0 min 0,000 mm 0,0 UV-I 0 W/m 11,1 C 16,8 C 6,4 km/h (2 Bft) 92,11 %
23.05.2017 22:24 16,7 C 21,7 C 69 % 1016,4 hPa 0,0 l/m 5,2 km/h (1 Bft) S-SW 193 0 min 0,000 mm 0,0 UV-I 0 W/m 11,0 C 16,7 C 8,0 km/h (2 Bft) 94,00 %
23.05.2017 22:26 16,7 C 21,7 C 68 % 1016,4 hPa 0,0 l/m 5,1 km/h (1 Bft) S-SW 193 0 min 0,000 mm 0,0 UV-I 0 W/m 10,8 C 16,7 C 6,4 km/h (2 Bft) 95,12 %
23.05.2017 22:28 16,8 C 21,7 C 68 % 1016,4 hPa 0,0 l/m 5,4 km/h (1 Bft) S 190 0 min 0,000 mm 0,0 UV-I 0 W/m 10,9 C 16,8 C 9,7 km/h (2 Bft) 98,00 %
23.05.2017 22:30 16,9 C 21,7 C 68 % 1016,5 hPa 0,0 l/m 5,6 km/h (1 Bft) S-SW 200 0 min 0,000 mm 0,0 UV-I 0 W/m 11,0 C 16,9 C 11,3 km/h (2 Bft) 100,00 %
23.05.2017 22:32 16,9 C 21,7 C 68 % 1016,5 hPa 0,0 l/m 5,0 km/h (1 Bft) S-SW 211 0 min 0,000 mm 0,0 UV-I 0 W/m 11,0 C 16,9 C 6,4 km/h (2 Bft) 98,11 %
23.05.2017 22:34 17,1 C 21,7 C 68 % 1016,5 hPa 0,0 l/m 6,4 km/h (2 Bft) S-SW 211 0 min 0,000 mm 0,0 UV-I 0 W/m 11,1 C 17,1 C 11,3 km/h (2 Bft) 100,00 %
23.05.2017 22:36 17,2 C 21,7 C 67 % 1016,5 hPa 0,0 l/m 6,6 km/h (2 Bft) S-SW 202 0 min 0,000 mm 0,0 UV-I 0 W/m 11,0 C 17,1 C 9,7 km/h (2 Bft) 96,00 %
23.05.2017 22:38 17,2 C 22,2 C 67 % 1016,5 hPa 0,0 l/m 7,4 km/h (2 Bft) S-SW 198 0 min 0,000 mm 0,0 UV-I 0 W/m 11,0 C 16,7 C 9,7 km/h (2 Bft) 96,23 %
23.05.2017 22:40 17,2 C 21,7 C 68 % 1016,5 hPa 0,0 l/m 6,1 km/h (2 Bft) S-SW 201 0 min 0,000 mm 0,0 UV-I 0 W/m 11,2 C 17,2 C 8,0 km/h (2 Bft) 97,37 %
23.05.2017 22:43 17,2 C 21,7 C 67 % 1016,4 hPa 0,0 l/m 5,9 km/h (2 Bft) S-SW 196 0 min 0,000 mm 0,0 UV-I 0 W/m 11,0 C 17,2 C 9,7 km/h (2 Bft) 98,65 %
23.05.2017 22:44 17,2 C 21,7 C 67 % 1016,4 hPa 0,0 l/m 5,2 km/h (1 Bft) S-SW 196 0 min 0,000 mm 0,0 UV-I 0 W/m 11,0 C 17,2 C 6,4 km/h (2 Bft) 100,00 %
23.05.2017 22:46 17,3 C 21,7 C 67 % 1016,4 hPa 0,0 l/m 5,8 km/h (2 Bft) SW 234 0 min 0,000 mm 0,0 UV-I 0 W/m 11,1 C 17,3 C 8,0 km/h (2 Bft) 98,00 %
23.05.2017 22:48 17,4 C 21,7 C 66 % 1016,5 hPa 0,0 l/m 7,2 km/h (2 Bft) SW 227 0 min 0,000 mm 0,0 UV-I 0 W/m 11,0 C 17,0 C 9,7 km/h (2 Bft) 100,00 %
23.05.2017 22:50 17,4 C 21,7 C 66 % 1016,5 hPa 0,0 l/m 6,9 km/h (2 Bft) SW 219 0 min 0,000 mm 0,0 UV-I 0 W/m 11,0 C 17,2 C 9,7 km/h (2 Bft) 95,74 %
23.05.2017 22:52 17,5 C 21,7 C 66 % 1016,5 hPa 0,0 l/m 7,7 km/h (2 Bft) SW 218 0 min 0,000 mm 0,0 UV-I 0 W/m 11,1 C 16,9 C 9,7 km/h (2 Bft) 98,15 %
23.05.2017 22:54 17,6 C 21,7 C 66 % 1016,5 hPa 0,0 l/m 7,0 km/h (2 Bft) SW 215 0 min 0,000 mm 0,0 UV-I 0 W/m 11,2 C 17,3 C 11,3 km/h (2 Bft) 97,87 %
23.05.2017 22:56 17,6 C 21,7 C 66 % 1016,5 hPa 0,0 l/m 7,8 km/h (2 Bft) SW 216 0 min 0,000 mm 0,0 UV-I 0 W/m 11,2 C 16,9 C 11,3 km/h (2 Bft) 95,74 %
23.05.2017 22:58 17,6 C 21,7 C 66 % 1016,5 hPa 0,0 l/m 6,8 km/h (2 Bft) S-SW 210 0 min 0,000 mm 0,0 UV-I 0 W/m 11,2 C 17,4 C 9,7 km/h (2 Bft) 97,37 %
23.05.2017 23:00 17,6 C 21,7 C 66 % 1016,5 hPa 0,0 l/m 7,7 km/h (2 Bft) S-SW 206 0 min 0,000 mm 0,0 UV-I 0 W/m 11,2 C 17,0 C 11,3 km/h (2 Bft) 94,34 %
23.05.2017 23:02 17,6 C 21,7 C 66 % 1016,5 hPa 0,0 l/m 7,5 km/h (2 Bft) SW 236 0 min 0,026 mm 0,0 UV-I 0 W/m 11,2 C 17,1 C 11,3 km/h (2 Bft) 94,74 %
23.05.2017 23:04 17,7 C 21,7 C 65 % 1016,5 hPa 0,0 l/m 8,5 km/h (2 Bft) W-SW 240 0 min 0,000 mm 0,0 UV-I 0 W/m 11,0 C 16,7 C 14,5 km/h (3 Bft) 96,23 %
23.05.2017 23:06 17,7 C 21,7 C 66 % 1016,5 hPa 0,0 l/m 10,0 km/h (2 Bft) S-SW 212 0 min 0,000 mm 0,0 UV-I 0 W/m 11,3 C 16,1 C 17,7 km/h (3 Bft) 97,56 %
23.05.2017 23:08 17,7 C 21,7 C 66 % 1016,5 hPa 0,0 l/m 10,8 km/h (2 Bft) SW 222 0 min 0,000 mm 0,0 UV-I 0 W/m 11,3 C 15,8 C 14,5 km/h (3 Bft) 95,12 %
23.05.2017 23:10 17,7 C 21,7 C 66 % 1016,5 hPa 0,0 l/m 12,0 km/h (2 Bft) SW 229 0 min 0,000 mm 0,0 UV-I 0 W/m 11,3 C 15,4 C 17,7 km/h (3 Bft) 98,46 %
23.05.2017 23:12 17,7 C 21,7 C 66 % 1016,5 hPa 0,0 l/m 10,8 km/h (2 Bft) W-SW 241 0 min 0,000 mm 0,0 UV-I 0 W/m 11,3 C 15,8 C 16,1 km/h (3 Bft) 92,31 %
23.05.2017 23:14 17,7 C 21,7 C 66 % 1016,6 hPa 0,0 l/m 12,0 km/h (2 Bft) W-SW 247 0 min 0,000 mm 0,0 UV-I 0 W/m 11,3 C 15,4 C 16,1 km/h (3 Bft) 97,06 %
23.05.2017 23:16 17,7 C 21,7 C 66 % 1016,6 hPa 0,0 l/m 11,0 km/h (2 Bft) SW 225 0 min 0,000 mm 0,0 UV-I 0 W/m 11,3 C 15,7 C 17,7 km/h (3 Bft) 94,74 %
23.05.2017 23:18 17,7 C 21,7 C 66 % 1016,5 hPa 0,0 l/m 12,3 km/h (3 Bft) SW 234 0 min 0,000 mm 0,0 UV-I 0 W/m 11,3 C 15,3 C 17,7 km/h (3 Bft) 94,64 %
23.05.2017 23:20 17,7 C 21,7 C 66 % 1016,6 hPa 0,0 l/m 12,5 km/h (3 Bft) SW 231 0 min 0,000 mm 0,0 UV-I 0 W/m 11,3 C 15,2 C 17,7 km/h (3 Bft) 97,87 %
23.05.2017 23:22 17,7 C 21,7 C 66 % 1016,6 hPa 0,0 l/m 14,1 km/h (3 Bft) SW 226 0 min 0,000 mm 0,0 UV-I 0 W/m 11,3 C 14,7 C 22,5 km/h (4 Bft) 97,14 %
23.05.2017 23:24 17,8 C 21,7 C 65 % 1016,6 hPa 0,0 l/m 15,4 km/h (3 Bft) SW 225 0 min 0,000 mm 0,0 UV-I 0 W/m 11,1 C 14,5 C 20,9 km/h (4 Bft) 92,00 %
23.05.2017 23:26 17,8 C 21,7 C 65 % 1016,5 hPa 0,0 l/m 11,9 km/h (2 Bft) SW 224 0 min 0,000 mm 0,0 UV-I 0 W/m 11,1 C 15,5 C 20,9 km/h (4 Bft) 96,23 %
23.05.2017 23:28 17,8 C 21,7 C 65 % 1016,5 hPa 0,0 l/m 9,7 km/h (2 Bft) SW 226 0 min 0,000 mm 0,0 UV-I 0 W/m 11,1 C 16,3 C 16,1 km/h (3 Bft) 94,87 %
23.05.2017 23:30 17,8 C 21,7 C 65 % 1016,5 hPa 0,0 l/m 9,7 km/h (2 Bft) W-SW 240 0 min 0,000 mm 0,0 UV-I 0 W/m 11,1 C 16,3 C 14,5 km/h (3 Bft) 98,00 %
23.05.2017 23:32 17,7 C 21,7 C 65 % 1016,6 hPa 0,0 l/m 10,2 km/h (2 Bft) SW 219 0 min 0,000 mm 0,0 UV-I 0 W/m 11,0 C 16,0 C 16,1 km/h (3 Bft) 94,00 %
23.05.2017 23:34 17,7 C 21,7 C 66 % 1016,6 hPa 0,0 l/m 10,4 km/h (2 Bft) S-SW 211 0 min 0,000 mm 0,0 UV-I 0 W/m 11,3 C 15,9 C 16,1 km/h (3 Bft) 97,87 %
23.05.2017 23:36 17,6 C 21,7 C 66 % 1016,6 hPa 0,0 l/m 9,8 km/h (2 Bft) SW 234 0 min 0,000 mm 0,0 UV-I 0 W/m 11,2 C 16,1 C 16,1 km/h (3 Bft) 96,00 %
23.05.2017 23:38 17,6 C 21,7 C 66 % 1016,6 hPa 0,0 l/m 9,6 km/h (2 Bft) W 266 0 min 0,000 mm 0,0 UV-I 0 W/m 11,2 C 16,1 C 16,1 km/h (3 Bft) 97,14 %
23.05.2017 23:40 17,5 C 21,7 C 66 % 1016,5 hPa 0,0 l/m 9,9 km/h (2 Bft) SW 218 0 min 0,000 mm 0,0 UV-I 0 W/m 11,1 C 15,9 C 16,1 km/h (3 Bft) 96,43 %
23.05.2017 23:42 17,4 C 21,7 C 67 % 1016,5 hPa 0,0 l/m 9,2 km/h (2 Bft) S-SW 211 0 min 0,000 mm 0,0 UV-I 0 W/m 11,2 C 16,1 C 14,5 km/h (3 Bft) 97,37 %
23.05.2017 23:44 17,4 C 21,7 C 67 % 1016,5 hPa 0,0 l/m 8,1 km/h (2 Bft) S-SW 204 0 min 0,000 mm 0,0 UV-I 0 W/m 11,2 C 16,6 C 12,9 km/h (3 Bft) 96,23 %
23.05.2017 23:46 17,3 C 21,7 C 67 % 1016,6 hPa 0,0 l/m 8,4 km/h (2 Bft) W-SW 247 0 min 0,000 mm 0,0 UV-I 0 W/m 11,1 C 16,3 C 12,9 km/h (3 Bft) 98,11 %
23.05.2017 23:48 17,3 C 21,7 C 67 % 1016,5 hPa 0,0 l/m 8,0 km/h (2 Bft) SW 234 0 min 0,000 mm 0,0 UV-I 0 W/m 11,1 C 16,5 C 12,9 km/h (3 Bft) 95,74 %
23.05.2017 23:50 17,3 C 21,7 C 67 % 1016,6 hPa 0,0 l/m 8,0 km/h (2 Bft) SW 228 0 min 0,000 mm 0,0 UV-I 0 W/m 11,1 C 16,5 C 12,9 km/h (3 Bft) 92,68 %
23.05.2017 23:52 17,3 C 21,7 C 67 % 1016,5 hPa 0,0 l/m 8,0 km/h (2 Bft) SW 227 0 min 0,000 mm 0,0 UV-I 0 W/m 11,1 C 16,5 C 14,5 km/h (3 Bft) 97,56 %
23.05.2017 23:54 17,2 C 21,7 C 67 % 1016,5 hPa 0,0 l/m 8,4 km/h (2 Bft) SW 229 0 min 0,000 mm 0,0 UV-I 0 W/m 11,0 C 16,2 C 12,9 km/h (3 Bft) 96,23 %
23.05.2017 23:56 17,2 C 21,7 C 68 % 1016,5 hPa 0,0 l/m 9,2 km/h (2 Bft) S-SW 211 0 min 0,000 mm 0,0 UV-I 0 W/m 11,2 C 15,9 C 12,9 km/h (3 Bft) 98,00 %
23.05.2017 23:58 17,2 C 21,7 C 68 % 1016,5 hPa 0,0 l/m 8,0 km/h (2 Bft) SW 227 0 min 0,000 mm 0,0 UV-I 0 W/m 11,2 C 16,4 C 14,5 km/h (3 Bft) 95,12 %
_ Min-Zeit 05:26 04:42 16:12 17:28 - 00:04 - - - - - - 05:26 05:26 00:04 19:54
Minimum _ 9,7 C 20,0 C 38 % 1014,6 hPa - 0,0 km/h (0 Bft) - - - - - - 8,1 C 9,7 C 0,0 km/h (0 Bft) 75,00 %
_ Max-Zeit 16:28 15:48 05:30 09:06 00:00 15:28 - - 16:10 15:02 12:38 13:00 12:10 17:18 15:48 00:32
Maximum _ 24,5 C 22,2 C 91 % 1016,6 hPa 0,0 l/m 24,9 km/h
SW (4 Bft)
- - 5 min 0,635 mm 5,4 UV-I 1055 W/m 15,2 C 23,9 C 38,6 km/h
W-SW (5 Bft)
100,00 %
Durchschnitt _ 17,7 C 21,1 C 66 % 1015,6 hPa #0,0 l/m 6,1 km/h (2 Bft) W-SW - #10:23 h #4,877 mm 2,7 UV-I 421 W/m 10,7 C 17,2 C 10,6 km/h (2 Bft) 96,44 %